[[{"header":{"parameterUnit":"m.s-1","parameterCategory":1,"la1":30.6,"la2":29.2853,"lo1":-89.7004,"lo2":-87.6739,"dx":0.0162,"dy":0.0183,"nx":112,"ny":82,"refTime":"2022-12-27T06:00:00:Z","depth":0,"parameterNumber":2,"parameterNumberName":"U-component_of_WINDS"},"data":[0.0,0.0,0.0,0.0,0.0,0.0,0.0,0.0,0.0,0.0,0.0,0.0,0.0,0.0,0.0,0.0,0.0,0.0,0.0,0.0,0.0,0.0,0.0,0.0,0.0,0.0,0.0,0.0,0.0,0.0,0.0,0.0,0.0,0.0,0.0,0.0,0.0,0.0,0.0,0.0,0.0,0.0,0.0,0.0,0.0,0.0,0.0,0.0,0.0,0.0,0.0,0.0,0.0,0.0,0.0,0.0,0.0,0.0,0.0,0.0,0.0,0.0,0.0,0.0,0.0,0.0,0.0,0.0,0.0,0.0,0.0,0.0,0.0,0.0,0.0,0.0,0.0,0.0,0.0,0.0,0.0,0.0,0.0,0.0,0.0,0.0,0.0,0.0,0.0,0.0,-6.5529,-6.5752,-6.6924,-6.6615,-6.394,-6.366,-6.3479,-6.3229,0.0,0.0,0.0,0.0,0.0,0.0,0.0,0.0,0.0,0.0,0.0,0.0,0.0,0.0,0.0,0.0,0.0,0.0,0.0,0.0,0.0,0.0,0.0,0.0,0.0,0.0,0.0,0.0,0.0,0.0,0.0,0.0,0.0,0.0,0.0,0.0,0.0,0.0,0.0,0.0,0.0,0.0,0.0,0.0,0.0,0.0,0.0,0.0,0.0,0.0,0.0,0.0,0.0,0.0,0.0,0.0,0.0,0.0,0.0,0.0,0.0,0.0,0.0,0.0,0.0,0.0,0.0,0.0,0.0,0.0,0.0,0.0,0.0,0.0,0.0,0.0,0.0,0.0,0.0,0.0,0.0,0.0,0.0,0.0,0.0,0.0,0.0,0.0,0.0,0.0,0.0,0.0,0.0,0.0,0.0,0.0,0.0,0.0,0.0,0.0,0.0,0.0,0.0,0.0,-6.3388,-6.4746,-6.5599,-6.5263,-6.3361,-6.3186,-6.3092,-6.2778,0.0,0.0,0.0,0.0,0.0,0.0,0.0,0.0,0.0,0.0,0.0,0.0,0.0,0.0,0.0,0.0,0.0,0.0,0.0,0.0,0.0,0.0,0.0,0.0,0.0,0.0,0.0,0.0,0.0,0.0,0.0,0.0,0.0,0.0,0.0,0.0,0.0,0.0,0.0,0.0,0.0,0.0,0.0,0.0,0.0,0.0,0.0,0.0,0.0,0.0,0.0,0.0,0.0,0.0,0.0,0.0,0.0,0.0,0.0,0.0,0.0,0.0,0.0,0.0,0.0,0.0,0.0,0.0,0.0,0.0,0.0,0.0,0.0,0.0,0.0,0.0,0.0,0.0,0.0,0.0,0.0,0.0,0.0,0.0,0.0,0.0,0.0,0.0,0.0,0.0,0.0,0.0,0.0,0.0,0.0,0.0,0.0,0.0,0.0,0.0,0.0,0.0,0.0,-6.2481,-6.3867,-6.5621,-6.578,-6.5425,-6.4723,-6.4006,-6.3505,-6.3271,-6.2031,0.0,0.0,0.0,0.0,0.0,0.0,0.0,0.0,0.0,0.0,0.0,0.0,0.0,0.0,0.0,0.0,0.0,0.0,0.0,0.0,0.0,0.0,0.0,0.0,0.0,0.0,0.0,0.0,0.0,0.0,0.0,0.0,0.0,0.0,0.0,0.0,0.0,0.0,0.0,0.0,0.0,0.0,0.0,0.0,0.0,0.0,0.0,0.0,0.0,0.0,0.0,0.0,0.0,0.0,0.0,0.0,0.0,0.0,0.0,0.0,0.0,0.0,0.0,0.0,0.0,0.0,0.0,0.0,0.0,0.0,0.0,0.0,0.0,0.0,0.0,0.0,0.0,0.0,0.0,0.0,0.0,0.0,0.0,0.0,0.0,0.0,0.0,0.0,0.0,0.0,0.0,0.0,0.0,0.0,0.0,0.0,0.0,0.0,0.0,0.0,0.0,0.0,-6.3393,-6.4493,-6.591,-6.5661,-6.5414,-6.5503,-6.4455,-6.3602,-6.3134,-6.1974,0.0,0.0,0.0,0.0,0.0,0.0,0.0,0.0,0.0,0.0,0.0,0.0,0.0,0.0,0.0,0.0,0.0,0.0,0.0,0.0,0.0,0.0,0.0,0.0,0.0,0.0,0.0,0.0,0.0,0.0,0.0,0.0,0.0,0.0,0.0,0.0,0.0,0.0,0.0,0.0,0.0,0.0,0.0,0.0,0.0,0.0,0.0,0.0,0.0,0.0,0.0,0.0,0.0,0.0,0.0,0.0,0.0,0.0,0.0,0.0,0.0,0.0,0.0,0.0,0.0,0.0,0.0,0.0,0.0,0.0,0.0,0.0,0.0,0.0,0.0,0.0,0.0,0.0,0.0,0.0,0.0,0.0,0.0,0.0,0.0,0.0,0.0,0.0,0.0,0.0,0.0,0.0,0.0,0.0,0.0,0.0,0.0,0.0,0.0,0.0,0.0,0.0,-6.2668,-6.4034,-6.4153,-6.4123,-6.4153,-6.4126,-6.3528,-6.2627,-6.1365,-6.0905,0.0,0.0,0.0,0.0,0.0,0.0,0.0,0.0,0.0,0.0,0.0,0.0,0.0,0.0,0.0,0.0,0.0,0.0,0.0,0.0,0.0,0.0,0.0,0.0,0.0,0.0,0.0,0.0,0.0,0.0,0.0,0.0,0.0,0.0,0.0,0.0,0.0,0.0,0.0,0.0,0.0,0.0,0.0,0.0,0.0,0.0,0.0,0.0,0.0,0.0,0.0,0.0,0.0,0.0,0.0,0.0,0.0,0.0,0.0,0.0,0.0,0.0,0.0,0.0,0.0,0.0,0.0,0.0,0.0,0.0,0.0,0.0,0.0,0.0,0.0,0.0,0.0,0.0,0.0,0.0,0.0,0.0,0.0,0.0,0.0,0.0,0.0,0.0,0.0,0.0,0.0,0.0,0.0,0.0,0.0,0.0,0.0,0.0,0.0,0.0,0.0,0.0,-6.1921,-6.3438,-6.5084,-6.4485,-6.4515,-6.5742,-6.4904,-6.3558,-6.1822,0.0,0.0,0.0,0.0,0.0,0.0,0.0,0.0,0.0,0.0,0.0,0.0,0.0,0.0,0.0,0.0,0.0,0.0,0.0,0.0,0.0,0.0,0.0,0.0,0.0,0.0,0.0,0.0,0.0,0.0,0.0,0.0,0.0,0.0,0.0,0.0,0.0,0.0,0.0,0.0,0.0,0.0,0.0,0.0,0.0,0.0,0.0,0.0,0.0,0.0,0.0,0.0,0.0,0.0,0.0,0.0,0.0,0.0,0.0,0.0,0.0,0.0,0.0,0.0,0.0,0.0,0.0,0.0,0.0,0.0,0.0,0.0,0.0,0.0,0.0,0.0,0.0,0.0,0.0,0.0,0.0,0.0,0.0,0.0,0.0,0.0,0.0,0.0,0.0,0.0,0.0,0.0,0.0,0.0,0.0,0.0,0.0,0.0,0.0,0.0,0.0,0.0,-6.0486,-6.1649,-6.3258,-6.5473,-6.4665,-6.4635,-6.6221,-6.5353,-6.3857,-6.1912,0.0,0.0,0.0,0.0,0.0,0.0,0.0,0.0,0.0,0.0,0.0,0.0,0.0,0.0,0.0,0.0,0.0,0.0,0.0,0.0,0.0,0.0,0.0,0.0,0.0,0.0,0.0,0.0,0.0,0.0,0.0,0.0,0.0,0.0,0.0,0.0,0.0,0.0,0.0,0.0,0.0,0.0,0.0,0.0,0.0,0.0,0.0,0.0,0.0,0.0,0.0,0.0,0.0,0.0,0.0,0.0,0.0,0.0,0.0,0.0,0.0,0.0,0.0,0.0,0.0,0.0,0.0,0.0,0.0,0.0,0.0,0.0,0.0,0.0,0.0,0.0,0.0,0.0,0.0,0.0,0.0,0.0,0.0,0.0,0.0,0.0,0.0,0.0,0.0,0.0,0.0,0.0,0.0,0.0,0.0,0.0,0.0,0.0,0.0,0.0,0.0,0.0,-6.0547,-6.2072,-6.3588,-6.4874,-6.4425,-6.4306,-6.4934,-6.4425,-6.3199,0.0,0.0,0.0,0.0,0.0,0.0,0.0,0.0,0.0,0.0,0.0,0.0,0.0,0.0,0.0,0.0,0.0,0.0,0.0,0.0,0.0,0.0,0.0,0.0,0.0,0.0,0.0,0.0,0.0,0.0,0.0,0.0,0.0,0.0,0.0,0.0,0.0,0.0,0.0,0.0,0.0,0.0,0.0,0.0,0.0,0.0,0.0,0.0,0.0,0.0,0.0,0.0,0.0,0.0,0.0,0.0,0.0,0.0,0.0,0.0,0.0,0.0,0.0,0.0,0.0,0.0,0.0,0.0,0.0,0.0,0.0,0.0,0.0,0.0,0.0,0.0,0.0,0.0,0.0,0.0,0.0,0.0,0.0,0.0,0.0,0.0,0.0,0.0,0.0,0.0,0.0,0.0,0.0,0.0,0.0,0.0,0.0,0.0,0.0,0.0,0.0,0.0,0.0,-5.9645,-6.2018,-6.4066,-6.4934,-6.5263,-6.5503,-6.5712,-6.5114,-6.4096,-6.26,0.0,0.0,0.0,0.0,0.0,0.0,0.0,0.0,0.0,0.0,0.0,0.0,0.0,0.0,0.0,0.0,0.0,0.0,0.0,0.0,0.0,0.0,0.0,0.0,0.0,0.0,0.0,0.0,0.0,0.0,0.0,0.0,0.0,0.0,0.0,0.0,0.0,0.0,0.0,0.0,0.0,0.0,0.0,0.0,0.0,0.0,0.0,0.0,0.0,0.0,0.0,0.0,0.0,0.0,0.0,0.0,0.0,0.0,0.0,0.0,0.0,0.0,0.0,0.0,0.0,0.0,0.0,0.0,0.0,0.0,0.0,0.0,0.0,0.0,0.0,0.0,0.0,0.0,0.0,0.0,0.0,0.0,0.0,0.0,0.0,0.0,0.0,0.0,0.0,0.0,0.0,0.0,0.0,0.0,0.0,0.0,0.0,0.0,0.0,0.0,0.0,0.0,-5.9225,-6.1972,-6.4276,-6.4964,-6.5622,-6.6011,-6.6011,-6.5652,-6.4755,-6.3169,0.0,0.0,0.0,0.0,0.0,0.0,0.0,0.0,0.0,0.0,0.0,0.0,0.0,0.0,0.0,0.0,0.0,0.0,0.0,0.0,0.0,0.0,0.0,0.0,0.0,0.0,0.0,0.0,0.0,0.0,0.0,0.0,0.0,0.0,0.0,0.0,0.0,0.0,0.0,0.0,0.0,0.0,0.0,0.0,0.0,0.0,0.0,0.0,0.0,0.0,0.0,0.0,0.0,0.0,0.0,0.0,0.0,0.0,0.0,0.0,0.0,0.0,0.0,0.0,0.0,0.0,0.0,0.0,0.0,0.0,0.0,0.0,0.0,0.0,0.0,0.0,0.0,0.0,0.0,0.0,0.0,0.0,0.0,0.0,0.0,0.0,0.0,0.0,0.0,0.0,0.0,0.0,0.0,0.0,0.0,0.0,0.0,0.0,0.0,0.0,0.0,0.0,-5.9207,-6.2061,-6.4366,-6.5144,-6.5802,-6.6191,-6.6191,-6.6131,-6.5323,-6.3468,0.0,0.0,0.0,0.0,0.0,0.0,0.0,0.0,0.0,0.0,0.0,0.0,0.0,0.0,0.0,0.0,0.0,0.0,0.0,0.0,0.0,0.0,0.0,0.0,0.0,0.0,0.0,0.0,0.0,0.0,0.0,0.0,0.0,0.0,0.0,0.0,0.0,0.0,0.0,0.0,0.0,0.0,0.0,0.0,0.0,0.0,0.0,0.0,0.0,0.0,0.0,0.0,0.0,0.0,0.0,0.0,0.0,0.0,0.0,0.0,-5.4209,-5.3233,0.0,0.0,0.0,0.0,0.0,0.0,0.0,0.0,0.0,0.0,0.0,0.0,0.0,0.0,0.0,0.0,0.0,0.0,0.0,0.0,0.0,0.0,0.0,0.0,0.0,0.0,0.0,0.0,0.0,0.0,0.0,0.0,0.0,0.0,0.0,0.0,0.0,0.0,0.0,0.0,-6.0011,-6.275,-6.5263,-6.646,-6.7148,-6.7537,-6.7537,-6.7089,-6.637,-6.5443,-6.4246,0.0,0.0,0.0,0.0,0.0,0.0,0.0,0.0,0.0,0.0,0.0,0.0,0.0,0.0,0.0,0.0,0.0,0.0,0.0,0.0,0.0,0.0,0.0,0.0,0.0,0.0,0.0,0.0,0.0,0.0,0.0,0.0,0.0,0.0,0.0,0.0,0.0,0.0,0.0,0.0,0.0,0.0,0.0,0.0,0.0,0.0,0.0,0.0,0.0,0.0,0.0,0.0,0.0,0.0,0.0,0.0,0.0,0.0,0.0,-5.5972,-5.4835,0.0,0.0,0.0,0.0,0.0,0.0,0.0,0.0,0.0,0.0,0.0,0.0,0.0,0.0,0.0,0.0,0.0,0.0,0.0,0.0,0.0,0.0,0.0,0.0,0.0,0.0,0.0,0.0,0.0,0.0,0.0,0.0,0.0,0.0,0.0,0.0,0.0,0.0,0.0,0.0,-6.0591,-6.3468,-6.5892,-6.6879,-6.7867,-6.8345,-6.8048,-6.7657,-6.7059,-6.6071,-6.5652,0.0,0.0,0.0,0.0,0.0,0.0,0.0,0.0,0.0,0.0,0.0,0.0,0.0,0.0,0.0,0.0,0.0,0.0,0.0,0.0,0.0,0.0,0.0,0.0,0.0,0.0,0.0,0.0,0.0,0.0,0.0,0.0,0.0,0.0,0.0,0.0,0.0,0.0,0.0,0.0,0.0,0.0,0.0,0.0,0.0,0.0,0.0,0.0,0.0,0.0,0.0,0.0,0.0,-5.5119,-5.5927,-5.6077,-5.7244,-5.8471,-5.9488,-5.7094,-5.6047,-5.5957,-5.485,0.0,0.0,0.0,0.0,0.0,0.0,0.0,0.0,0.0,0.0,0.0,0.0,0.0,0.0,0.0,0.0,0.0,0.0,0.0,0.0,0.0,0.0,-6.008,-6.0062,-6.1072,-6.1905,-6.1597,0.0,0.0,0.0,0.0,0.0,0.0,0.0,0.0,0.0,0.0,0.0,-6.1373,-6.4126,-6.634,-6.7238,-6.8345,-6.8824,-6.8375,-6.8315,-6.7747,-6.643,-6.6849,-6.6311,0.0,0.0,0.0,0.0,0.0,0.0,0.0,0.0,0.0,0.0,0.0,0.0,0.0,0.0,0.0,0.0,0.0,0.0,0.0,0.0,0.0,0.0,0.0,0.0,0.0,0.0,0.0,0.0,0.0,0.0,0.0,0.0,-5.0287,-5.1798,0.0,0.0,0.0,0.0,0.0,0.0,0.0,0.0,0.0,0.0,0.0,0.0,0.0,-5.2109,-5.4112,-5.477,-5.506,-5.497,-5.7423,-5.889,-5.9458,-6.0236,-6.0984,-6.1613,-6.0086,0.0,-5.9428,-5.9249,0.0,0.0,0.0,0.0,0.0,0.0,0.0,0.0,0.0,0.0,0.0,0.0,0.0,0.0,0.0,0.0,0.0,0.0,0.0,0.0,0.0,0.0,-6.2498,-6.1928,-6.2769,-6.364,-6.3632,-6.2285,-6.0742,-5.9618,-5.8893,-5.7997,0.0,0.0,0.0,0.0,0.0,0.0,-6.281,-6.4695,-6.67,-6.8525,-6.8884,-6.9183,-6.9662,-6.9722,-6.9153,-6.7807,-6.7807,-6.7208,-6.5802,-6.5293,0.0,0.0,0.0,0.0,0.0,0.0,0.0,0.0,0.0,0.0,0.0,0.0,0.0,0.0,0.0,0.0,0.0,0.0,0.0,0.0,0.0,0.0,0.0,0.0,0.0,0.0,0.0,0.0,0.0,-4.8642,-5.0011,-5.1439,-5.2503,-5.2791,0.0,0.0,0.0,0.0,0.0,0.0,0.0,0.0,0.0,-5.2301,-5.29,-5.4054,-5.5854,-5.7255,-5.8141,-5.853,-6.0446,-6.1672,-6.2301,-6.2989,-6.3468,-6.3707,-6.272,-6.2271,-6.2091,-5.9488,-5.7693,-5.6615,0.0,0.0,0.0,0.0,-5.7543,-5.7693,-5.874,-5.9338,-5.9548,-5.889,0.0,0.0,0.0,0.0,0.0,0.0,0.0,-6.0553,-6.1613,-6.219,-6.254,-6.263,-6.3348,-6.4006,-6.4006,-6.3339,-6.2401,-6.1267,-6.016,-5.9063,-5.8038,-5.9159,0.0,0.0,0.0,-6.3857,-6.4635,-6.5802,-6.7328,-6.9333,-6.9542,-6.9662,-6.9961,-6.9991,-6.9572,-6.8615,-6.8914,-6.8495,-6.7178,-6.6819,-6.5562,0.0,0.0,0.0,0.0,0.0,0.0,0.0,0.0,0.0,0.0,0.0,0.0,0.0,0.0,0.0,0.0,0.0,0.0,0.0,0.0,0.0,0.0,0.0,0.0,0.0,0.0,0.0,0.0,-4.9473,-5.0323,-5.1166,-5.2683,-5.3152,0.0,0.0,0.0,0.0,0.0,0.0,-5.0602,-5.1016,-5.1961,-5.3612,-5.5097,-5.6705,-5.8451,-5.9882,-6.0864,-6.1373,-6.269,-6.3558,-6.4006,-6.4695,-6.4934,-6.4725,-6.4066,-6.3677,-6.3258,-5.9967,-5.8141,-5.7453,-5.7633,-5.7483,-5.7274,-5.8082,-5.8381,-5.853,-5.9727,-6.0446,-6.0775,-6.0266,-6.0446,-6.0731,-5.994,0.0,0.0,0.0,0.0,-6.0475,-6.2151,-6.248,-6.254,-6.3378,-6.4066,-6.4545,-6.4725,-6.4755,-6.4336,-6.2869,-6.1642,-6.0625,-5.9967,-6.0984,0.0,-6.1642,-6.3408,-6.5084,-6.5892,-6.6879,-6.8076,-6.9572,-6.9871,-7.0051,-7.0201,-7.0201,-6.9931,-6.9303,-6.9722,-6.9393,-6.8016,-6.7956,-6.6879,-6.4545,0.0,0.0,0.0,0.0,0.0,0.0,0.0,0.0,0.0,0.0,0.0,0.0,0.0,0.0,0.0,0.0,0.0,0.0,0.0,0.0,0.0,0.0,0.0,0.0,0.0,0.0,0.0,0.0,0.0,-5.1866,-5.4082,0.0,0.0,0.0,0.0,-5.3288,-5.1183,-5.036,-5.1355,-5.2244,-5.4047,-5.6961,-5.8289,-5.9913,-6.1828,-6.1972,-6.2002,-6.2061,-6.3348,-6.3977,-6.4006,-6.4695,-6.4665,-6.4006,-6.3378,-6.278,-6.2211,-6.26,-6.2032,-6.0924,-6.1553,-6.1014,-6.0057,-6.1373,-6.1852,-6.1942,-6.263,-6.2899,-6.2929,-6.2899,-6.1642,-6.0116,-6.0052,-5.8787,0.0,0.0,-6.0141,-6.0685,-6.3228,-6.3468,-6.3348,-6.4635,-6.5413,-6.6071,-6.67,-6.6849,-6.6251,-6.4276,-6.3378,-6.272,-6.2061,0.0,-6.3647,-6.3079,-6.5173,-6.664,-6.6071,-6.7687,-6.8944,-6.9034,-6.9602,-7.0231,-7.0799,-7.0859,-7.059,-6.9961,-6.9961,-6.9393,-6.8016,-6.7956,-6.7328,-6.5951,-6.4605,0.0,0.0,0.0,0.0,0.0,0.0,0.0,0.0,0.0,0.0,0.0,0.0,0.0,0.0,0.0,0.0,0.0,0.0,0.0,0.0,0.0,0.0,0.0,0.0,0.0,0.0,0.0,0.0,-5.3051,-5.4683,0.0,-5.3276,-5.3979,-5.4232,-5.3549,-5.3018,-5.2837,-5.3223,-5.5156,-5.6535,-5.721,-5.9335,-6.0743,-6.1463,-6.1882,-6.2301,-6.272,-6.3588,-6.4246,-6.4665,-6.4904,-6.4904,-6.4635,-6.3947,-6.3528,-6.3318,-6.3139,-6.2301,-6.1134,-6.1373,-6.1164,-6.0805,-6.1283,-6.1463,-6.1553,-6.2211,-6.245,-6.251,-6.2929,-6.26,-6.2002,-6.2002,-6.1523,-6.1104,-6.1822,-6.2002,-6.2301,-6.3647,-6.3827,-6.3887,-6.4814,-6.5862,-6.67,-6.6939,-6.7687,-6.8076,-6.7358,-6.6011,-6.5024,-6.5203,-6.5622,-6.5862,-6.5622,-6.64,-6.7238,-6.7867,-6.8166,-6.8824,-7.0081,-7.0081,-7.0231,-7.0859,-7.0889,-7.0799,-7.059,-7.056,-7.0171,-6.9303,-6.9273,-6.8435,-6.667,-6.658,-6.5473,0.0,0.0,0.0,0.0,0.0,0.0,0.0,0.0,0.0,0.0,0.0,0.0,0.0,0.0,0.0,0.0,0.0,0.0,0.0,0.0,0.0,0.0,0.0,0.0,0.0,-5.2633,-5.3838,-5.3416,-5.4941,-5.5395,-5.3884,-5.4758,-5.5273,-5.4828,-5.4512,-5.4634,-5.5237,-5.71,-5.8151,-5.821,-6.0556,-6.1762,-6.1762,-6.2421,-6.2959,-6.3408,-6.4036,-6.4575,-6.5024,-6.5024,-6.4904,-6.4665,-6.4186,-6.3887,-6.3647,-6.3258,-6.269,-6.2061,-6.1852,-6.1912,-6.2091,-6.2091,-6.2091,-6.2121,-6.2361,-6.2421,-6.251,-6.2929,-6.2929,-6.275,-6.275,-6.26,-6.245,-6.269,-6.2899,-6.3258,-6.4126,-6.4336,-6.4575,-6.5473,-6.634,-6.7059,-6.7268,-6.8196,-6.9004,-6.9004,-6.7926,-6.7148,-6.7597,-6.7657,-6.7657,-6.7657,-6.7867,-6.8256,-6.8914,-6.8974,-6.9363,-7.047,-7.041,-7.047,-7.0859,-7.1098,-7.1128,-7.0919,-7.1098,-7.0859,-7.0021,-7.0171,-6.9453,-6.7717,-6.7657,-6.655,-6.4336,0.0,0.0,0.0,0.0,0.0,0.0,0.0,0.0,0.0,0.0,0.0,0.0,0.0,0.0,0.0,0.0,0.0,0.0,0.0,0.0,0.0,0.0,0.0,-5.2234,-5.3557,-5.4255,-5.2966,-5.499,-5.6226,-5.5667,-5.614,-5.6715,-5.7411,-5.5632,-5.5355,-5.7238,-5.795,-5.8924,-6.0207,-6.2142,-6.3109,-6.3109,-6.3707,-6.3977,-6.3977,-6.4635,-6.4964,-6.4964,-6.4964,-6.4605,-6.3977,-6.3977,-6.3647,-6.3109,-6.3109,-6.3468,-6.3977,-6.3348,-6.3468,-6.4006,-6.4006,-6.3977,-6.3887,-6.3288,-6.3079,-6.3079,-6.3079,-6.266,-6.2121,-6.2121,-6.1702,-6.1343,-6.1972,-6.263,-6.3438,-6.4695,-6.5054,-6.5383,-6.667,-6.6999,-6.7208,-6.7837,-6.8525,-6.9004,-6.9004,-6.9004,-6.9004,-6.9034,-6.9004,-6.9004,-6.9034,-6.9542,0.0,-6.9123,-7.0111,-7.0649,-7.0081,-7.056,-7.0889,-7.0889,-7.1487,-7.1577,-7.0949,-7.1517,-7.1308,-7.0051,-7.059,-7.032,-6.9064,-6.7747,-6.646,-6.5173,0.0,0.0,0.0,0.0,0.0,0.0,0.0,0.0,0.0,0.0,0.0,0.0,0.0,0.0,0.0,0.0,0.0,0.0,0.0,0.0,0.0,-5.4299,-5.5221,-5.4062,-5.5053,-5.5983,-5.6117,-5.6704,-5.7341,-5.7853,-5.8021,-5.8392,-5.8971,-5.8491,-5.8325,-5.8592,-5.9647,-6.0658,-6.1454,-6.2972,-6.3737,-6.3737,-6.3917,-6.3767,-6.3318,-6.3528,-6.3617,-6.3617,-6.3617,-6.3498,-6.3318,-6.3318,-6.3498,-6.3737,-6.3737,-6.4126,-6.4665,-6.4006,-6.3857,-6.4006,-6.4006,-6.3707,-6.3318,-6.3139,-6.3079,-6.3079,-6.3079,-6.2959,-6.281,-6.281,-6.2989,-6.3228,-6.3438,-6.3977,-6.4575,-6.4934,-6.5383,-6.5832,-6.6191,-6.6999,-6.7747,-6.7926,-6.8525,-6.9004,-6.9004,-6.9004,-6.9153,-6.9632,-6.9303,-6.9153,-6.9632,-6.9034,-6.8794,-6.9602,-7.0021,-7.035,-7.062,-7.0799,-7.0889,-7.0889,-7.1068,-7.1098,-7.0919,-7.1068,-7.1009,-7.0679,-7.0799,-7.053,-6.9722,-6.9333,-6.8974,0.0,0.0,0.0,0.0,0.0,0.0,0.0,0.0,0.0,0.0,0.0,0.0,0.0,0.0,0.0,0.0,0.0,0.0,0.0,0.0,0.0,0.0,-5.6444,-5.7225,-5.6938,-5.7541,-5.8086,-5.8518,-5.8805,-5.9185,-5.9714,-6.0005,-6.0355,-6.0999,-6.0437,-6.0398,-6.1276,-6.1454,-6.2016,-6.3203,-6.3981,-6.4306,-6.4006,-6.4006,-6.3677,-6.3079,-6.3079,-6.3079,-6.3079,-6.3079,-6.3079,-6.3079,-6.3348,-6.3677,-6.4006,-6.4306,-6.4665,-6.4964,0.0,0.0,0.0,0.0,-6.3767,-6.3438,-6.3169,-6.3079,-6.3079,-6.3079,-6.3258,-6.3468,-6.3468,-6.3917,-6.4425,-6.4425,-6.4904,-6.5443,-6.5443,-6.5922,-6.643,-6.643,-6.6999,-6.7567,-6.7567,-6.7867,-6.8166,-6.8166,-6.8615,0.0,-6.9512,-6.9482,-6.9542,-6.9931,-6.9542,-6.9482,-7.026,-7.038,-7.05,-7.0859,-7.0889,-7.0889,-7.0889,-7.1158,0.0,0.0,0.0,-7.1308,-7.1308,-7.1308,0.0,0.0,0.0,-7.0111,-6.9572,-6.9542,0.0,0.0,-6.7304,-6.7485,0.0,0.0,0.0,0.0,0.0,0.0,0.0,0.0,0.0,0.0,0.0,0.0,0.0,0.0,0.0,0.0,-5.8828,-5.9569,-6.0164,-6.0425,-6.0484,-6.0314,-6.0817,-6.1259,-6.1317,-6.1849,-6.2437,-6.3134,-6.1851,-6.2115,-6.4535,-6.3149,0.0,0.0,0.0,-6.4725,-6.4126,-6.4036,-6.3677,-6.3079,-6.3079,-6.3079,-6.3079,-6.3139,-6.3169,-6.3228,-6.3857,-6.4156,-6.4276,-6.4874,-6.5084,-6.4964,-6.4276,-6.4366,-6.4844,-6.4156,-6.3887,-6.3827,-6.3258,0.0,0.0,-6.3169,-6.3588,-6.4126,-6.4126,-6.4605,-6.5144,-6.5144,-6.5652,-6.6282,-6.6192,-6.6672,-6.7152,-6.706,-6.6999,-6.706,-6.7242,-6.7211,-6.718,-6.7362,-6.829,-6.9004,-6.9004,-6.9542,-6.9991,-7.0081,-7.05,-7.0829,-7.0889,-7.0889,-7.0889,-7.0889,-7.0889,0.0,-7.0889,-7.1457,-7.1547,-7.1038,-7.1637,-7.1996,-7.1996,-7.1936,-7.1607,-7.1009,-7.1009,-7.05,-6.9453,-6.9512,-7.0603,-7.2491,-7.0242,-7.0368,0.0,0.0,0.0,0.0,0.0,0.0,0.0,0.0,0.0,0.0,0.0,0.0,0.0,0.0,0.0,-5.6468,-5.8638,-6.0456,-6.1117,-6.2299,-6.2521,-6.1079,-6.1496,-6.2113,-6.2864,-6.3042,-6.3418,-6.4101,-6.3845,-6.4277,-6.5665,-6.4599,-6.4933,-6.6974,-6.5712,-6.4964,-6.4844,-6.4276,-6.3677,-6.3079,-6.3079,0.0,-6.3079,-6.3588,-6.3827,-6.3857,-6.4545,-6.5114,-6.5622,-6.5772,-6.5503,-6.4964,-6.4276,-6.4066,-6.4126,-6.3498,-6.3258,-6.3228,-6.3109,-6.3408,-6.3827,-6.3827,-6.4276,-6.4844,-6.4844,-6.5293,0.0,-6.5832,-6.7002,-6.8023,-6.7094,-6.7638,-6.8206,-6.7213,-6.6999,-6.7425,-6.8968,-6.8516,-6.8298,-6.9824,-6.9514,-6.9004,-6.9004,-6.9542,-7.0141,-7.0649,-7.041,-7.035,-7.0829,-7.0889,-7.0889,-7.0889,-7.0889,-7.0889,-7.0889,-7.1009,-7.1278,-7.1667,-7.2325,-7.2714,-7.2714,-7.2176,-7.1816,-7.1697,-7.1697,-7.1846,-7.2146,-7.2684,-7.3985,-7.5846,-7.2212,-7.2178,0.0,0.0,0.0,0.0,0.0,0.0,0.0,0.0,0.0,0.0,0.0,-5.422,-5.5529,0.0,-5.7759,-5.8753,-6.0479,-6.1873,-6.2543,-6.3629,-6.4003,-6.3135,-6.3267,-6.3619,-6.4101,-6.4158,-6.427,-6.4635,-6.5136,-6.5792,-6.6625,-6.6549,-6.7095,-6.8483,-6.6882,-6.5862,-6.5533,-6.4515,-6.3677,-6.3079,-6.3079,-6.3228,-6.3558,-6.3857,-6.4186,-6.4545,-6.5233,-6.5712,-6.5981,-6.5652,-6.5323,-6.4934,-6.3917,-6.3528,-6.3498,-6.3199,-6.3079,-6.3109,-6.3438,-6.3737,-6.4066,-6.4395,-6.4964,-6.5622,-6.6215,-6.6492,-6.6733,-6.7954,-6.852,-6.8649,-6.8058,-6.8797,-6.9499,-6.8664,-6.8905,-6.971,-7.1066,-7.0869,-7.0696,-7.169,-7.1557,-7.1321,-7.1321,-7.1351,-7.1147,-7.0569,-7.044,-7.056,-7.0859,-7.0889,-7.0889,-7.0889,-7.0889,-7.0889,-7.0889,-7.0889,-7.1038,-7.1368,-7.2026,-7.2385,-7.2385,-7.2714,-7.2744,-7.2415,-7.2714,-7.2894,-7.2924,-7.3925,-7.5399,-7.7336,-7.5289,-7.5755,0.0,0.0,0.0,0.0,0.0,0.0,0.0,-5.2386,-5.2645,-5.3808,-5.4709,-5.5684,-5.693,-5.8174,-5.9543,-6.1239,-6.2257,-6.3041,-6.3718,-6.4426,-6.4888,-6.4888,-6.4888,-6.4888,-6.4888,-6.4888,-6.4949,-6.5072,-6.5954,-6.6912,-6.7862,-6.8425,-6.906,-6.9877,-6.8118,-6.6912,-6.6372,-6.4993,-6.4064,-6.3584,-6.3526,-6.3707,-6.4216,-6.4336,-6.4695,-6.5263,-6.5922,-6.6191,-6.6131,-6.5503,-6.5144,-6.4904,-6.3707,-6.3258,-6.3258,-6.3258,-6.3258,-6.3348,-6.3977,-6.4276,-6.4485,-6.5054,-6.5832,-6.6763,-6.7675,-6.7838,-6.8118,-7.0035,-7.0186,-6.965,-6.9418,-7.0375,-7.1193,-7.061,-7.12,-7.2192,-7.3118,-7.3162,-7.3079,-7.3436,-7.3739,-7.3886,-7.3886,-7.3526,-7.2583,-7.0839,-7.0783,-7.0889,-7.0889,-7.0889,-7.0889,-7.0889,-7.0889,-7.0889,-7.0889,-7.1009,-7.1098,-7.1098,-7.1727,-7.2086,-7.2086,-7.3013,-7.3253,-7.2714,-7.3103,-7.3237,-7.3082,-7.4164,-7.587,-7.8043,-7.7938,-7.9036,-5.4453,-5.3547,-5.271,-5.195,-5.1457,-5.1374,0.0,-5.2358,-5.2363,-5.3496,-5.4419,-5.5278,-5.5919,-5.7927,-5.969,-6.0506,-6.1852,-6.3041,-6.3718,-6.4426,-6.4888,-6.4888,-6.4888,-6.4888,-6.4888,-6.4888,-6.5165,-6.575,-6.6432,-6.7662,-6.9507,-6.9454,-6.9885,-7.1229,-6.9093,-6.7879,-6.7788,-6.6159,-6.5288,-6.5228,-6.4933,-6.4844,-6.4934,-6.5503,-6.5832,-6.5951,-6.661,-6.6879,-6.6819,-6.6161,-6.5562,-6.4964,-6.4186,-6.3887,-6.3887,-6.3887,-6.3887,-6.4006,-6.4665,-6.5293,-6.5802,-6.5862,-6.7063,-6.8498,-6.8674,-6.9401,-7.0262,-7.0543,-7.1743,-7.2719,-7.1629,-7.2724,-7.3849,-7.2756,-7.2616,-7.315,-7.4927,-7.4377,-7.4109,-7.5838,-7.531,-7.4613,-7.4613,-7.4526,-7.402,-7.2706,-7.1571,-7.0889,-7.0889,-7.0889,-7.0889,-7.0889,-7.0889,-7.0889,-7.0889,-7.1457,-7.1787,-7.1787,-7.2415,-7.2804,-7.2804,-7.2355,-7.2086,-7.1996,-7.1487,-7.2043,-7.3685,-7.3874,-7.5554,-7.8623,-7.8578,-7.9725,-5.4737,-5.3561,-5.2596,-5.2093,-5.1824,-5.1873,-5.2709,-5.3073,-5.35,-5.4249,-5.5496,-5.6521,-5.6788,-5.8392,-5.9875,-6.0547,-6.1905,-6.2918,-6.3195,-6.418,-6.4734,-6.4334,-6.4641,-6.4888,-6.4888,-6.5596,-6.618,-6.6457,-6.8212,-6.9597,-7.0428,-7.0924,-7.126,-7.1413,-6.955,-6.8364,-6.803,-6.6516,-6.5791,-6.5791,-6.5439,-6.5531,-6.5922,-6.5952,-6.6221,-6.658,-6.646,-6.664,-6.6939,-6.6281,-6.5622,-6.4994,-6.4695,-6.4366,-6.4006,-6.4006,-6.4684,-6.5599,-6.5592,-6.595,-6.6597,-6.7389,-6.7895,-6.8533,-7.0329,-7.0767,-7.0973,-7.2843,-7.3382,-7.349,-7.3417,-7.4453,-7.5406,-7.4613,-7.4933,-7.5821,-7.7042,-7.6866,-7.6743,-7.7566,-7.7268,-7.6902,-7.6902,-7.6306,-7.5618,-7.5061,-7.3292,-7.1982,-7.1982,-7.1375,-7.0889,-7.0889,-7.0889,-7.0889,-7.0889,-7.1158,-7.1308,-7.1308,-7.1936,-7.2325,-7.2325,-7.3174,-7.3594,-7.3594,-7.4026,-7.4687,-7.5464,-7.623,-7.7349,-7.87,-7.9055,-7.9704,-5.5205,-5.4004,-5.2987,-5.2918,-5.2755,-5.2816,-5.3482,-5.3902,-5.4339,-5.4894,-5.6166,-5.7269,-5.745,-5.8777,-6.0116,-6.1194,-6.2025,-6.2778,-6.3384,-6.4127,-6.4614,-6.4702,-6.5289,-6.5763,-6.6089,-6.6418,-6.6858,-6.7412,-6.9413,-7.0798,-7.1167,-7.1967,-7.215,-7.1567,-7.0068,-6.9031,-6.8543,-6.7267,-6.663,-6.663,-6.6336,-6.643,-6.6763,-6.6402,-6.655,-6.6969,-6.649,-6.655,-6.6939,-6.6281,-6.5712,-6.5263,-6.541,-6.5315,-6.5102,-6.542,-6.6185,-6.7077,-6.7202,-6.7519,-6.7988,-6.898,-6.9179,-6.9521,-7.196,-7.2348,-7.2368,-7.4884,-7.5089,-7.468,-7.5201,-7.6174,-7.6809,-7.6496,-7.7094,-7.7881,-7.8411,-7.8511,-7.8511,-7.8511,-7.8511,-7.8511,-7.8511,-7.7741,-7.7157,-7.7157,-7.5237,-7.3688,-7.3353,-7.2518,-7.1792,-7.1439,-7.1439,-7.1247,-7.0889,-7.0889,-7.0889,-7.0889,-7.1728,-7.2163,-7.2163,-7.384,-7.478,-7.478,-7.5677,-7.6345,-7.6677,-7.7622,-7.829,-7.8633,-7.9298,-7.9637,-5.6592,-5.5677,-5.4442,-5.4969,-5.468,-5.4399,-5.4966,-5.4694,-5.448,-5.5054,-5.5931,-5.6726,-5.7381,-5.8777,-6.0455,-6.2425,-6.224,-6.2641,-6.4999,-6.4457,-6.4617,-6.6638,-6.7245,-6.7949,-6.8987,-6.7189,-6.6735,-6.8674,-6.9505,-7.0521,-7.1875,-7.1998,-7.1998,-7.1967,-7.0613,-6.9874,-6.9874,-6.8811,-6.8325,-6.8325,-6.8058,-6.7729,-6.7457,-6.7152,-6.6969,-6.6999,-6.6969,-6.6969,-6.6939,-6.6281,-6.6011,-6.6012,-6.6525,-6.7135,-6.7835,-6.8994,-6.8745,-6.8016,-6.981,-7.0456,-7.048,-7.0543,-7.1319,-7.2422,-7.3221,-7.4281,-7.5312,-7.6092,-7.6736,-7.7298,-7.7331,-7.7861,-7.8391,-7.8424,-7.8424,-7.8477,-7.8511,-7.8511,-7.8511,-7.8511,-7.8511,-7.8511,-7.8511,-7.8457,-7.8457,-7.8457,-7.7324,-7.6021,-7.4767,-7.4589,-7.4111,-7.286,-7.2736,-7.2204,-7.1018,-7.0889,-7.0889,-7.0889,-7.2046,-7.2767,-7.2767,-7.3993,-7.4711,-7.4711,-7.4711,-7.5359,-7.6629,-7.6629,-7.7278,-7.8556,-7.9251,-7.9637,-5.5664,-5.5544,-5.5596,-5.4789,-5.4433,-5.4363,-5.4569,-5.4862,-5.5128,-5.5338,-5.6568,-5.7696,-5.7913,-5.9104,-6.0701,-6.2521,-6.282,-6.3318,-6.4863,-6.556,-6.6025,-6.6257,-6.7705,-6.8975,-6.9769,-6.9346,-6.9594,-7.1036,-7.1253,-7.1622,-7.2363,-7.2176,-7.1536,-7.0613,-6.969,-6.9228,-6.9228,-6.8464,-6.8283,-6.8713,-6.8417,-6.8119,-6.7819,-6.7035,-6.6884,-6.7274,-6.6642,-6.658,-6.6969,-6.6759,-6.6854,-6.723,-6.7911,-6.8453,-6.9175,-7.0863,-7.1186,-7.0836,-7.0672,-7.0868,-7.1199,-7.1681,-7.1789,-7.2039,-7.352,-7.4247,-7.4752,-7.543,-7.6125,-7.6788,-7.7285,-7.798,-7.8511,-7.8511,-7.8511,-7.8511,-7.8511,-7.8511,-7.8511,-7.8511,-7.8511,-7.8511,-7.8511,-7.8511,-7.8511,-7.8511,-7.7379,-7.6135,-7.4826,-7.4707,-7.4529,-7.4111,-7.3292,-7.2984,-7.3415,-7.2643,-7.2518,-7.3353,-7.3809,-7.4051,-7.4051,-7.5295,-7.6188,-7.667,-7.7049,-7.7925,-7.9297,-7.8837,-7.909,-7.9968,-8.02,-8.0332,-5.5027,-5.5021,-5.5436,-5.4654,-5.463,-5.481,-5.481,-5.539,-5.5967,-5.5967,-5.718,-5.8274,-5.8527,-5.9757,-6.1276,-6.2848,-6.3324,-6.4046,-6.5618,-6.6306,-6.6793,-6.7363,-6.8797,-7.0221,-7.1259,-7.1402,-7.1617,-7.2022,-7.23,-7.2531,-7.257,-7.25,-7.1741,-7.021,-6.9526,-6.8953,-6.8551,-6.812,-6.8243,-6.8889,-6.8595,-6.8298,-6.8119,-6.7275,-6.7065,-6.7457,-6.6672,-6.6823,-6.7668,-6.7668,-6.8081,-6.893,-7.0073,-7.0536,-7.0853,-7.2721,-7.3273,-7.294,-7.2165,-7.214,-7.2508,-7.2914,-7.2914,-7.3037,-7.4497,-7.5132,-7.5496,-7.6225,-7.6755,-7.7219,-7.7682,-7.8146,-7.8511,-7.8511,-7.8511,-7.8511,-7.8511,-7.8511,-7.8511,-7.8511,-7.8511,-7.8511,-7.8511,-7.8511,-7.8511,-7.8511,-7.7796,-7.6958,-7.6135,-7.6078,-7.5906,-7.5412,-7.4648,-7.4291,-7.4648,-7.393,-7.3809,-7.4648,-7.512,-7.5353,-7.5353,-7.6621,-7.7497,-7.7954,-7.8331,-7.8974,-7.9902,-7.9471,-7.9471,-7.9935,-8.0432,-8.0697,-5.4791,-5.437,-5.4253,-5.4622,-5.5238,-5.5701,-5.5684,-5.6207,-5.6717,-5.6827,-5.7621,-5.8476,-5.9188,-6.0674,-6.225,-6.3566,-6.3826,-6.4705,-6.7268,-6.6733,-6.709,-6.9838,-7.059,-7.157,-7.3249,-7.315,-7.2611,-7.1759,-7.2664,-7.3095,-7.2699,-7.3049,-7.243,-7.0623,-6.9904,-6.9064,-6.7935,-6.7966,-6.8274,-6.8889,-6.8595,-6.8446,-6.8417,-6.7819,-6.7548,-6.7578,-6.7213,-6.7789,-6.8883,-6.8883,-6.9579,-7.0886,-7.2745,-7.3048,-7.2741,-7.4573,-7.4818,-7.4221,-7.4221,-7.4221,-7.4221,-7.4255,-7.4701,-7.5397,-7.6092,-7.6788,-7.7517,-7.8212,-7.8444,-7.8444,-7.8444,-7.8477,-7.8511,-7.8511,-7.8511,-7.8511,-7.8511,-7.8511,-7.8511,-7.8511,-7.8511,-7.8511,-7.8511,-7.8511,-7.8511,-7.8511,-7.8511,-7.8511,-7.8511,-7.8511,-7.8046,-7.6846,-7.6621,-7.6135,-7.5002,-7.4826,-7.4826,-7.4885,-7.6021,-7.6677,-7.6677,-7.7883,-7.8544,-7.8577,-7.8544,-7.8577,-7.8676,-7.8643,-7.8676,-7.8776,-8.0167,-8.0796,-5.4218,-5.4932,-5.5935,-5.5388,-5.5332,-5.5488,-5.5686,-5.5468,-5.5719,-5.7512,-5.8631,-5.9539,-6.0306,-6.2166,-6.391,-6.4925,-6.501,-6.5823,-6.836,-6.8439,-6.8786,-7.005,-7.1255,-7.2153,-7.2665,-7.3581,-7.3703,-7.2649,-7.3034,-7.3382,-7.3639,-7.3403,-7.2205,-6.9928,-6.9706,-6.9064,-6.7935,-6.8397,-6.8735,-6.8889,-6.883,-6.8772,-6.8772,-6.815,-6.8358,-6.912,-6.8562,-6.9,-7.0149,-7.0149,-7.0878,-7.2004,-7.2466,-7.3103,-7.3815,-7.4319,-7.4387,-7.4221,-7.4221,-7.4221,-7.4321,-7.48,-7.5183,-7.5397,-7.6092,-7.6424,-7.6622,-7.6821,-7.7285,-7.7682,-7.7682,-7.8113,-7.8511,-7.8511,-7.8511,-7.8511,-7.8511,-7.8511,-7.8511,-7.8511,-7.8511,-7.8511,-7.8511,-7.8511,-7.8511,-7.8511,-7.8511,-7.8511,-7.8511,-7.8511,-7.8403,-7.8046,-7.7157,-7.6846,-7.7467,-7.6677,-7.6508,-7.7467,-7.7829,-7.8046,-7.8046,-7.835,-7.8776,-7.9339,-7.8809,-7.9339,-8.0962,-8.0399,-8.0697,-8.179,-8.2154,-8.232,-5.4034,-5.4739,-5.5825,-5.5399,-5.5534,-5.5911,-5.6524,-5.6874,-5.7465,-5.8988,-6.0349,-6.1371,-6.1821,-6.3533,-6.5016,-6.5551,-6.5812,-6.6685,-6.8789,-6.9113,-6.9485,-7.0567,-7.1413,-7.2056,-7.236,-7.3138,-7.3649,-7.3681,-7.4073,-7.4232,-7.3988,-7.425,-7.3192,-7.0668,-7.0635,-6.9787,-6.8152,-6.9174,-6.9641,-6.9641,-7.018,-7.0375,-7.0406,-6.9865,-6.9979,-7.0487,-7.0118,-7.0512,-7.1374,-7.1538,-7.2219,-7.3233,-7.3561,-7.3891,-7.4255,-7.4586,-7.452,-7.4255,-7.4535,-7.4668,-7.4785,-7.5183,-7.5695,-7.6291,-7.6689,-7.702,-7.7285,-7.7285,-7.7583,-7.7914,-7.7914,-7.8212,-7.8511,-7.8511,-7.8511,-7.8511,-7.8511,-7.8511,-7.8511,-7.8511,-7.8511,-7.8511,-7.8511,-7.8511,-7.8511,-7.8511,-7.8511,-7.8511,-7.8511,-7.8511,-7.8511,-7.8511,-7.7883,-7.7741,-7.8457,-7.785,-7.7741,-7.8457,-7.8511,-7.8511,-7.8511,-7.8842,-7.9206,-7.9604,-7.9537,-8.0067,-8.1293,-8.0896,-8.1128,-8.1923,-8.2254,-8.2419,-5.4027,-5.4287,-5.4951,-5.5239,-5.5756,-5.6491,-5.7859,-5.8873,-5.9819,-6.0662,-6.2051,-6.3091,-6.3199,-6.4655,-6.583,-6.5717,-6.632,-6.7345,-6.8876,-6.9113,-6.9654,-7.1142,-7.1312,-7.1548,-7.2191,-7.2326,-7.2969,-7.4356,-7.5134,-7.519,-7.429,-7.5161,-7.457,-7.2116,-7.1886,-7.0852,-6.8889,-7.0188,-7.0822,-7.0822,-7.1832,-7.2314,-7.2314,-7.1961,-7.1799,-7.1778,-7.1691,-7.2047,-7.2782,-7.3057,-7.3609,-7.4338,-7.505,-7.4884,-7.4288,-7.49,-7.48,-7.4453,-7.5065,-7.5397,-7.5562,-7.5562,-7.639,-7.745,-7.755,-7.8014,-7.8511,-7.8511,-7.8511,-7.8511,-7.8511,-7.8511,-7.8511,-7.8511,-7.8511,-7.8511,-7.8511,-7.8511,-7.8511,-7.8511,-7.8511,-7.8511,-7.8511,-7.8511,-7.8511,-7.8511,-7.8511,-7.8511,-7.8511,-7.8511,-7.8511,-7.8511,-7.8511,-7.8511,-7.8511,-7.8511,-7.8511,-7.8511,-7.861,-7.8676,-7.8676,-7.9372,-7.9769,-7.9769,-8.0366,-8.073,-8.0829,-8.0829,-8.0896,-8.0995,-8.1624,-8.1956,-5.4131,-5.477,-5.5489,-5.6302,-5.6139,-5.6442,-5.9069,-5.8383,-5.8079,-6.1146,-6.2057,-6.249,-6.3155,-6.5098,-6.6384,-6.5723,-6.6277,-6.7358,-6.8861,-6.9113,-6.9654,-7.1142,-7.1312,-7.1379,-7.1481,-7.2056,-7.2766,-7.3612,-7.439,-7.4972,-7.5402,-7.558,-7.4791,-7.2796,-7.1858,-7.1188,-7.0736,-7.1574,-7.1993,-7.1993,-7.2207,-7.2314,-7.2314,-7.1961,-7.2335,-7.3239,-7.2998,-7.3529,-7.4573,-7.497,-7.4871,-7.4572,-7.5101,-7.4884,-7.4255,-7.4354,-7.4719,-7.5098,-7.5282,-7.6059,-7.7053,-7.7053,-7.7219,-7.7517,-7.8146,-7.8411,-7.8511,-7.8511,-7.8511,-7.8511,-7.8511,-7.8511,-7.8511,-7.8511,-7.8511,-7.8511,-7.8511,-7.8511,-7.8511,-7.8511,-7.8511,-7.8511,-7.8511,-7.8511,-7.8511,-7.8511,-7.8511,-7.8511,-7.8511,-7.8511,-7.8511,-7.8511,-7.8511,-7.8511,-7.8511,-7.8511,-7.8511,-7.8511,-7.9107,-7.9438,-7.9438,-8.0134,-8.0498,-8.0498,-8.0631,-8.0995,-8.1591,-8.1591,-8.1923,-8.2519,-8.2651,-8.2718,-5.4632,-5.5393,-5.6065,-5.6872,-5.7087,-5.7625,-5.989,-5.9876,-5.9975,-6.219,-6.3041,-6.3525,-6.4369,-6.5743,-6.6818,-6.684,-6.7146,-6.7816,-6.8918,-6.911,-6.9485,-7.0601,-7.1075,-7.1312,-7.1312,-7.1988,-7.2699,-7.3443,-7.4187,-7.4931,-7.5676,-7.5337,-7.4694,-7.3811,-7.2713,-7.2157,-7.2073,-7.2794,-7.3154,-7.3187,-7.3803,-7.4056,-7.4056,-7.3871,-7.4056,-7.4473,-7.4489,-7.4704,-7.5035,-7.5589,-7.5306,-7.4672,-7.5101,-7.4884,-7.4221,-7.4221,-7.4686,-7.533,-7.5695,-7.6523,-7.7484,-7.7881,-7.798,-7.8047,-7.8411,-7.8511,-7.8511,-7.8511,-7.8511,-7.8511,-7.8511,-7.8511,-7.8511,-7.8511,-7.8511,-7.8511,-7.8511,-7.8511,-7.8511,-7.8511,-7.8511,-7.8511,-7.8511,-7.8511,-7.8511,-7.8511,-7.8511,-7.8511,-7.8511,-7.8511,-7.8511,-7.8511,-7.8511,-7.8511,-7.8511,-7.8875,-7.9107,-7.9107,-7.9769,-8.0167,-8.0167,-8.0863,-8.126,-8.126,-8.1624,-8.2022,-8.2353,-8.2353,-8.2552,-8.2883,-8.2883,-8.2883,-5.5092,-5.5929,-5.6702,-5.758,-5.7902,-5.8579,-6.0768,-6.1326,-6.1744,-6.302,-6.3761,-6.4396,-6.5192,-6.6012,-6.686,-6.784,-6.8008,-6.8266,-6.902,-6.926,-6.9567,-7.0138,-7.0838,-7.1312,-7.1312,-7.1988,-7.2699,-7.3443,-7.4322,-7.51,-7.5676,-7.5303,-7.4965,-7.4627,-7.4016,-7.3624,-7.3242,-7.3974,-7.434,-7.439,-7.5291,-7.5709,-7.5709,-7.5709,-7.5614,-7.5422,-7.5614,-7.5571,-7.5466,-7.6072,-7.5823,-7.5055,-7.5486,-7.5167,-7.4504,-7.4453,-7.4966,-7.5827,-7.6357,-7.702,-7.7749,-7.8345,-7.8511,-7.8511,-7.8511,-7.8511,-7.8511,-7.8511,-7.8511,-7.8511,-7.8511,-7.8511,-7.8511,-7.8511,-7.8511,-7.8511,-7.8511,-7.8511,-7.8511,-7.8511,-7.8511,-7.8511,-7.8511,-7.8511,-7.8511,-7.8511,-7.8511,-7.8511,-7.8511,-7.8511,-7.8577,-7.8742,-7.8776,-7.8776,-7.8776,-7.9438,-7.9869,-7.9869,-8.0531,-8.0929,-8.0929,-8.1624,-8.2022,-8.2022,-8.2585,-8.2883,-8.2883,-8.2883,-8.2983,-8.3148,-8.3148,-8.3215,-5.527,-5.6193,-5.7427,-5.8761,-5.8131,-5.8116,-6.186,-6.1117,-6.032,-6.2694,-6.3245,-6.3563,-6.4359,-6.5171,-6.6199,-6.7761,-6.7992,-6.8258,-6.9006,-6.9686,-7.0146,-7.0182,-7.0838,-7.1312,-7.1312,-7.1988,-7.2699,-7.3443,-7.4796,-7.5642,-7.5709,-7.6318,-7.6048,-7.4661,-7.585,-7.587,-7.4485,-7.5195,-7.5532,-7.5532,-7.5662,-7.5709,-7.5709,-7.5709,-7.5709,-7.5662,-7.5709,-7.6067,-7.6763,-7.7226,-7.6992,-7.6337,-7.6575,-7.6238,-7.5554,-7.5267,-7.6026,-7.7219,-7.7285,-7.7782,-7.8444,-7.8511,-7.8511,-7.8511,-7.8511,-7.8511,-7.8511,-7.8511,-7.8511,-7.8511,-7.8511,-7.8511,-7.8511,-7.8511,-7.8511,-7.8511,-7.8511,-7.8511,-7.8511,-7.8511,-7.8511,-7.8511,-7.8511,-7.8511,-7.8511,-7.8511,-7.8511,-7.8511,-7.8511,-7.8511,-7.8776,-7.9471,-7.9483,-7.9483,-7.9483,-8.0167,-8.0598,-8.0598,-8.1293,-8.1691,-8.1691,-8.2419,-8.2784,-8.2784,-8.2883,-8.2883,-8.2883,-8.2883,-8.3248,-8.391,-8.391,-8.4275,-5.5647,-5.6426,-5.7203,-5.7759,-5.829,-5.9133,-6.0807,-6.1092,-6.1343,-6.2626,-6.2876,-6.3304,-6.4619,-6.5266,-6.6381,0.0,0.0,0.0,-6.9775,-7.052,-7.0764,-7.0283,-7.1294,-7.2034,-7.1966,-7.2631,-7.3544,-7.4728,-7.5371,-7.5709,-7.5709,-7.6454,-7.6623,-7.6014,-7.6589,-7.6386,-7.527,-7.554,-7.5709,-7.5709,-7.5709,-7.5709,-7.5709,-7.5709,-7.5709,-7.5709,-7.5709,-7.6149,-7.6961,-7.7343,-7.7109,-7.6604,-7.7379,-7.6858,-7.5772,-7.6069,-7.6712,-7.7417,-7.7417,-7.7914,-7.8511,-7.8511,-7.8511,-7.8511,-7.8511,-7.8511,-7.8511,-7.8511,-7.8511,-7.8511,-7.8511,-7.8511,-7.8671,-7.9254,-7.8922,-7.885,-8.0124,-7.9871,-7.941,-7.941,-7.9888,-7.9972,-7.8724,-7.8974,-7.9236,-7.8617,-7.8511,-7.8511,-7.8511,-7.8908,-7.9306,-7.9604,-7.9637,-7.9802,-8.0233,-8.0929,-8.1359,-8.1359,-8.2055,-8.2453,-8.2453,-8.2751,-8.2883,-8.2883,-8.3347,-8.3579,-8.3579,-8.444,-8.5037,-8.5302,-8.5765,-8.5898,-5.5934,-5.6464,-5.6952,-5.6952,-5.8043,-5.9292,-5.996,-6.0937,-6.1897,-6.2745,-6.2818,-6.3222,-6.5052,-6.5505,-6.6554,0.0,0.0,-6.9782,-7.0298,-7.1267,-7.1555,-7.0699,-7.1726,-7.2588,-7.2788,-7.3424,-7.4356,-7.5608,-7.5709,-7.5879,-7.6352,-7.6927,-7.7029,-7.6555,-7.6995,-7.6724,-7.5709,-7.5709,-7.5709,-7.5709,-7.5709,-7.5709,-7.5709,-7.5709,-7.5709,-7.5709,-7.5946,-7.6487,-7.7266,-7.7779,-7.7545,-7.7006,-7.78,-7.7128,-7.5873,-7.6555,-7.7048,-7.745,-7.7682,-7.808,-7.8564,-7.885,-7.8922,-7.8974,-7.934,-7.9008,-7.8511,-7.8511,-7.8691,-7.9027,-7.934,-7.9443,-7.9564,-8.0306,-7.9939,-7.982,-8.127,-8.0994,-8.0455,-8.0455,-8.1091,-8.1125,-7.9667,-7.9989,-8.0206,-7.9513,-7.9443,-7.951,-7.9712,-7.99,-8.0222,-8.0655,-8.0451,-8.0465,-8.0962,-8.1691,-8.2121,-8.2121,-8.2618,-8.2883,-8.2883,-8.2883,-8.3016,-8.3215,-8.3943,-8.444,-8.4639,-8.5898,-8.6494,-8.6553,-8.7024,-8.6991,-5.6097,-5.6336,-5.6805,-5.6805,-5.7161,-5.7987,-5.9709,-6.0503,-6.1393,-6.3049,-6.3023,-6.3346,-6.5514,-6.5736,-6.6554,-6.942,0.0,0.0,-7.0402,-7.1728,-7.2405,-7.1593,-7.2094,-7.2801,-7.3636,-7.423,-7.4897,-7.5642,-7.5709,0.0,-7.7874,-7.7976,-7.7266,-7.5743,-7.7164,-7.7232,-7.5709,-7.5709,-7.5709,-7.5709,-7.5709,-7.5709,-7.5709,-7.5709,-7.5709,-7.5743,-7.6555,-7.7299,-7.8044,-7.8788,-7.8653,-7.7976,-7.7713,-7.696,-7.6057,-7.6522,-7.6997,-7.7517,-7.8246,-7.8511,-7.8637,-7.9684,-8.0006,-8.0206,-8.127,-8.0124,-7.8511,-7.8511,-7.9202,-8.0206,-8.1318,-8.1556,-8.1556,-8.1603,-8.1556,-8.1556,-8.1603,-8.1603,-8.1603,-8.1603,-8.1603,-8.1603,-8.1556,-8.1556,-8.1556,-8.1556,-8.1556,-8.1797,-8.2569,-8.1744,-8.1646,-8.3186,-8.2406,-8.179,-8.179,-8.2453,-8.2883,-8.2883,-8.2883,-8.2883,-8.2883,-8.2883,-8.3248,-8.3976,-8.4705,-8.5434,-8.6163,-8.6892,-8.7256,-8.7256,-8.7289,-8.7289,-5.832,-5.8523,-5.862,-5.8677,-5.9656,-6.0674,-6.1025,-6.2197,-6.3208,-6.3364,-6.4018,-6.483,-6.5714,-6.6036,-6.719,-7.0487,-7.0211,0.0,-7.1545,-7.2739,-7.315,-7.229,-7.3206,-7.3867,-7.3595,0.0,-7.5439,-7.5676,-7.5709,-7.6149,-7.7198,-7.7705,-7.7773,-7.7266,-7.7739,-7.7232,-7.5709,-7.5709,-7.5709,-7.5709,-7.5709,-7.5709,-7.5709,-7.5709,-7.5709,-7.5709,-7.598,-7.6521,-7.7266,-7.7502,-7.7468,-7.7299,-7.7709,-7.7412,-7.6827,-7.7512,-7.7884,-7.8286,-7.9239,-7.9531,-7.9684,-8.0751,-8.1091,-8.1174,-8.1509,-8.1125,-8.0638,-8.0638,-8.0834,-8.1139,-8.1509,-8.1603,-8.1792,-8.2485,-8.2118,-8.1979,-8.3358,-8.3103,-8.2621,-8.2621,-8.3191,-8.3191,-8.1839,-8.2164,-8.2568,-8.2401,-8.2328,-8.2652,-8.3411,-8.367,-8.3937,-8.4467,-8.4626,-8.4167,-8.2687,-8.2751,-8.2883,-8.2883,-8.2883,-8.3115,-8.3645,-8.4142,-8.4738,-8.5467,-8.6693,-8.7422,-8.7654,-8.8382,-8.8747,-8.8747,-8.8747,-8.8747,-5.8934,-5.9029,-5.9029,-5.9309,-6.0466,-6.162,-6.1828,-6.3105,-6.4151,-6.3992,-6.4749,-6.5615,-6.632,-6.669,-6.7897,-7.0975,-7.0458,-7.0399,-7.2556,-7.3446,-7.3619,-7.3031,-7.4237,-7.4695,0.0,-7.483,-7.5709,-7.5709,-7.598,-7.6487,-7.7266,-7.801,-7.828,-7.801,-7.7976,-7.7232,-7.5709,-7.5709,-7.5709,-7.5709,-7.5709,-7.5709,-7.5709,-7.5709,-7.5709,-7.5709,-7.6014,-7.6454,0.0,-7.7198,-7.7164,-7.6961,-7.7705,-7.7773,-7.7521,-7.847,-7.9061,-7.9483,-8.0304,-8.0603,-8.08,-8.1839,-8.2394,-8.2746,-8.2746,-8.2211,-8.1698,-8.2072,-8.2164,-8.2257,-8.2621,-8.2746,-8.2881,-8.3532,-8.3191,-8.3059,-8.4326,-8.4081,-8.3662,-8.3662,-8.4165,-8.42,-8.297,-8.3481,-8.4053,-8.3896,-8.412,-8.4575,-8.5391,-8.5541,-8.5685,-8.5998,-8.6059,-8.5412,-8.3653,-8.3487,-8.3354,-8.294,-8.2883,-8.3115,-8.3579,-8.4308,-8.5169,-8.6163,-8.7587,-8.8449,-8.8714,-8.8912,-8.9144,-8.9409,-8.9111,-8.9144,0.0,-5.8407,-5.8652,-5.9222,-6.0217,-6.1361,-6.224,-6.3409,0.0,-6.4857,-6.5294,-6.6044,-6.7297,-6.7574,-6.8539,-7.1231,-7.09,-7.112,-7.3347,-7.3832,-7.3898,-7.3694,-7.5037,-7.5358,-7.3661,-7.483,-7.5709,-7.5709,-7.6454,-7.7232,-7.7942,-7.872,-7.8754,-7.801,-7.7976,-7.7232,-7.5709,-7.5709,-7.5709,-7.5709,-7.5709,-7.5709,-7.5709,-7.5709,-7.5709,-7.5743,-7.6487,-7.6874,-7.7024,-7.7668,-7.7581,-7.7168,-7.7847,-7.8074,-7.8202,-7.9432,-8.0359,-8.0985,-8.1562,-8.1745,-8.1886,-8.289,-8.3833,-8.461,-8.461,-8.3314,-8.2026,-8.2935,-8.3235,-8.341,-8.4368,-8.461,-8.461,-8.461,-8.461,-8.461,-8.461,-8.461,-8.4646,-8.4681,-8.4717,-8.4717,-8.4753,-8.5395,-8.5894,-8.5966,-8.6537,-8.7286,-8.8071,-8.7329,-8.6987,-8.7725,-8.6908,-8.5921,-8.4788,-8.4611,-8.4056,-8.294,-8.295,-8.3016,-8.3115,-8.391,-8.497,-8.6362,-8.772,-8.8714,-8.9409,-8.8714,-8.8747,-8.9409,-8.878,-8.8813,-5.8907,0.0,-6.1039,-6.2298,-6.303,-6.3483,0.0,-6.4765,-6.5559,-6.531,-6.6653,-6.8034,-6.8645,-6.845,-6.9232,-7.2541,-7.1083,-7.0579,-7.3739,-7.451,-7.4239,-7.2896,-7.4644,-7.5288,-7.3683,-7.483,-7.5709,-7.5709,-7.6454,-7.7232,-7.7942,-7.872,-7.8754,-7.801,-7.7976,-7.7232,-7.5709,-7.5709,-7.5709,-7.5709,-7.5709,-7.5709,-7.5709,-7.5709,-7.5709,-7.5709,-7.5912,-7.676,-7.7938,-7.7526,-7.7934,-7.899,-7.9164,-7.9434,-7.9887,-8.0782,-8.1342,-8.1771,-8.2839,-8.3121,-8.3156,-8.4171,-8.462,-8.4778,-8.4651,-8.4284,-8.3954,-8.42,-8.4242,-8.4284,-8.4527,-8.461,-8.461,-8.461,-8.461,-8.461,-8.461,-8.461,-8.4788,-8.5395,-8.5538,-8.5716,-8.6251,-8.6537,-8.6858,-8.7465,-8.7714,-8.8107,-8.8928,-8.8782,-8.8685,-8.8899,-8.8721,-8.8108,-8.7052,-8.5464,-8.4056,-8.294,-8.3446,-8.4241,-8.5368,-8.6627,-8.772,-8.8647,-8.8979,-8.9244,-8.9409,-8.9244,-8.9244,-8.9442,-8.9807,-8.9807,-5.9551,-6.0781,-6.2068,-6.3083,-6.3767,-6.4269,-6.4445,-6.535,-6.6047,-6.5747,-6.7241,-6.8603,-6.8596,-6.9024,-7.0052,-7.1997,-7.1775,-7.2253,-7.4895,-7.5469,-7.5221,-7.428,-7.5602,-7.6049,0.0,-7.5697,-7.6331,-7.6265,-7.6961,-7.7739,-7.8483,-7.9194,-7.9126,-7.801,-7.7976,-7.7232,-7.5709,-7.5709,-7.5709,-7.5709,-7.5709,-7.5709,-7.5709,-7.5709,-7.5709,-7.5709,-7.5709,-7.6697,-7.8234,-7.743,-7.8284,-8.0126,-8.0126,-8.0753,-8.1783,-8.2431,-8.3082,-8.3649,-8.419,-8.4344,-8.4302,-8.4864,-8.506,-8.502,-8.49,-8.4778,-8.4733,-8.461,-8.461,-8.461,-8.461,-8.461,-8.461,-8.461,-8.461,-8.461,-8.461,-8.4895,-8.5288,-8.5716,-8.6073,-8.643,-8.6822,-8.7215,-8.7607,-8.8036,-8.8392,-8.8821,-8.9249,-8.932,-8.932,-8.932,-8.932,-8.8854,-8.7796,-8.6665,-8.5515,-8.4452,-8.4933,-8.5627,-8.6373,-8.702,-8.7819,-8.8879,-8.9244,-8.9409,-8.9409,-8.9409,-8.9575,-8.9939,-9.0337,-9.0469,-5.9926,-6.1192,-6.2252,-6.2796,-6.3571,-6.4346,-6.4878,-6.5744,-6.648,-6.648,-6.7731,-6.8773,-6.8629,-6.9649,-7.0684,-7.1255,-7.2959,-7.4638,-7.5923,-7.6425,-7.651,-7.6151,-7.697,0.0,-7.6097,-7.677,-7.725,-7.7128,-7.7924,-7.8672,-7.9306,-8.0019,-7.9698,-7.8044,-7.7976,-7.7232,-7.5709,-7.5709,-7.5709,-7.5709,-7.5709,-7.5709,-7.5709,-7.5709,-7.5805,-7.5913,-7.6048,-7.7124,-7.8647,-7.7944,-7.9068,-8.1182,-8.114,-8.2134,-8.3602,-8.4146,-8.4832,-8.5495,-8.53,-8.5297,-8.5297,-8.5258,-8.5258,-8.5258,-8.5218,-8.51,-8.49,-8.4773,-8.4651,-8.461,-8.4651,-8.461,-8.461,-8.461,-8.4717,-8.4788,-8.4788,-8.5431,-8.6002,-8.6144,-8.6644,-8.7108,-8.7251,-8.7821,-8.8285,-8.8285,-8.8963,-8.9499,-8.9499,-8.9499,-8.9499,-8.9499,-8.9392,-8.897,-8.8192,-8.8251,-8.7913,-8.7012,-8.7004,-8.7179,-8.7464,-8.6851,-8.7242,-8.8715,-8.9039,-8.9343,-8.9575,-8.9575,-8.9972,-9.0701,-9.0701,-9.0933,-5.9347,-6.0547,-6.1951,-6.2705,-6.3553,-6.4419,-6.5136,-6.6805,-6.8224,-6.8224,-6.902,-7.0172,-7.1689,-7.0718,-7.0573,-7.3383,-7.488,-7.5575,-7.5299,-7.7053,-7.7559,-7.5423,0.0,-7.7775,-7.6166,-7.7345,-7.8197,-7.8098,-7.9456,-8.0275,-8.0278,-8.0987,-8.033,-7.8093,-7.7976,-7.7232,-7.5709,-7.5709,-7.5709,-7.5709,-7.5709,-7.5709,-7.5709,-7.5709,-7.6148,-7.6929,-7.7628,-7.8886,-8.0506,-8.0359,-8.1409,-8.3075,-8.3038,-8.3656,-8.4562,-8.5319,-8.5569,-8.5495,-8.5456,-8.5608,-8.5759,-8.5531,-8.5456,-8.5417,-8.5258,-8.5179,-8.5139,-8.51,-8.4859,-8.4651,-8.4819,-8.4733,-8.461,-8.461,-8.5145,-8.5609,-8.5609,-8.6216,-8.6929,-8.7607,-8.7821,-8.8143,-8.8821,-8.9035,-8.9142,-8.9142,-8.982,-9.0319,-9.0319,-9.0319,-9.0319,-9.0319,-8.9713,-8.9483,-9.0028,-9.0633,-9.0944,-9.0763,-8.9115,-8.9,-9.0838,-8.9053,-8.8794,-9.0621,-8.922,-8.9111,-9.0337,-9.0337,-9.0734,-9.143,-9.143,-9.1165,-5.9592,-6.0355,-6.1318,-6.2234,-6.3462,-6.4775,-6.6104,-6.7535,-6.8612,-6.8915,-6.9809,-7.0729,-7.1475,-7.1621,-7.276,-7.6149,-7.6418,-7.6508,-7.7522,-7.8275,-7.8457,0.0,0.0,-7.8983,-7.8119,-7.9069,-7.9723,-7.9592,-8.071,-8.1524,-8.1847,-8.215,-8.1481,-7.9534,-7.9025,-7.8475,-7.7806,-7.6885,-7.6439,-7.6439,-7.6439,-7.6439,-7.6439,-7.6439,-7.6919,-7.7786,-7.8632,-7.9972,-8.1541,-8.1541,-8.2586,-8.4135,-8.4135,-8.4642,-8.5402,-8.5764,-8.5797,-8.5685,-8.5685,-8.5797,-8.5909,-8.5759,-8.5685,-8.5721,-8.5606,-8.5492,-8.5339,-8.5339,-8.51,-8.4778,-8.49,-8.5059,-8.5252,-8.5252,-8.5859,-8.6394,-8.6394,-8.7001,-8.7643,-8.8036,-8.8785,-8.9392,-8.932,-8.9998,-9.0427,-9.0034,-9.0248,-9.0498,-9.0498,-9.0498,-9.0319,-8.9891,-8.9927,-9.0105,-9.0462,-9.0819,-9.1274,-9.1929,-9.1053,-9.0622,-9.1088,-9.0918,-9.0708,-9.0527,-9.0455,-9.05,-9.0536,-9.09,-9.1463,-9.2192,-9.2192,-9.2225,-6.0178,-6.0753,-6.145,-6.2593,-6.404,-6.5553,-6.708,-6.8399,-6.9386,-6.9685,-7.0387,-7.1057,-7.1165,-7.2695,-7.4889,-7.7647,-7.7434,-7.7579,-7.9607,-7.9535,-7.9426,-7.9861,-8.0078,-8.0081,-7.9798,-8.0665,-8.118,-8.1028,-8.1966,-8.2786,-8.3313,-8.3128,-8.2337,-8.0751,-8.0016,-7.9668,-7.9599,-7.8702,-7.8076,-7.7683,-7.7509,-7.7405,-7.7405,-7.7405,-7.7953,-7.8981,-7.9775,-8.1064,-8.2428,-8.2643,-8.3498,-8.4678,-8.4678,-8.5185,-8.5945,-8.6308,-8.6199,-8.5909,-8.609,-8.6054,-8.5909,-8.5909,-8.5909,-8.5909,-8.5909,-8.5867,-8.5861,-8.5861,-8.5732,-8.5522,-8.5262,-8.5673,-8.6156,-8.6073,-8.6644,-8.7179,-8.7179,-8.7821,-8.8392,-8.8392,-8.9534,-9.0319,-8.9713,-9.0712,-9.1426,-9.0855,-9.0926,-9.0962,-9.0783,-9.0926,-9.0748,-8.9927,-9.0391,-9.0819,-9.1033,-9.1212,-9.1717,-9.2669,-9.24,-9.2075,-9.166,-9.2285,-9.2336,-9.1609,-9.2202,-9.2432,-9.2179,-9.2381,-9.301,-9.3853,-9.3515,-9.3724,-6.1001,-6.206,-6.3275,-6.4807,-6.5983,-6.6996,-6.7642,-6.9785,-7.1535,-7.1144,-7.1043,-7.1342,-7.2455,-7.4079,-7.5527,-7.6345,-7.7615,-7.8847,-7.9788,0.0,-8.0694,-7.9969,-8.0585,-8.0658,-7.987,-8.1268,-8.2135,-8.2005,-8.3567,-8.4436,-8.4319,-8.356,-8.2407,-8.0751,-8.063,-8.0287,-7.9599,-8.1018,-8.0942,-7.9409,-7.8666,-7.8315,-7.8315,-7.8315,-7.9193,-8.0776,-8.1604,-8.247,-8.3445,-8.4205,-8.4604,-8.4678,-8.4678,-8.5185,-8.6054,-8.7539,-8.7141,-8.5982,-8.6706,-8.6489,-8.5909,-8.5909,-8.5909,-8.5909,-8.5909,-8.6416,-8.6957,-8.6921,-8.7273,-8.7433,-8.6311,-8.6583,-8.7151,-8.6864,-8.7429,-8.8,-8.8,-8.8642,-8.9213,-8.9213,-8.9927,-9.0498,-9.0427,-9.1069,-9.1568,-9.1533,-9.2175,-9.2354,-9.164,-9.2175,-9.2318,-9.1533,-9.1497,-9.1818,-9.2568,-9.3317,-9.3817,-9.3868,-9.2871,-9.3044,-9.4833,-9.2958,-9.3293,-9.6327,-9.4351,-9.4529,-9.6989,-9.5934,-9.6002,-9.7161,-9.6011,-9.5541,-6.178,-6.2673,-6.3861,-6.6498,-6.8316,-6.9498,-6.942,-7.0645,-7.1765,-7.1652,-7.1642,-7.1982,-7.3246,-7.5265,-7.6922,-7.7651,-7.8738,-7.9752,-8.0549,-8.0911,-8.0984,-8.0694,-8.0911,-8.1165,-8.1342,-8.2395,-8.3227,-8.3685,-8.4817,-8.5395,-8.5339,-8.4583,-8.3816,-8.3216,-8.2125,-8.1982,-8.2789,-8.2303,-8.2052,-8.2037,-8.063,-7.9711,-7.9285,-7.9746,-8.0586,-8.1688,-8.2591,-8.3728,-8.5004,-8.533,-8.5728,-8.6199,-8.6706,-8.7068,-8.743,-8.7971,-8.7865,-8.7322,-8.7104,-8.6851,-8.6597,-8.6597,-8.6597,-8.6706,-8.7177,-8.7539,-8.7754,-8.7601,-8.8179,-8.8573,-8.7501,-8.7735,-8.8223,-8.8099,-8.8547,-8.9078,-8.924,-8.9765,-9.0251,-9.0251,-9.1289,-9.196,-9.1283,-9.2246,-9.2924,-9.2425,-9.2603,-9.2675,-9.2389,-9.2603,-9.2496,-9.1711,-9.2068,-9.2461,-9.2782,-9.3531,-9.3995,-9.3995,-9.41,-9.4657,-9.5804,-9.6025,-9.6574,-9.7603,-9.7299,-9.7183,-9.7513,-9.7002,-9.7276,-9.8181,-9.7861,-9.8021,-6.252,-6.3742,-6.5215,-6.7672,-6.9888,-7.1363,-7.0839,-7.1617,-7.234,-7.2069,-7.2283,-7.2832,-7.4058,-7.6158,-7.7896,-7.8591,-7.9607,-8.0476,-8.102,-8.1128,-8.1128,-8.1128,-8.1128,-8.1418,-8.2215,-8.3012,-8.3809,-8.4642,-8.5438,-8.5909,-8.5909,-8.4895,-8.4424,-8.4678,-8.3282,-8.3246,-8.4678,-8.3534,-8.3138,-8.3483,-8.231,-8.1287,-8.0643,-8.1107,-8.1896,-8.2939,-8.3585,-8.4786,-8.6271,-8.6271,-8.6706,-8.7467,-8.8263,-8.8444,-8.8224,-8.877,-8.8662,-8.8152,-8.7865,-8.7611,-8.7356,-8.7356,-8.7356,-8.7464,-8.8007,-8.8408,-8.855,-8.8432,-8.905,-8.96,-8.8938,-8.9027,-8.9256,-8.9174,-8.9444,-8.9827,-9.0282,-9.0665,-9.1011,-9.1262,-9.2374,-9.3039,-9.2334,-9.3328,-9.4007,-9.3471,-9.3399,-9.3292,-9.2988,-9.3131,-9.305,-9.2425,-9.2853,-9.3174,-9.3174,-9.3674,-9.4102,-9.4352,-9.5351,-9.6136,-9.6671,-9.8206,-9.9149,-9.9403,-9.9569,-9.955,-9.9383,-9.8965,-9.9298,-10.0171,-9.9762,-9.9847,-6.3103,-6.5399,-6.7756,-6.8385,-7.0578,-7.2384,-7.1598,-7.2757,-7.3677,-7.2553,-7.2958,-7.3836,-7.4892,-7.6687,-7.8165,-7.8662,-8.0078,-8.1128,-8.1128,-8.1128,-8.1128,-8.1128,-8.1128,-8.1418,-8.2215,-8.3012,-8.3845,-8.4642,-8.5438,-8.5909,-8.5909,-8.4388,-8.3881,-8.4678,-8.3917,-8.3881,-8.4678,-8.4678,-8.4279,-8.3483,-8.3483,-8.3048,-8.2287,-8.2287,-8.3193,-8.4678,-8.4714,-8.5583,-8.6994,-8.7032,-8.7464,-8.8336,-8.9096,-8.8915,-8.8444,-9.0002,-8.9603,-8.8333,-8.9133,-8.8879,-8.8188,-8.8188,-8.8188,-8.8188,-8.8188,-8.877,-8.9386,-8.9386,-8.9966,-9.0581,-9.0581,-9.0457,-9.0254,-9.0042,-9.0001,-9.0216,-9.1008,-9.1223,-9.1439,-9.2201,-9.2949,-9.3525,-9.3525,-9.4172,-9.4711,-9.4711,-9.4711,-9.4336,-9.3362,-9.3855,-9.4231,-9.4005,-9.3995,-9.3995,-9.3995,-9.3995,-9.4352,-9.5137,-9.6671,-9.7492,-9.7528,-9.9062,-10.0597,-10.2203,-10.0992,-10.1416,-10.338,-10.2122,-10.228,-10.3706,-10.1673,-10.0886,-6.5068,-6.6559,-6.8091,-7.0363,-7.1434,-7.1965,-7.229,-7.2892,-7.3289,-7.2988,-7.44,-7.5734,-7.5907,-7.7792,-7.9349,-7.9499,-8.044,-8.1128,-8.1128,-8.1128,-8.1128,-8.1128,-8.1599,-8.2251,-8.3048,-8.3845,-8.4678,-8.5475,-8.5764,-8.5909,-8.5909,-8.4895,-8.4714,-8.5511,-8.475,-8.4714,-8.5547,-8.4968,-8.4569,-8.4316,-8.3772,-8.3048,-8.2324,-8.3446,-8.4243,-8.4714,-8.5293,-8.6416,-8.7937,-8.906,-8.9676,-8.9929,-9.0147,-9.011,-8.9966,-9.0436,-9.0292,-8.9857,-8.9495,-8.9241,-8.9024,-8.9024,-8.9024,-8.9169,-8.9712,-9.0038,-9.0219,-9.0219,-9.04,-9.0581,-9.0581,-9.0578,-9.0497,-9.0457,-9.0728,-9.1156,-9.1532,-9.2429,-9.3169,-9.3386,-9.4071,-9.4489,-9.4395,-9.4531,-9.4711,-9.4711,-9.4711,-9.4515,-9.4043,-9.4043,-9.405,-9.4041,-9.3995,-9.3995,-9.3995,-9.4495,-9.5015,-9.5367,-9.7265,-9.8598,-9.9169,-10.0704,-10.1989,-10.2988,-10.2923,-10.313,-10.3715,-10.2887,-10.2785,-10.3209,-10.2203,-10.1809,-6.5577,-6.721,-6.8754,-7.0523,-7.1394,-7.1985,-7.2888,-7.308,-7.3266,-7.392,-7.5406,-7.6838,-7.7577,-7.8988,0.0,-8.0332,-8.0802,-8.1128,-8.1128,-8.1128,-8.1237,-8.1527,-8.1998,-8.2722,-8.3845,-8.4424,-8.504,-8.5837,-8.5909,-8.5909,-8.5909,-8.5149,-8.5076,-8.5873,-8.5112,-8.5076,-8.5873,-8.5402,-8.5185,-8.5149,-8.4678,-8.4207,-8.3736,-8.4388,-8.4859,-8.5221,-8.6344,-8.7539,-8.8807,-9.0074,-9.04,-9.0147,-9.0473,-9.04,-9.0147,-9.0473,-9.0581,-9.0545,-9.0038,-8.9857,-8.9857,-8.9857,-8.9857,-8.9966,-9.0436,-9.0581,-9.0581,-9.0581,-9.0581,-9.0581,-9.0581,-9.0835,-9.1088,-9.1088,-9.1329,-9.1831,-9.2569,-9.3432,-9.4103,-9.4428,-9.4825,-9.5108,-9.5015,-9.5015,-9.5015,-9.5015,-9.4886,-9.4763,-9.4631,-9.441,-9.4312,-9.4312,-9.4312,-9.4419,-9.4742,-9.5197,-9.5825,-9.6535,-9.8369,-9.9826,-10.0601,-10.1792,-10.2794,-10.3729,-10.3625,-10.3495,-10.3495,-10.2778,-10.2597,-10.2739,-10.1967,-10.1781,-6.516,-6.752,-6.961,-6.947,-7.0804,-7.2346,-7.3264,-7.3379,-7.3743,-7.5229,-7.6214,-7.7456,-7.9534,-8.011,-8.0435,-8.0984,-8.1128,-8.1128,-8.1128,-8.1165,-8.1491,-8.2179,-8.2432,-8.3084,-8.4569,-8.475,-8.5112,-8.5837,-8.5909,-8.5909,-8.5909,-8.5221,-8.5149,-8.5873,-8.5185,-8.5185,-8.5982,-8.5945,-8.5982,-8.6126,-8.5982,-8.5945,-8.5982,-8.5149,-8.5293,-8.6199,-8.7611,-8.8662,-8.9459,-9.0183,-9.0038,-8.9459,-9.0219,-9.0074,-8.9603,-9.0328,-9.0581,-9.0581,-9.0581,-9.0581,-9.0581,-9.0581,-9.0581,-9.0581,-9.0581,-9.0581,-9.0581,-9.0581,-9.0581,-9.0618,-9.069,-9.1233,-9.1849,-9.2038,-9.2071,-9.2428,-9.3877,-9.4276,-9.4529,-9.5253,-9.5398,-9.5398,-9.5398,-9.5398,-9.5398,-9.5398,-9.5151,-9.5022,-9.5022,-9.4806,-9.4711,-9.4711,-9.4783,-9.5107,-9.5826,-9.6042,-9.6725,-9.8244,-9.9673,-10.0906,-10.1698,-10.2395,-10.3172,-10.4096,-10.3425,-10.2993,-10.2921,-10.213,-10.191,-10.2106,-10.1266,-10.1113,-6.5477,-6.7797,-6.9982,-6.9954,-7.137,-7.2886,-7.3191,-7.4686,-7.6081,-7.6409,-7.7549,-7.8763,-7.9715,-8.0476,-8.0947,-8.1092,-8.1128,-8.1128,-8.1128,-8.1635,-8.2106,-8.2287,-8.341,-8.4316,-8.4678,-8.5257,-8.5692,-8.5873,-8.5909,-8.5909,-8.5909,-8.5728,-8.5728,-8.5873,-8.5728,-8.6018,-8.6778,-8.6199,-8.6525,-8.772,-8.6489,-8.6199,-8.6742,-8.5982,-8.6416,-8.772,-8.8043,-8.8662,-8.9422,-8.9567,-8.9567,-8.9422,-8.9567,-8.9929,-9.0364,-9.0545,-9.0581,-9.0581,-9.0581,-9.0581,-9.0581,-9.0581,-9.0581,-9.0581,-9.0581,-9.0581,-9.0581,-9.0581,-9.0581,-9.0762,-9.1378,-9.1668,-9.2264,-9.4102,-9.4074,-9.3805,-9.4131,-9.471,-9.5181,-9.5362,-9.5398,-9.5398,-9.5398,-9.5398,-9.5398,-9.5398,-9.5151,-9.5022,-9.5022,-9.4806,-9.4711,-9.4711,-9.5286,-9.5718,-9.5898,-9.7048,-9.8002,-9.847,-9.9225,-10.0217,-10.1412,-10.298,-10.3688,-10.3269,-10.3279,-10.3023,-10.241,-10.179,-10.1493,-10.1574,-10.0706,-10.0714,-6.5218,-6.7469,-6.9715,-7.0674,-7.2011,-7.3208,-7.3671,-7.5442,-7.7121,-7.7724,-7.8789,-7.9743,-8.0367,-8.1128,-8.1672,-8.1672,-8.1998,-8.2251,-8.2251,-8.2613,-8.3012,-8.3374,-8.4171,-8.4859,-8.5221,-8.5656,-8.5909,-8.5909,-8.5909,-8.5909,-8.5909,-8.5909,-8.5909,-8.5909,-8.6235,-8.6634,-8.7032,-8.7394,-8.7974,-8.877,-8.7575,-8.6815,-8.6452,-8.609,-8.6742,-8.8188,-8.8188,-8.8879,-8.9966,-8.9966,-8.9748,-8.9422,-8.9821,-9.0002,-9.0074,-9.0473,-9.0581,-9.0581,-9.0581,-9.0581,-9.0581,-9.0581,-9.0581,-9.0581,-9.0581,-9.0581,-9.0581,-9.0581,-9.0871,-9.1269,-9.1704,-9.2642,-9.3803,-9.4995,-9.4744,-9.4436,-9.5134,-9.5327,-9.5398,-9.5398,-9.5398,-9.5398,-9.5398,-9.5398,-9.5398,-9.5398,-9.5278,-9.5193,-9.5193,-9.5065,-9.5203,-9.5564,-9.5997,-9.6574,-9.7332,-9.8162,-9.8856,-9.9351,-9.9975,-10.0707,-10.141,-10.2703,-10.3214,-10.2817,-10.2631,-10.2207,-10.1809,-10.1068,-10.0795,-10.0795,-10.0795,-10.1012,-6.4684,-6.7045,-6.9513,-7.135,-7.2552,-7.3441,-7.428,-7.5907,-7.7655,-7.8787,-7.9665,-8.0361,-8.0983,-8.1744,-8.2287,-8.2287,-8.2976,-8.3483,-8.3483,-8.3591,-8.3953,-8.4605,-8.4823,-8.5149,-8.5837,-8.5909,-8.5909,-8.5909,-8.5909,-8.5909,-8.5909,-8.5909,-8.5945,-8.609,-8.6706,-8.7177,-8.743,-8.8734,-8.9459,-8.9603,-8.8662,-8.7467,-8.609,-8.5945,-8.667,-8.7971,-8.8116,-8.8988,-9.0219,-9.0328,-9.0002,-8.9459,-9.011,-9.0074,-8.9676,-9.0364,-9.0581,-9.0581,-9.0581,-9.0581,-9.0581,-9.0581,-9.0701,-9.078,-9.078,-9.078,-9.078,-9.078,-9.1281,-9.1853,-9.2159,-9.373,-9.5403,-9.5774,-9.532,-9.5105,-9.624,-9.5907,-9.5398,-9.5398,-9.5398,-9.5398,-9.5398,-9.5398,-9.5398,-9.5398,-9.5398,-9.5398,-9.5398,-9.5507,-9.5833,-9.6521,-9.6847,-9.7535,-9.8875,-9.9129,-9.9491,-10.0215,-10.0795,-10.1193,-10.1193,-10.1809,-10.2171,-10.2171,-10.17,-10.1302,-10.1193,-10.0505,-10.0288,-10.0396,-10.1121,-10.1519,-6.4143,-6.7276,-7.0376,-7.1526,-7.2614,-7.3659,-7.4464,-7.6439,-7.8345,0.0,-7.9733,-8.0361,-8.0983,-8.1744,-8.2287,-8.2287,-8.2976,-8.3483,-8.3483,-8.4098,-8.4569,-8.4678,-8.533,-8.5764,-8.5873,-8.5909,-8.5909,-8.5909,-8.5909,-8.5909,-8.5909,-8.5909,-8.6199,-8.6851,-8.6996,-8.772,-8.906,-8.9277,-8.9748,-9.0436,-8.8951,-8.7756,-8.6851,-8.6199,-8.638,-8.7213,-8.7899,-8.8297,-8.8589,-8.9277,-8.9495,-8.9386,-8.9531,-8.9929,-9.0436,-9.0545,-9.0581,-9.0581,-9.0581,-9.0581,-9.0581,-9.0581,-9.1055,-9.1583,-9.1583,-9.1583,-9.1583,-9.1583,-9.1676,-9.2083,-9.3446,-9.4518,-9.5811,-9.7764,-9.7685,-9.7024,-9.6617,-9.5907,-9.5398,-9.5398,-9.5398,-9.5398,-9.5398,-9.5398,-9.5398,-9.5398,-9.5398,-9.5398,-9.5398,-9.5978,-9.6485,-9.6593,-9.7861,-9.8767,-9.8984,-9.9636,-10.0107,-10.0215,-10.0288,-10.0396,-10.0396,-10.0505,-10.0505,-10.0505,-10.1121,-10.1121,-10.0396,-10.0288,-10.0614,-10.1229,-10.1302,-10.2099,-6.5653,-6.8352,-7.0632,-7.2084,-7.3207,-7.4117,-7.4451,-7.6323,-7.8161,-7.8795,-7.989,-8.08,-8.1056,-8.2143,-8.2939,-8.2939,-8.4026,-8.4823,-8.4823,-8.5149,-8.5366,-8.5366,-8.5692,-8.5909,-8.5909,-8.5909,-8.5909,-8.5909,-8.5909,-8.609,-8.6489,-8.6525,-8.6887,-8.7645,-8.8155,-8.8698,-8.9386,-8.9857,-9.0002,-8.9893,-8.877,-8.7793,-8.6996,-8.6235,-8.6308,-8.7068,-8.7826,-8.8481,-8.8951,-8.9748,-9.0074,-9.0074,-9.0074,-9.0292,-9.0581,-9.0581,-9.0581,-9.0581,-9.0581,-9.0581,-9.0581,-9.0581,-9.0819,-9.1093,-9.1093,-9.1093,-9.1166,-9.164,-9.241,-9.3331,-9.4481,-9.5953,-9.7454,-9.848,-9.846,-9.81,-9.78,-9.6842,-9.6027,-9.6027,-9.6027,-9.6027,-9.6027,-9.5658,-9.5398,-9.5398,-9.5398,-9.5543,-9.6014,-9.6376,-9.6956,-9.7861,-9.8585,-9.9165,-9.9636,-9.9998,-10.0215,-10.0215,-10.0215,-10.0215,-10.0215,-10.0215,-10.0215,-10.0215,-10.0505,-10.0614,-10.0215,-10.0686,-10.1121,-10.141,-10.2316,-10.3113,-6.6258,-6.8631,-7.0511,-7.2059,-7.3243,-7.4129,-7.4546,-7.613,-7.7743,0.0,-7.986,-8.0875,-8.1056,-8.2432,-8.3483,-8.3483,-8.4859,-8.5909,-8.5909,-8.5909,-8.5909,-8.5909,-8.5909,-8.5909,-8.5909,-8.5909,-8.5909,-8.5909,-8.6054,-8.6416,-8.6996,-8.7213,-8.7684,-8.8481,-8.9277,-8.9712,-8.9712,-9.0292,-9.0292,-8.9676,-8.8915,-8.8082,-8.7322,-8.6742,-8.667,-8.7068,-8.7826,-8.8662,-8.9459,-9.0255,-9.0581,-9.0581,-9.0581,-9.0581,-9.0581,-9.0581,-9.0581,-9.0581,-9.0581,-9.0581,-9.0621,-9.0819,-9.1016,-9.1133,-9.1133,-9.1279,-9.1571,-9.2191,-9.3338,-9.4632,-9.5588,-9.7268,-9.8748,-9.893,-9.896,-9.887,-9.8492,-9.756,-9.6768,-9.6768,-9.6768,-9.673,-9.654,-9.6031,-9.5617,-9.5404,-9.5543,-9.5905,-9.6521,-9.6956,-9.768,-9.8875,-9.9165,-9.9563,-10.0107,-10.0215,-10.0215,-10.0215,-10.0215,-10.0215,-10.0215,-10.0215,-10.0215,-10.0215,-10.0396,-10.0505,-10.0505,-10.1121,-10.1628,-10.2026,-10.3185,-10.3801,-6.4478,-6.7108,-7.0001,-7.1041,-7.2134,-7.3388,-7.4983,0.0,-7.7123,-7.8686,-7.9529,-8.0223,-8.0984,-8.2432,-8.3483,-8.3483,-8.4859,-8.5909,-8.5909,-8.5909,-8.5909,-8.5909,-8.5909,-8.5909,-8.5909,-8.5909,-8.5909,-8.5909,-8.6561,-8.6959,-8.7032,-8.7718,-8.8517,-8.9314,-9.011,-9.0545,-9.0545,-9.0581,-9.0581,-9.0545,-8.9712,-8.8915,-8.8116,-8.808,-8.772,-8.7068,-8.7826,-8.8662,-8.9459,-9.0255,-9.0581,-9.0581,-9.0581,-9.0581,-9.0581,-9.0581,-9.0581,-9.0581,-9.0581,-9.0581,-9.0701,-9.1435,-9.2085,-9.2592,-9.2592,-9.3115,-9.3745,-9.3887,-9.4552,-9.5553,-9.6997,-9.8048,-9.887,-9.9565,-9.9742,-9.9358,-9.7968,-9.7595,-9.7525,-9.7525,-9.7525,-9.7314,-9.6617,-9.6463,-9.6228,-9.5488,-9.605,-9.6557,-9.6593,-9.7934,-9.8911,-9.8984,-9.9672,-10.0215,-10.0215,-10.0215,-10.0215,-10.0215,-10.0215,-10.0215,-10.0215,-10.0215,-10.0215,-10.0215,-10.0903,-10.1302,-10.1302,-10.141,-10.2207,-10.3584,-10.3692,-10.4091,-6.4453,-6.6821,-6.9186,-7.0548,-7.2209,-7.3711,-7.4287,-7.5452,-7.6847,-7.8479,-7.9389,-8.0151,-8.0947,-8.2432,-8.3483,-8.3483,-8.4859,-8.5909,-8.5909,-8.5909,-8.5909,-8.5909,-8.5909,-8.5909,-8.5909,-8.5909,-8.609,-8.6561,-8.6851,-8.7467,-8.8481,-8.8807,-8.9567,-9.0907,-9.1233,-9.1378,-9.1378,-9.1378,-9.1125,-9.0581,-8.9785,-8.9241,-8.8951,-8.8444,-8.8336,-8.8553,-8.8843,-8.9133,-8.9459,-9.0255,-9.0581,-9.0581,-9.0581,-9.0581,-9.0581,-9.0581,-9.0581,-9.0581,-9.0581,-9.09,-9.1247,-9.1055,-9.1765,-9.2525,-9.162,-9.2244,-9.3377,-9.3929,-9.503,-9.6342,-9.7861,-9.8861,-9.9443,-9.9742,-9.9796,-9.9687,-9.9117,-9.8617,-9.8333,-9.8333,-9.8333,-9.8067,-9.7314,-9.6805,-9.6608,-9.692,-9.6717,-9.7132,-9.866,-9.8972,-9.9201,-9.9708,-9.9998,-10.0215,-10.0215,-10.0215,-10.0215,-10.0215,-10.0215,-10.0215,-10.0215,-10.0215,-10.0396,-10.1012,-10.17,-10.1918,-10.141,-10.2388,-10.3185,-10.3692,-10.4199,-10.4598,-6.3816,0.0,-6.777,-6.9687,-7.1467,-7.3034,-7.395,-7.5037,-7.6247,-7.7973,-7.8738,-7.9426,-8.0513,-8.178,-8.2867,-8.341,-8.4859,-8.5909,-8.5909,-8.5909,-8.5909,-8.5909,-8.5909,-8.5909,-8.5909,-8.5909,-8.6199,-8.6959,-8.7249,0.0,-8.9314,-8.964,-9.0545,-9.2139,-9.2211,-9.2211,-9.2211,-9.1921,-9.1414,-9.0581,-9.0038,-8.964,-8.9386,-8.9133,-8.9169,-8.9422,-8.9676,-8.9785,-8.9821,-9.0364,-9.0581,-9.0581,-9.0581,-9.0762,-9.1016,-9.1016,-9.1016,-9.102,-9.1297,-9.1541,-9.1693,-9.1693,-9.2153,-9.2595,-9.2203,-9.283,-9.3892,-9.4952,-9.618,-9.7461,-9.8719,-9.9415,-9.9796,-9.9796,-9.9796,-9.9796,-9.9796,-9.9415,-9.9087,-9.9087,-9.9087,-9.8915,-9.8474,-9.8006,-9.7874,-9.8503,-9.8098,-9.8317,-9.9873,-9.9687,-9.96,-10.0107,-10.0215,-10.0215,-10.0215,-10.0215,-10.0215,-10.0215,-10.0215,-10.0215,-10.0215,-10.0505,-10.0903,-10.141,-10.2388,-10.2787,-10.2606,-10.391,-10.4598,-10.4924,-10.5503,-10.5612,0.0,0.0,0.0,0.0,-6.975,-7.1201,-7.3958,0.0,-7.5335,-7.7093,-7.7504,-7.8012,-7.9571,-8.0549,-8.1599,-8.3157,-8.4786,-8.5873,-8.5873,-8.5873,-8.5909,-8.5909,-8.5909,-8.5909,-8.5909,-8.5909,-8.6235,-8.6996,-8.7793,-8.8589,-8.9386,-9.0219,-9.1378,-9.2972,-9.3044,-9.3044,-9.3008,-9.2247,-9.1414,-9.0581,-9.0581,-9.0183,-8.9459,-9.0219,-9.0183,-8.9459,-9.0255,-9.0581,-9.0581,-9.0581,-9.0581,-9.0581,-9.0618,-9.1125,-9.1813,-9.1849,-9.1813,-9.1937,-9.2643,-9.2391,-9.1981,-9.3339,-9.3301,-9.3035,-9.4489,-9.5102,-9.5566,-9.7061,-9.8072,-9.887,-9.9593,-9.9796,-9.9796,-9.9796,-9.9796,-9.9796,-9.9796,-9.9834,-9.9834,-9.9796,-9.9834,-9.9868,-9.9967,-10.0025,-10.0104,-10.022,-10.0203,-10.0102,-10.0175,-10.0203,-10.0179,-10.0215,-10.0215,-10.0215,-10.0215,-10.0215,-10.0215,-10.0215,-10.0215,-10.0215,-10.0215,-10.1012,-10.141,-10.1519,-10.3004,-10.4091,-10.4924,-10.572,-10.6517,-10.7314,-10.7314,-10.6916,-6.2252,0.0,0.0,0.0,0.0,0.0,0.0,0.0,-7.5671,-7.6289,-7.7406,-7.8418,-7.8914,-8.0187,-8.1273,-8.1708,-8.3591,-8.504,-8.504,-8.5511,-8.5909,-8.5909,-8.5909,-8.5909,-8.5909,-8.638,-8.7032,0.0,-8.8626,-8.9422,-9.0219,-9.1595,-9.2537,-9.3008,-9.4131,-9.4167,-9.3008,-9.2791,-9.1958,-9.0581,-9.0581,-9.0473,-9.0292,-9.0509,-9.0473,-9.0292,-9.0509,-9.0581,-9.0581,-9.0581,-9.0581,-9.0654,-9.1233,-9.1595,-9.1885,-9.2465,-9.2609,-9.2605,-9.283,-9.3065,-9.3214,-9.3051,-9.3545,-9.4236,-9.4242,-9.507,-9.6144,-9.7184,-9.8072,-9.887,-9.9593,-9.9796,-9.9796,-9.9796,-9.9796,-9.9796,-9.9796,-10.0289,-10.0592,-9.991,-10.0289,-10.0587,-10.008,-10.0513,-10.1088,-10.1715,-10.1299,-10.1204,-10.1796,-10.1286,-10.0803,-10.0303,-10.0215,-10.0215,-10.0215,-10.0215,-10.0215,-10.0215,-10.0215,-10.0505,-10.1012,-10.1302,-10.1918,-10.3004,-10.4091,-10.4996,-10.5793,-10.601,-10.6517,-10.7314,-10.7314,-10.7205,0.0,0.0,0.0,0.0,0.0,0.0,0.0,0.0,0.0,0.0,-7.7431,-7.8252,-7.8624,-7.9752,-8.0621,-8.0621,-8.2613,-8.4316,-8.4642,-8.5112,-8.5511,-8.5873,-8.5909,-8.5909,-8.5909,-8.6308,-8.6996,-8.8116,-8.8626,-8.9386,-9.0545,-9.2139,-9.3008,-9.3008,-9.4565,-9.4783,-9.3515,-9.3189,-9.2356,-9.1088,-9.0762,-9.0581,-9.0581,-9.0581,-9.0581,-9.0581,-9.0581,-9.0581,-9.0581,-9.0581,-9.0799,-9.1161,-9.1632,-9.203,-9.2397,-9.3194,-9.3223,-9.2978,-9.3548,-9.3797,-9.3769,-9.3605,-9.416,-9.497,-9.5262,-9.6028,-9.6975,-9.8137,-9.8798,-9.9271,-9.9714,-9.9796,-9.991,-10.0289,-10.0289,-10.0403,-10.0782,-10.1199,-10.1388,-10.0516,-10.1009,-10.158,-10.1497,-10.189,-10.2494,-10.3286,-10.249,-10.2014,-10.2387,-10.1473,-10.0713,-10.0187,-10.0215,-10.0215,-10.0215,-10.0215,-10.0215,-10.0215,-10.0505,-10.0903,-10.141,-10.2026,-10.2787,-10.3692,-10.4489,-10.5322,-10.6119,-10.6807,-10.7495,-10.8292,-10.8292,-10.8111,0.0,0.0,0.0,0.0,0.0,0.0,0.0,0.0,0.0,0.0,-7.7149,-7.7625,-7.8361,-7.9233,-7.9851,-7.9851,-8.1742,-8.352,-8.4461,-8.4714,-8.5112,-8.5801,-8.5909,-8.5909,-8.5909,-8.5982,-8.6597,-8.7935,-8.8224,-8.906,-9.0654,-9.2175,-9.3044,-9.3153,-9.4602,-9.5,-9.4239,-9.3406,-9.261,-9.1813,-9.098,-9.0581,-9.0581,-9.0581,-9.0581,-9.0581,-9.0581,-9.0581,-9.0581,-9.0581,-9.1088,-9.1813,-9.1885,-9.2397,-9.3216,-9.3961,-9.375,-9.3302,-9.4572,-9.4541,-9.4001,-9.4599,-9.4939,-9.5393,-9.6869,-9.7432,-9.7936,-9.9394,-9.9796,-9.9834,-9.991,-9.9948,-10.0213,-10.1009,-10.1199,-10.1388,-10.2108,-10.2411,-10.2184,-10.1502,-10.1995,-10.2715,-10.3473,-10.37,-10.4003,-10.4686,-10.3598,-10.2679,-10.2497,-10.1307,-10.0406,-10.0318,-10.0187,-10.0223,-10.0275,-10.0296,-10.0324,-10.0324,-10.1121,-10.1592,-10.17,-10.3004,-10.3692,-10.3801,-10.4525,-10.5322,-10.6119,-10.7712,-10.8871,-10.9596,-10.9668,-10.9306,0.0,0.0,0.0,0.0,0.0,0.0,0.0,-6.9511,-7.1694,0.0,-7.4923,-7.6886,-7.7143,-7.8396,-7.9431,-7.9431,-8.0514,-8.19,-8.352,-8.4859,-8.5728,-8.5873,-8.5909,-8.5909,-8.5909,-8.6452,-8.6923,-8.7213,-8.8444,-8.9857,-9.1487,-9.2501,-9.3298,-9.395,-9.4891,-9.5,-9.4239,-9.3406,-9.261,-9.1813,-9.098,-9.0581,-9.0581,-9.0581,-9.0581,-9.0581,-9.0581,-9.0581,-9.0581,-9.0581,-9.1088,-9.1849,-9.2501,-9.3194,-9.4,-9.4774,-9.4876,-9.4604,-9.4917,-9.483,-9.4625,-9.4767,-9.5283,-9.6036,-9.7014,-9.7821,-9.8599,-9.9542,-9.9796,-9.9948,-10.0706,-10.082,-10.1085,-10.1881,-10.2108,-10.2108,-10.2298,-10.2904,-10.3283,-10.3094,-10.3207,-10.3397,-10.3586,-10.4079,-10.461,-10.4799,-10.4483,-10.3897,-10.2716,-10.2204,-10.1823,-10.1222,-10.0578,-10.0413,-10.0985,-10.1124,-10.1193,-10.1193,-10.1918,-10.2606,-10.3221,-10.3511,-10.4018,-10.4706,-10.4815,-10.5322,-10.6119,-10.7712,-10.8582,-10.869,-10.9378,-10.9596,0.0,0.0,0.0,-6.3941,0.0,0.0,0.0,0.0,-7.006,-7.1906,-7.3964,-7.5606,-7.6084,-7.7849,-7.9112,-7.8703,-8.0174,-8.1677,-8.2513,-8.3842,-8.4859,-8.5257,-8.5656,-8.5909,-8.5909,-8.6235,-8.6597,-8.6996,-8.8481,-8.9929,-9.1125,-9.2356,-9.337,-9.4167,-9.4964,-9.5217,-9.4783,-9.3587,-9.2827,-9.2392,-9.1197,-9.0581,-9.0581,-9.0581,-9.0581,-9.0581,-9.0581,-9.0581,-9.0581,-9.0581,-9.1291,-9.241,-9.2772,-9.3188,-9.3639,-9.476,-9.483,-9.4466,-9.4783,-9.4859,-9.4869,-9.5324,-9.6006,-9.6878,-9.7712,-9.8545,-9.9266,-9.9683,-10.0099,-10.0516,-10.1009,-10.1388,-10.1881,-10.2715,-10.2904,-10.3094,-10.3511,-10.389,-10.4193,-10.4193,-10.4193,-10.4193,-10.4193,-10.4496,-10.4799,-10.4799,-10.45,-10.3998,-10.3204,-10.2712,-10.2315,-10.1903,-10.1226,-10.1075,-10.182,-10.161,-10.1592,-10.199,-10.2678,-10.3294,-10.3692,-10.4091,-10.4489,-10.4924,-10.4924,-10.5105,-10.5503,-10.6698,-10.7712,-10.8473,-10.9306,-10.9704,0.0,0.0,0.0,0.0,0.0,-6.4441,0.0,0.0,0.0,0.0,0.0,0.0,0.0,0.0,0.0,0.0,0.0,0.0,0.0,-8.227,0.0,-8.4534,-8.5263,-8.5731,-8.5881,-8.5915,-8.6237,-8.6959,-8.823,-8.9462,-9.0545,-9.1994,-9.3225,-9.4167,-9.4964,-9.5398,-9.5398,-9.366,-9.2863,-9.2972,-9.1197,-9.0436,-9.0581,-9.0581,-9.0581,-9.0581,-9.0581,-9.0581,-9.0581,-9.074,-9.1534,-9.2684,-9.2831,-9.3051,-9.3444,-9.4572,-9.457,-9.4095,-9.4599,-9.4793,-9.4945,-9.5816,-9.6764,-9.7712,-9.8583,-9.9266,-9.9834,-9.9986,-10.0592,-10.1199,-10.1502,-10.2108,-10.279,-10.3586,-10.3814,-10.4003,-10.4686,-10.4799,-10.4799,-10.4799,-10.4799,-10.4799,-10.4799,-10.4799,-10.4799,-10.4799,-10.4313,-10.3909,-10.3706,-10.3098,-10.2789,-10.29,-10.2085,-10.1901,-10.2871,-10.2279,-10.2099,-10.2787,-10.3511,-10.391,-10.391,-10.4598,-10.4924,-10.4924,-10.4924,-10.4924,-10.4924,-10.572,-10.6807,-10.8075,-10.8908,-10.9197,0.0,0.0,0.0,0.0,-6.4244,-6.4833,0.0,0.0,-6.6843,-6.8716,0.0,0.0,0.0,0.0,0.0,0.0,0.0,0.0,-7.8254,-8.0386,-8.2601,-8.4235,-8.4659,-8.5082,-8.5749,-8.5954,-8.6315,-8.6959,-8.733,-8.842,-9.0473,-9.1451,-9.2646,-9.4167,-9.4964,-9.5398,-9.5398,-9.308,-9.2284,-9.2972,-9.0654,-8.9893,-9.0581,-9.0581,-9.0581,-9.0581,-9.0581,-9.0581,-9.0661,-9.1285,-9.1694,-9.1913,-9.2611,-9.3652,-9.4796,-9.4947,-9.4867,-9.4715,-9.4767,-9.4793,-9.4945,-9.5816,-9.7181,-9.8621,-9.9417,-9.972,-9.9948,-10.0706,-10.1009,-10.1388,-10.2904,-10.3397,-10.37,-10.4496,-10.4686,-10.4686,-10.4799,-10.4799,-10.4799,-10.4799,-10.4799,-10.4799,-10.4799,-10.4799,-10.4799,-10.4799,-10.4704,-10.4395,-10.3808,-10.3608,-10.3801,-10.4588,-10.3315,-10.2988,-10.4503,-10.3906,-10.3511,-10.3584,-10.4308,-10.4815,-10.4815,-10.4887,-10.4924,-10.4924,-10.4924,-10.4924,-10.4924,-10.572,-10.6227,-10.6409,-10.7205,-10.7604,0.0,0.0,0.0,0.0,0.0,0.0,-6.502,0.0,-6.6442,0.0,0.0,0.0,0.0,0.0,0.0,0.0,-7.7258,0.0,0.0,0.0,-8.1677,0.0,0.0,0.0,-8.6421,-8.7031,-8.7084,-8.6418,-8.818,-8.9458,-8.986,-9.1559,-9.3044,-9.4167,-9.4964,-9.5398,-9.5398,-9.3913,-9.3153,-9.2972,-9.1487,-9.0726,-9.0581,-9.0581,-9.0581,-9.0581,-9.0581,-9.0822,-9.1247,-9.1583,-9.2155,-9.2965,-9.33,-9.38,-9.4353,-9.4735,-9.4848,-9.4793,-9.4793,-9.5134,-9.5779,-9.7143,-9.8356,-9.9379,-9.972,-9.9796,-9.9986,-10.0895,-10.1388,-10.2108,-10.3283,-10.389,-10.4382,-10.4686,-10.4799,-10.4799,-10.4799,-10.4799,-10.4799,-10.4799,-10.4799,-10.4799,-10.4799,-10.4799,-10.4799,-10.4799,-10.4799,-10.4903,-10.509,-10.5098,-10.54,-10.6193,-10.4903,-10.4387,-10.5507,-10.4387,-10.391,-10.4417,-10.4706,-10.4924,-10.4924,-10.4924,-10.4924,-10.4924,-10.4924,-10.4924,-10.4924,-10.5213,-10.5394,-10.5394,-10.6698,-10.7314,-6.9051,0.0,0.0,0.0,0.0,0.0,0.0,0.0,0.0,0.0,0.0,0.0,0.0,0.0,0.0,0.0,0.0,0.0,0.0,0.0,0.0,0.0,0.0,0.0,0.0,0.0,-8.7593,-8.6611,0.0,-8.9896,-8.9428,-9.1487,-9.3044,-9.3877,-9.4855,-9.5398,-9.5398,-9.4384,-9.3587,-9.3008,-9.1958,-9.1161,-9.0581,-9.0581,-9.0581,-9.0581,-9.0581,-9.1016,-9.1693,-9.191,-9.2732,-9.3827,-9.4001,-9.4057,-9.4152,-9.4625,-9.4793,-9.4831,-9.5058,-9.5854,-9.6991,-9.8204,-9.9152,-9.9796,-9.9796,-9.9986,-10.0289,-10.1199,-10.1995,-10.2904,-10.37,-10.4382,-10.4799,-10.4799,-10.4799,-10.4799,-10.4799,-10.4799,-10.4875,-10.5103,-10.4989,-10.4875,-10.5103,-10.4989,-10.4799,-10.4799,-10.4989,-10.5406,-10.5974,-10.6277,-10.6694,-10.7604,-10.6419,-10.5804,-10.6399,-10.5191,-10.4473,-10.4887,-10.4924,-10.4924,-10.4924,-10.4924,-10.4924,-10.4924,-10.4924,-10.4924,-10.4924,-10.4924,-10.4924,-10.4924,-10.6119,-10.6626,0.0,0.0,0.0,-7.0764,0.0,0.0,0.0,0.0,-6.8982,0.0,0.0,0.0,0.0,0.0,0.0,0.0,0.0,0.0,0.0,0.0,0.0,0.0,0.0,0.0,0.0,0.0,0.0,0.0,0.0,0.0,-8.9392,-9.0943,-9.2211,-9.3008,-9.4565,-9.5398,-9.5398,-9.3841,-9.3044,-9.2972,-9.1414,-9.0618,-9.0581,-9.0581,-9.0581,-9.0581,-9.0581,-9.1016,-9.173,-9.2394,-9.3114,-9.3856,-9.4519,-9.4767,-9.4767,-9.4793,-9.4793,-9.4907,-9.5779,-9.7143,-9.8545,-9.8583,-9.9152,-9.9796,-9.9796,-10.0403,-10.1199,-10.1995,-10.2904,-10.37,-10.4572,-10.4799,-10.4799,-10.4799,-10.4799,-10.4799,-10.4799,-10.4799,-10.4989,-10.5898,-10.5406,-10.5103,-10.5898,-10.5406,-10.4799,-10.4799,-10.5482,-10.6117,-10.6088,-10.6808,-10.7604,-10.8514,-10.7785,-10.7273,-10.7404,-10.6615,-10.5764,-10.497,-10.4924,-10.4924,-10.4924,-10.4924,-10.4924,-10.4924,-10.4924,-10.4924,-10.4924,-10.4924,-10.4924,-10.4924,-10.4996,-10.4996,0.0,0.0,-7.3401,-7.3004,0.0,0.0,0.0,0.0,0.0,0.0,0.0,0.0,0.0,0.0,0.0,0.0,0.0,0.0,0.0,0.0,0.0,0.0,0.0,0.0,0.0,0.0,0.0,0.0,0.0,0.0,0.0,-9.0654,-9.1921,-9.2211,-9.3768,-9.4602,-9.4602,-9.4602,-9.4058,-9.3008,-9.2465,-9.1632,-9.0581,-9.0581,-9.0581,-9.0621,-9.1132,-9.1693,-9.2428,-9.3114,-9.3856,-9.4492,-9.4715,-9.4793,-9.4793,-9.4793,-9.4793,-9.4983,-9.6423,-9.7636,-9.8697,-9.9228,-9.9569,-9.9796,-9.9796,-10.0403,-10.1312,-10.2108,-10.2904,-10.3776,-10.461,-10.4799,-10.4799,-10.4799,-10.4799,-10.4799,-10.4799,-10.4799,-10.4875,-10.5178,-10.4989,-10.4875,-10.5178,-10.5482,-10.5671,-10.5671,-10.5898,-10.6505,-10.7604,-10.8021,-10.8514,-10.931,-10.8721,-10.7982,-10.7404,-10.6077,-10.5217,-10.4887,-10.4924,-10.4924,-10.4924,-10.4924,-10.4924,-10.4924,-10.4924,-10.4924,-10.4924,-10.4924,-10.4924,-10.4924,-10.4924,-10.4924,-7.5948,-7.6044,0.0,-7.5722,-7.5209,0.0,-7.3591,0.0,-7.3779,0.0,0.0,0.0,0.0,0.0,0.0,0.0,0.0,0.0,0.0,0.0,0.0,0.0,0.0,0.0,0.0,0.0,0.0,0.0,0.0,0.0,0.0,0.0,-9.1487,-9.1813,-9.337,-9.4203,-9.4203,-9.5,-9.4602,-9.3008,-9.3008,-9.2175,-9.0581,-9.0581,-9.074,-9.1016,-9.1509,-9.2225,-9.3146,-9.3582,-9.4208,-9.4793,-9.4793,-9.4793,-9.4793,-9.4793,-9.5172,-9.5892,-9.7295,-9.8318,-9.9114,-9.9645,-9.9796,-9.9872,-10.0213,-10.0895,-10.1616,-10.1805,-10.2904,-10.4003,-10.389,-10.4382,-10.4799,-10.4799,-10.4799,-10.4799,-10.4799,-10.4799,-10.4875,-10.5178,-10.4989,-10.4989,-10.5595,-10.5898,-10.6088,-10.6088,-10.6581,-10.7415,-10.8514,-10.8817,-10.9196,-10.9727,-10.9321,-10.8592,-10.7478,-10.6119,-10.5217,-10.4887,-10.4924,-10.4924,-10.4924,-10.4924,-10.4924,-10.4924,-10.4924,-10.4924,-10.4924,-10.4924,-10.4924,-10.4924,-10.4924,-10.4924]},{"header":{"parameterUnit":"m.s-1","parameterCategory":1,"la1":30.6,"la2":29.2853,"lo1":-89.7004,"lo2":-87.6739,"dx":0.0162,"dy":0.0183,"nx":112,"ny":82,"refTime":"2022-12-27T06:00:00:Z","depth":0,"parameterNumber":3,"parameterNumberName":"V-component_of_WINDS"},"data":[0.0,0.0,0.0,0.0,0.0,0.0,0.0,0.0,0.0,0.0,0.0,0.0,0.0,0.0,0.0,0.0,0.0,0.0,0.0,0.0,0.0,0.0,0.0,0.0,0.0,0.0,0.0,0.0,0.0,0.0,0.0,0.0,0.0,0.0,0.0,0.0,0.0,0.0,0.0,0.0,0.0,0.0,0.0,0.0,0.0,0.0,0.0,0.0,0.0,0.0,0.0,0.0,0.0,0.0,0.0,0.0,0.0,0.0,0.0,0.0,0.0,0.0,0.0,0.0,0.0,0.0,0.0,0.0,0.0,0.0,0.0,0.0,0.0,0.0,0.0,0.0,0.0,0.0,0.0,0.0,0.0,0.0,0.0,0.0,0.0,0.0,0.0,0.0,0.0,0.0,4.4722,4.5296,4.6211,4.7736,5.0068,5.0298,4.9262,4.668,0.0,0.0,0.0,0.0,0.0,0.0,0.0,0.0,0.0,0.0,0.0,0.0,0.0,0.0,0.0,0.0,0.0,0.0,0.0,0.0,0.0,0.0,0.0,0.0,0.0,0.0,0.0,0.0,0.0,0.0,0.0,0.0,0.0,0.0,0.0,0.0,0.0,0.0,0.0,0.0,0.0,0.0,0.0,0.0,0.0,0.0,0.0,0.0,0.0,0.0,0.0,0.0,0.0,0.0,0.0,0.0,0.0,0.0,0.0,0.0,0.0,0.0,0.0,0.0,0.0,0.0,0.0,0.0,0.0,0.0,0.0,0.0,0.0,0.0,0.0,0.0,0.0,0.0,0.0,0.0,0.0,0.0,0.0,0.0,0.0,0.0,0.0,0.0,0.0,0.0,0.0,0.0,0.0,0.0,0.0,0.0,0.0,0.0,0.0,0.0,0.0,0.0,0.0,0.0,4.6266,4.9345,5.0223,5.1104,5.2347,5.2435,5.1319,4.8827,0.0,0.0,0.0,0.0,0.0,0.0,0.0,0.0,0.0,0.0,0.0,0.0,0.0,0.0,0.0,0.0,0.0,0.0,0.0,0.0,0.0,0.0,0.0,0.0,0.0,0.0,0.0,0.0,0.0,0.0,0.0,0.0,0.0,0.0,0.0,0.0,0.0,0.0,0.0,0.0,0.0,0.0,0.0,0.0,0.0,0.0,0.0,0.0,0.0,0.0,0.0,0.0,0.0,0.0,0.0,0.0,0.0,0.0,0.0,0.0,0.0,0.0,0.0,0.0,0.0,0.0,0.0,0.0,0.0,0.0,0.0,0.0,0.0,0.0,0.0,0.0,0.0,0.0,0.0,0.0,0.0,0.0,0.0,0.0,0.0,0.0,0.0,0.0,0.0,0.0,0.0,0.0,0.0,0.0,0.0,0.0,0.0,0.0,0.0,0.0,0.0,0.0,0.0,4.5918,4.8565,5.1153,5.1393,5.2158,5.4069,5.3708,5.2233,4.9655,4.7814,0.0,0.0,0.0,0.0,0.0,0.0,0.0,0.0,0.0,0.0,0.0,0.0,0.0,0.0,0.0,0.0,0.0,0.0,0.0,0.0,0.0,0.0,0.0,0.0,0.0,0.0,0.0,0.0,0.0,0.0,0.0,0.0,0.0,0.0,0.0,0.0,0.0,0.0,0.0,0.0,0.0,0.0,0.0,0.0,0.0,0.0,0.0,0.0,0.0,0.0,0.0,0.0,0.0,0.0,0.0,0.0,0.0,0.0,0.0,0.0,0.0,0.0,0.0,0.0,0.0,0.0,0.0,0.0,0.0,0.0,0.0,0.0,0.0,0.0,0.0,0.0,0.0,0.0,0.0,0.0,0.0,0.0,0.0,0.0,0.0,0.0,0.0,0.0,0.0,0.0,0.0,0.0,0.0,0.0,0.0,0.0,0.0,0.0,0.0,0.0,0.0,0.0,4.8863,5.1071,5.2427,5.2113,5.2735,5.4842,5.4084,5.2546,5.0332,4.8966,0.0,0.0,0.0,0.0,0.0,0.0,0.0,0.0,0.0,0.0,0.0,0.0,0.0,0.0,0.0,0.0,0.0,0.0,0.0,0.0,0.0,0.0,0.0,0.0,0.0,0.0,0.0,0.0,0.0,0.0,0.0,0.0,0.0,0.0,0.0,0.0,0.0,0.0,0.0,0.0,0.0,0.0,0.0,0.0,0.0,0.0,0.0,0.0,0.0,0.0,0.0,0.0,0.0,0.0,0.0,0.0,0.0,0.0,0.0,0.0,0.0,0.0,0.0,0.0,0.0,0.0,0.0,0.0,0.0,0.0,0.0,0.0,0.0,0.0,0.0,0.0,0.0,0.0,0.0,0.0,0.0,0.0,0.0,0.0,0.0,0.0,0.0,0.0,0.0,0.0,0.0,0.0,0.0,0.0,0.0,0.0,0.0,0.0,0.0,0.0,0.0,0.0,5.0974,5.3493,5.3593,5.3568,5.3593,5.3808,5.3306,5.2434,5.1264,4.8991,0.0,0.0,0.0,0.0,0.0,0.0,0.0,0.0,0.0,0.0,0.0,0.0,0.0,0.0,0.0,0.0,0.0,0.0,0.0,0.0,0.0,0.0,0.0,0.0,0.0,0.0,0.0,0.0,0.0,0.0,0.0,0.0,0.0,0.0,0.0,0.0,0.0,0.0,0.0,0.0,0.0,0.0,0.0,0.0,0.0,0.0,0.0,0.0,0.0,0.0,0.0,0.0,0.0,0.0,0.0,0.0,0.0,0.0,0.0,0.0,0.0,0.0,0.0,0.0,0.0,0.0,0.0,0.0,0.0,0.0,0.0,0.0,0.0,0.0,0.0,0.0,0.0,0.0,0.0,0.0,0.0,0.0,0.0,0.0,0.0,0.0,0.0,0.0,0.0,0.0,0.0,0.0,0.0,0.0,0.0,0.0,0.0,0.0,0.0,0.0,0.0,0.0,5.0592,5.3231,5.4612,5.411,5.4135,5.5164,5.4461,5.3331,5.1875,0.0,0.0,0.0,0.0,0.0,0.0,0.0,0.0,0.0,0.0,0.0,0.0,0.0,0.0,0.0,0.0,0.0,0.0,0.0,0.0,0.0,0.0,0.0,0.0,0.0,0.0,0.0,0.0,0.0,0.0,0.0,0.0,0.0,0.0,0.0,0.0,0.0,0.0,0.0,0.0,0.0,0.0,0.0,0.0,0.0,0.0,0.0,0.0,0.0,0.0,0.0,0.0,0.0,0.0,0.0,0.0,0.0,0.0,0.0,0.0,0.0,0.0,0.0,0.0,0.0,0.0,0.0,0.0,0.0,0.0,0.0,0.0,0.0,0.0,0.0,0.0,0.0,0.0,0.0,0.0,0.0,0.0,0.0,0.0,0.0,0.0,0.0,0.0,0.0,0.0,0.0,0.0,0.0,0.0,0.0,0.0,0.0,0.0,0.0,0.0,0.0,0.0,4.7257,5.0369,5.308,5.4938,5.426,5.4235,5.5566,5.4838,5.3582,5.195,0.0,0.0,0.0,0.0,0.0,0.0,0.0,0.0,0.0,0.0,0.0,0.0,0.0,0.0,0.0,0.0,0.0,0.0,0.0,0.0,0.0,0.0,0.0,0.0,0.0,0.0,0.0,0.0,0.0,0.0,0.0,0.0,0.0,0.0,0.0,0.0,0.0,0.0,0.0,0.0,0.0,0.0,0.0,0.0,0.0,0.0,0.0,0.0,0.0,0.0,0.0,0.0,0.0,0.0,0.0,0.0,0.0,0.0,0.0,0.0,0.0,0.0,0.0,0.0,0.0,0.0,0.0,0.0,0.0,0.0,0.0,0.0,0.0,0.0,0.0,0.0,0.0,0.0,0.0,0.0,0.0,0.0,0.0,0.0,0.0,0.0,0.0,0.0,0.0,0.0,0.0,0.0,0.0,0.0,0.0,0.0,0.0,0.0,0.0,0.0,0.0,0.0,4.7305,5.0715,5.3356,5.4436,5.4059,5.3959,5.4607,5.4059,5.303,0.0,0.0,0.0,0.0,0.0,0.0,0.0,0.0,0.0,0.0,0.0,0.0,0.0,0.0,0.0,0.0,0.0,0.0,0.0,0.0,0.0,0.0,0.0,0.0,0.0,0.0,0.0,0.0,0.0,0.0,0.0,0.0,0.0,0.0,0.0,0.0,0.0,0.0,0.0,0.0,0.0,0.0,0.0,0.0,0.0,0.0,0.0,0.0,0.0,0.0,0.0,0.0,0.0,0.0,0.0,0.0,0.0,0.0,0.0,0.0,0.0,0.0,0.0,0.0,0.0,0.0,0.0,0.0,0.0,0.0,0.0,0.0,0.0,0.0,0.0,0.0,0.0,0.0,0.0,0.0,0.0,0.0,0.0,0.0,0.0,0.0,0.0,0.0,0.0,0.0,0.0,0.0,0.0,0.0,0.0,0.0,0.0,0.0,0.0,0.0,0.0,0.0,0.0,4.8624,5.158,5.3758,5.4486,5.4762,5.4963,5.5139,5.4637,5.3783,5.2528,0.0,0.0,0.0,0.0,0.0,0.0,0.0,0.0,0.0,0.0,0.0,0.0,0.0,0.0,0.0,0.0,0.0,0.0,0.0,0.0,0.0,0.0,0.0,0.0,0.0,0.0,0.0,0.0,0.0,0.0,0.0,0.0,0.0,0.0,0.0,0.0,0.0,0.0,0.0,0.0,0.0,0.0,0.0,0.0,0.0,0.0,0.0,0.0,0.0,0.0,0.0,0.0,0.0,0.0,0.0,0.0,0.0,0.0,0.0,0.0,0.0,0.0,0.0,0.0,0.0,0.0,0.0,0.0,0.0,0.0,0.0,0.0,0.0,0.0,0.0,0.0,0.0,0.0,0.0,0.0,0.0,0.0,0.0,0.0,0.0,0.0,0.0,0.0,0.0,0.0,0.0,0.0,0.0,0.0,0.0,0.0,0.0,0.0,0.0,0.0,0.0,0.0,4.9257,5.2,5.3934,5.4511,5.5064,5.539,5.539,5.5089,5.4336,5.3005,0.0,0.0,0.0,0.0,0.0,0.0,0.0,0.0,0.0,0.0,0.0,0.0,0.0,0.0,0.0,0.0,0.0,0.0,0.0,0.0,0.0,0.0,0.0,0.0,0.0,0.0,0.0,0.0,0.0,0.0,0.0,0.0,0.0,0.0,0.0,0.0,0.0,0.0,0.0,0.0,0.0,0.0,0.0,0.0,0.0,0.0,0.0,0.0,0.0,0.0,0.0,0.0,0.0,0.0,0.0,0.0,0.0,0.0,0.0,0.0,0.0,0.0,0.0,0.0,0.0,0.0,0.0,0.0,0.0,0.0,0.0,0.0,0.0,0.0,0.0,0.0,0.0,0.0,0.0,0.0,0.0,0.0,0.0,0.0,0.0,0.0,0.0,0.0,0.0,0.0,0.0,0.0,0.0,0.0,0.0,0.0,0.0,0.0,0.0,0.0,0.0,0.0,4.9461,5.2076,5.4009,5.4662,5.5214,5.5541,5.5541,5.5491,5.4813,5.3256,0.0,0.0,0.0,0.0,0.0,0.0,0.0,0.0,0.0,0.0,0.0,0.0,0.0,0.0,0.0,0.0,0.0,0.0,0.0,0.0,0.0,0.0,0.0,0.0,0.0,0.0,0.0,0.0,0.0,0.0,0.0,0.0,0.0,0.0,0.0,0.0,0.0,0.0,0.0,0.0,0.0,0.0,0.0,0.0,0.0,0.0,0.0,0.0,0.0,0.0,0.0,0.0,0.0,0.0,0.0,0.0,0.0,0.0,0.0,0.0,4.3605,4.3011,0.0,0.0,0.0,0.0,0.0,0.0,0.0,0.0,0.0,0.0,0.0,0.0,0.0,0.0,0.0,0.0,0.0,0.0,0.0,0.0,0.0,0.0,0.0,0.0,0.0,0.0,0.0,0.0,0.0,0.0,0.0,0.0,0.0,0.0,0.0,0.0,0.0,0.0,0.0,0.0,5.0022,5.2653,5.4762,5.5767,5.6344,5.6671,5.6671,5.6294,5.5691,5.4913,5.3909,0.0,0.0,0.0,0.0,0.0,0.0,0.0,0.0,0.0,0.0,0.0,0.0,0.0,0.0,0.0,0.0,0.0,0.0,0.0,0.0,0.0,0.0,0.0,0.0,0.0,0.0,0.0,0.0,0.0,0.0,0.0,0.0,0.0,0.0,0.0,0.0,0.0,0.0,0.0,0.0,0.0,0.0,0.0,0.0,0.0,0.0,0.0,0.0,0.0,0.0,0.0,0.0,0.0,0.0,0.0,0.0,0.0,0.0,0.0,4.5833,4.5002,0.0,0.0,0.0,0.0,0.0,0.0,0.0,0.0,0.0,0.0,0.0,0.0,0.0,0.0,0.0,0.0,0.0,0.0,0.0,0.0,0.0,0.0,0.0,0.0,0.0,0.0,0.0,0.0,0.0,0.0,0.0,0.0,0.0,0.0,0.0,0.0,0.0,0.0,0.0,0.0,5.0729,5.3256,5.529,5.6118,5.6947,5.7349,5.6973,5.6771,5.6269,5.544,5.5089,0.0,0.0,0.0,0.0,0.0,0.0,0.0,0.0,0.0,0.0,0.0,0.0,0.0,0.0,0.0,0.0,0.0,0.0,0.0,0.0,0.0,0.0,0.0,0.0,0.0,0.0,0.0,0.0,0.0,0.0,0.0,0.0,0.0,0.0,0.0,0.0,0.0,0.0,0.0,0.0,0.0,0.0,0.0,0.0,0.0,0.0,0.0,0.0,0.0,0.0,0.0,0.0,0.0,4.625,4.6928,4.7054,4.8033,4.9063,4.9916,4.7908,4.7029,4.6954,4.6024,0.0,0.0,0.0,0.0,0.0,0.0,0.0,0.0,0.0,0.0,0.0,0.0,0.0,0.0,0.0,0.0,0.0,0.0,0.0,0.0,0.0,0.0,4.7897,4.7669,4.847,4.8802,4.6839,0.0,0.0,0.0,0.0,0.0,0.0,0.0,0.0,0.0,0.0,0.0,5.1498,5.3808,5.5666,5.642,5.7349,5.775,5.7374,5.7323,5.6846,5.5742,5.6093,5.5641,0.0,0.0,0.0,0.0,0.0,0.0,0.0,0.0,0.0,0.0,0.0,0.0,0.0,0.0,0.0,0.0,0.0,0.0,0.0,0.0,0.0,0.0,0.0,0.0,0.0,0.0,0.0,0.0,0.0,0.0,0.0,0.0,4.3907,4.5027,0.0,0.0,0.0,0.0,0.0,0.0,0.0,0.0,0.0,0.0,0.0,0.0,0.0,4.5799,4.5506,4.5754,4.5895,4.6125,4.8184,4.9414,4.9891,5.0544,5.1172,5.1699,5.0419,0.0,4.9866,4.9715,0.0,0.0,0.0,0.0,0.0,0.0,0.0,0.0,0.0,0.0,0.0,0.0,0.0,0.0,0.0,0.0,0.0,0.0,0.0,0.0,0.0,0.0,5.1979,5.1505,5.2204,5.2928,5.2571,4.8444,4.505,4.5954,4.5806,4.5619,0.0,0.0,0.0,0.0,0.0,0.0,5.2703,5.4285,5.5968,5.7499,5.7801,5.8052,5.8453,5.8504,5.8027,5.6897,5.6897,5.6394,5.5214,5.4787,0.0,0.0,0.0,0.0,0.0,0.0,0.0,0.0,0.0,0.0,0.0,0.0,0.0,0.0,0.0,0.0,0.0,0.0,0.0,0.0,0.0,0.0,0.0,0.0,0.0,0.0,0.0,0.0,0.0,4.3702,4.6028,4.6316,4.5942,4.579,0.0,0.0,0.0,0.0,0.0,0.0,0.0,0.0,0.0,4.9415,4.8368,4.8139,4.8875,4.8685,4.8786,4.9113,5.072,5.1749,5.2277,5.2854,5.3256,5.3457,5.2628,5.2251,5.2101,4.9916,4.841,4.7506,0.0,0.0,0.0,0.0,4.8284,4.841,4.9289,4.9791,4.9967,4.9414,0.0,0.0,0.0,0.0,0.0,0.0,0.0,4.9364,5.0228,5.1494,5.2477,5.2553,5.3155,5.3708,5.3708,5.1635,4.9748,4.9724,4.9043,4.8471,4.8484,4.964,0.0,0.0,0.0,5.3582,5.4235,5.5214,5.6495,5.8177,5.8353,5.8453,5.8704,5.873,5.8378,5.7575,5.7826,5.7474,5.6369,5.6068,5.5013,0.0,0.0,0.0,0.0,0.0,0.0,0.0,0.0,0.0,0.0,0.0,0.0,0.0,0.0,0.0,0.0,0.0,0.0,0.0,0.0,0.0,0.0,0.0,0.0,0.0,0.0,0.0,0.0,4.5632,4.7754,4.7713,4.7853,4.7858,0.0,0.0,0.0,0.0,0.0,0.0,5.0602,5.0463,5.0951,5.1999,5.0597,5.039,5.16,5.1144,5.1071,5.1498,5.2603,5.3331,5.3708,5.4285,5.4486,5.431,5.3758,5.3432,5.308,5.0318,4.8786,4.8209,4.836,4.8234,4.8058,4.8736,4.8987,4.9113,5.0117,5.072,5.0996,5.0569,5.072,5.0622,4.8322,0.0,0.0,0.0,0.0,5.0745,5.2151,5.2427,5.2477,5.3181,5.3758,5.416,5.431,5.4336,5.3984,5.2754,5.1724,5.087,5.0318,5.1172,0.0,5.1724,5.3206,5.4612,5.529,5.6118,5.7123,5.8378,5.8629,5.878,5.8905,5.8905,5.8679,5.8152,5.8504,5.8227,5.7072,5.7022,5.6118,5.416,0.0,0.0,0.0,0.0,0.0,0.0,0.0,0.0,0.0,0.0,0.0,0.0,0.0,0.0,0.0,0.0,0.0,0.0,0.0,0.0,0.0,0.0,0.0,0.0,0.0,0.0,0.0,0.0,0.0,4.9759,5.0543,0.0,0.0,0.0,0.0,5.0019,5.1071,5.2263,5.3529,5.3865,5.4283,5.4886,5.3647,5.2658,5.211,5.2,5.2026,5.2076,5.3155,5.3683,5.3708,5.4285,5.426,5.3708,5.3181,5.2678,5.2201,5.2528,5.2051,5.1122,5.1649,5.1197,5.0393,5.1498,5.19,5.1975,5.2553,5.2779,5.2804,5.2779,5.1724,5.0444,5.0278,4.911,0.0,0.0,5.0353,5.0921,5.3055,5.3256,5.3155,5.4235,5.4888,5.544,5.5968,5.6093,5.5591,5.3934,5.3181,5.2628,5.2076,0.0,5.3406,5.2929,5.4687,5.5917,5.544,5.6796,5.7851,5.7926,5.8403,5.893,5.9408,5.9458,5.9232,5.8704,5.8704,5.8227,5.7072,5.7022,5.6495,5.534,5.421,0.0,0.0,0.0,0.0,0.0,0.0,0.0,0.0,0.0,0.0,0.0,0.0,0.0,0.0,0.0,0.0,0.0,0.0,0.0,0.0,0.0,0.0,0.0,0.0,0.0,0.0,0.0,0.0,5.1119,5.1216,0.0,5.1673,5.1449,5.2257,5.4611,5.5505,5.6536,5.7829,5.6372,5.5436,5.5247,5.3075,5.188,5.1574,5.1925,5.2277,5.2628,5.3356,5.3909,5.426,5.4461,5.4461,5.4235,5.3658,5.3306,5.313,5.298,5.2277,5.1297,5.1498,5.1322,5.1021,5.1423,5.1574,5.1649,5.2201,5.2402,5.2452,5.2804,5.2528,5.2026,5.2026,5.1624,5.1272,5.1875,5.2026,5.2277,5.3406,5.3557,5.3607,5.4386,5.5265,5.5968,5.6168,5.6796,5.7123,5.652,5.539,5.4561,5.4712,5.5064,5.5265,5.5064,5.5717,5.642,5.6947,5.7198,5.775,5.8805,5.8805,5.893,5.9458,5.9483,5.9408,5.9232,5.9207,5.888,5.8152,5.8127,5.7424,5.5942,5.5867,5.4938,0.0,0.0,0.0,0.0,0.0,0.0,0.0,0.0,0.0,0.0,0.0,0.0,0.0,0.0,0.0,0.0,0.0,0.0,0.0,0.0,0.0,0.0,0.0,0.0,0.0,4.9404,5.1426,5.1471,5.2024,5.2568,5.2951,5.3343,5.4435,5.6528,5.7696,5.8332,5.8462,5.6976,5.579,5.4878,5.2873,5.1825,5.1825,5.2377,5.2829,5.3206,5.3733,5.4185,5.4561,5.4561,5.4461,5.426,5.3858,5.3607,5.3406,5.308,5.2603,5.2076,5.19,5.195,5.2101,5.2101,5.2101,5.2126,5.2327,5.2377,5.2452,5.2804,5.2804,5.2653,5.2653,5.2528,5.2402,5.2603,5.2779,5.308,5.3808,5.3984,5.4185,5.4938,5.5666,5.6269,5.6445,5.7223,5.7901,5.7901,5.6997,5.6344,5.6721,5.6771,5.6771,5.6771,5.6947,5.7273,5.7826,5.7876,5.8202,5.9131,5.9081,5.9131,5.9458,5.9659,5.9684,5.9508,5.9659,5.9458,5.8755,5.888,5.8278,5.6821,5.6771,5.5842,5.3984,0.0,0.0,0.0,0.0,0.0,0.0,0.0,0.0,0.0,0.0,0.0,0.0,0.0,0.0,0.0,0.0,0.0,0.0,0.0,0.0,0.0,0.0,0.0,4.8285,4.9616,5.0815,5.1038,5.3103,5.4297,5.364,5.5169,5.5977,5.532,5.7108,5.7322,5.5274,5.5718,5.543,5.4092,5.3309,5.2955,5.2955,5.3457,5.3683,5.3683,5.4235,5.4511,5.4511,5.4511,5.421,5.3683,5.3683,5.3406,5.2955,5.2955,5.3256,5.3683,5.3155,5.3256,5.3708,5.3708,5.3683,5.3607,5.3105,5.2929,5.2929,5.2929,5.2578,5.2126,5.2126,5.1774,5.1473,5.2,5.2553,5.3231,5.4285,5.4587,5.4863,5.5942,5.6219,5.6394,5.6922,5.7499,5.7901,5.7901,5.7901,5.7901,5.7926,5.7901,5.7901,5.7926,5.8353,0.0,5.8001,5.883,5.9282,5.8805,5.9207,5.9483,5.9483,5.9985,6.006,5.9533,6.001,5.9834,5.878,5.9232,5.9006,5.7951,5.6846,5.5767,5.4687,0.0,0.0,0.0,0.0,0.0,0.0,0.0,0.0,0.0,0.0,0.0,0.0,0.0,0.0,0.0,0.0,0.0,0.0,0.0,0.0,0.0,4.804,4.9939,5.1191,5.2587,5.3592,5.4073,5.4758,5.4772,5.3831,5.4223,5.457,5.4751,5.5263,5.5834,5.6458,5.5744,5.534,5.5334,5.4141,5.3482,5.3482,5.3632,5.3507,5.313,5.3306,5.3381,5.3381,5.3381,5.3281,5.313,5.313,5.3281,5.3482,5.3482,5.3808,5.426,5.3708,5.3582,5.3708,5.3708,5.3457,5.313,5.298,5.2929,5.2929,5.2929,5.2829,5.2703,5.2703,5.2854,5.3055,5.3231,5.3683,5.4185,5.4486,5.4863,5.5239,5.5541,5.6219,5.6846,5.6997,5.7499,5.7901,5.7901,5.7901,5.8027,5.8428,5.8152,5.8027,5.8428,5.7926,5.7725,5.8403,5.8755,5.9031,5.9257,5.9408,5.9483,5.9483,5.9633,5.9659,5.9508,5.9633,5.9583,5.9307,5.9408,5.9182,5.8504,5.8177,5.7876,0.0,0.0,0.0,0.0,0.0,0.0,0.0,0.0,0.0,0.0,0.0,0.0,0.0,0.0,0.0,0.0,0.0,0.0,0.0,0.0,0.0,0.0,4.8851,5.0628,5.2288,5.3075,5.3694,5.3975,5.424,5.4115,5.3531,5.3674,5.3869,5.3849,5.4537,5.5103,5.5415,5.5334,5.5351,5.5306,5.4524,5.3959,5.3708,5.3708,5.3432,5.2929,5.2929,5.2929,5.2929,5.2929,5.2929,5.2929,5.3155,5.3432,5.3708,5.3959,5.426,5.4511,0.0,0.0,0.0,0.0,5.3507,5.3231,5.3005,5.2929,5.2929,5.2929,5.308,5.3256,5.3256,5.3632,5.4059,5.4059,5.4461,5.4913,5.4913,5.5315,5.5742,5.5742,5.6219,5.6696,5.6696,5.6947,5.7198,5.7198,5.7575,0.0,5.8328,5.8303,5.8353,5.8679,5.8353,5.8303,5.8956,5.9056,5.9156,5.9458,5.9483,5.9483,5.9483,5.9709,0.0,0.0,0.0,5.9834,5.9834,5.9834,0.0,0.0,0.0,5.883,5.8378,5.8353,0.0,0.0,5.5852,5.6002,0.0,0.0,0.0,0.0,0.0,0.0,0.0,0.0,0.0,0.0,0.0,0.0,0.0,0.0,0.0,0.0,4.9912,5.1328,5.1955,5.1951,5.2002,5.2199,5.2751,5.3017,5.2951,5.341,5.3445,5.2742,5.4122,5.4473,5.3317,5.4653,0.0,0.0,0.0,5.431,5.3808,5.3733,5.3432,5.2929,5.2929,5.2929,5.2929,5.298,5.3005,5.3055,5.3582,5.3833,5.3934,5.4436,5.4612,5.4511,5.3934,5.4009,5.4411,5.3833,5.3607,5.3557,5.308,0.0,0.0,5.3005,5.3356,5.3808,5.3808,5.421,5.4662,5.4662,5.4967,5.5249,5.5418,5.5697,5.5974,5.6146,5.6219,5.6146,5.6049,5.6148,5.6246,5.6149,5.7049,5.7901,5.7901,5.8353,5.873,5.8805,5.9156,5.9433,5.9483,5.9483,5.9483,5.9483,5.9483,0.0,5.9483,5.996,6.0035,5.9608,6.0111,6.0412,6.0412,6.0362,6.0085,5.9583,5.9583,5.9156,5.8278,5.8328,5.7685,5.6382,5.7262,5.6983,0.0,0.0,0.0,0.0,0.0,0.0,0.0,0.0,0.0,0.0,0.0,0.0,0.0,0.0,0.0,4.8764,4.9531,5.0281,5.083,5.0561,5.0968,5.2629,5.334,5.3402,5.2516,5.2548,5.2278,5.1562,5.1816,5.24,5.3293,5.3607,5.4244,5.5332,5.4895,5.4511,5.4411,5.3934,5.3432,5.2929,5.2929,0.0,5.2929,5.3356,5.3557,5.3582,5.416,5.4637,5.5064,5.5189,5.4963,5.4511,5.3934,5.3758,5.3808,5.3281,5.308,5.3055,5.2955,5.3206,5.3557,5.3557,5.3934,5.4411,5.4411,5.4787,0.0,5.5239,5.4621,5.4351,5.5678,5.514,5.4497,5.5901,5.6219,5.5952,5.4983,5.5855,5.6551,5.5665,5.6795,5.7901,5.7901,5.8353,5.8855,5.9282,5.9081,5.9031,5.9433,5.9483,5.9483,5.9483,5.9483,5.9483,5.9483,5.9583,5.9809,6.0136,6.0688,6.1014,6.1014,6.0563,6.0261,6.0161,6.0161,6.0286,6.0537,6.0989,6.0583,5.9257,5.6927,5.5509,0.0,0.0,0.0,0.0,0.0,0.0,0.0,0.0,0.0,0.0,0.0,4.6104,4.7218,0.0,4.7719,4.854,4.9084,4.9658,5.0196,5.0274,5.0683,5.1699,5.2153,5.2094,5.1562,5.1492,5.1352,5.0954,5.158,5.245,5.3472,5.4373,5.5309,5.6327,5.5749,5.5265,5.4988,5.4135,5.3432,5.2929,5.2929,5.3055,5.3331,5.3582,5.3858,5.416,5.4737,5.5139,5.5365,5.5089,5.4813,5.4486,5.3632,5.3306,5.3281,5.303,5.2929,5.2955,5.3231,5.3482,5.3758,5.4034,5.4511,5.482,5.3979,5.469,5.5501,5.3811,5.3534,5.3876,5.4745,5.375,5.2968,5.4863,5.4687,5.3975,5.3552,5.4135,5.4616,5.4022,5.4907,5.5722,5.5722,5.6882,5.813,5.8952,5.9106,5.9207,5.9458,5.9483,5.9483,5.9483,5.9483,5.9483,5.9483,5.9483,5.9608,5.9885,6.0437,6.0738,6.0738,6.1014,6.104,6.0763,6.1014,6.1165,6.119,6.0534,5.9573,5.8277,5.5204,5.4161,0.0,0.0,0.0,0.0,0.0,0.0,0.0,4.4643,4.5062,4.771,4.7453,4.7036,4.7982,4.7213,4.694,4.8385,4.886,4.9253,4.9782,5.0335,5.0696,5.0696,5.0696,5.0696,5.0696,5.0696,5.0744,5.084,5.1994,5.2987,5.3738,5.5286,5.6424,5.7092,5.6402,5.5774,5.5324,5.4294,5.3518,5.3117,5.3187,5.3457,5.3884,5.3984,5.4285,5.4762,5.5315,5.5541,5.5491,5.4963,5.4662,5.4461,5.3457,5.308,5.308,5.308,5.308,5.3155,5.3683,5.3934,5.411,5.4587,5.4874,5.4791,5.3471,5.4082,5.467,5.206,5.2054,5.2963,5.3267,5.2193,5.1606,5.3572,5.3047,5.2091,5.2275,5.2548,5.2731,5.2502,5.3084,5.3681,5.3681,5.5155,5.6835,5.8136,5.9,5.9483,5.9483,5.9483,5.9483,5.9483,5.9483,5.9483,5.9483,5.9583,5.9659,5.9659,6.0186,6.0487,6.0487,6.1266,6.1466,6.1014,6.1341,6.1181,6.0512,5.8993,5.7432,5.5796,5.3565,5.306,3.2316,3.5024,3.9093,4.2729,4.4046,4.5451,0.0,4.8611,4.8087,5.0766,5.0525,4.9992,5.0682,4.9584,4.8877,4.9545,4.9309,4.9253,4.9782,5.0335,5.0696,5.0696,5.0696,5.0696,5.0696,5.0696,5.0912,5.1369,5.2019,5.2982,5.4427,5.4999,5.5838,5.6785,5.5701,5.509,5.5016,5.4295,5.3939,5.3889,5.4244,5.4411,5.4486,5.4963,5.5239,5.534,5.5892,5.6118,5.6068,5.5516,5.5013,5.4511,5.3858,5.3607,5.3607,5.3607,5.3607,5.3708,5.426,5.4787,5.5214,5.5265,5.4671,5.3878,5.3654,5.2774,5.1754,5.137,5.0703,5.033,5.1803,5.1277,5.0755,5.2377,5.2638,5.2298,5.1256,5.2322,5.3105,5.2,5.3101,5.4209,5.4209,5.4395,5.5147,5.6804,5.8476,5.9483,5.9483,5.9483,5.9483,5.9483,5.9483,5.9483,5.9483,5.996,6.0236,6.0236,6.0763,6.109,6.109,6.0713,6.0487,6.0412,5.9985,5.9255,5.8088,5.7847,5.6291,5.3532,5.3251,5.2519,3.7182,3.9453,4.1743,4.5283,4.6356,4.7118,4.9152,4.8526,4.8172,5.0478,4.975,4.8702,4.8931,4.8242,4.7841,4.8377,4.8802,4.9157,4.9373,5.0143,5.0576,5.0263,5.0503,5.0696,5.0696,5.1249,5.1706,5.1922,5.3293,5.4375,5.5025,5.6038,5.6683,5.6804,5.5944,5.536,5.4967,5.4104,5.3634,5.3634,5.4063,5.4381,5.4705,5.5218,5.5566,5.5867,5.5767,5.5917,5.6168,5.5616,5.5064,5.4536,5.4285,5.4009,5.3708,5.3708,5.3321,5.3003,5.4552,5.4365,5.3569,5.4206,5.3885,5.2944,5.1332,5.1062,5.0976,4.9249,4.9148,4.9687,5.0694,4.9865,4.9203,5.1161,5.09,5.0066,4.9912,5.0396,5.0795,5.0252,5.078,5.1263,5.1263,5.2077,5.3071,5.3788,5.6239,5.8031,5.8031,5.8837,5.9483,5.9483,5.9483,5.9483,5.9483,5.9709,5.9834,5.9834,6.0362,6.0688,6.0688,5.9786,5.933,5.933,5.8096,5.718,5.6737,5.5639,5.4412,5.3209,5.1831,5.0899,3.965,4.172,4.3004,4.6001,4.7189,4.7765,4.8367,4.7899,4.7759,4.9427,4.8396,4.7209,4.7358,4.6963,4.6968,4.781,4.8459,4.8827,4.8746,4.9765,5.003,4.8756,4.9534,5.0008,4.9576,5.108,5.2235,5.2668,5.4231,5.5313,5.5602,5.6607,5.7006,5.6673,5.5859,5.528,5.4889,5.4108,5.3716,5.3716,5.4078,5.4518,5.5036,5.5471,5.5842,5.6194,5.5792,5.5842,5.6168,5.5616,5.5139,5.4762,5.416,5.3722,5.3428,5.2976,5.2646,5.2525,5.3815,5.3227,5.2051,5.2811,5.2486,5.1443,4.9573,4.9491,4.9737,4.7706,4.8183,4.9312,4.9657,4.8879,4.8463,5.0034,4.947,4.8666,4.8997,4.9059,4.9059,4.9059,4.9059,4.9059,4.9059,5.0125,5.0948,5.0948,5.3542,5.5654,5.6159,5.7297,5.8266,5.8759,5.8759,5.8993,5.9483,5.9483,5.9483,5.9483,5.9391,5.9355,5.9355,5.808,5.738,5.738,5.6126,5.5214,5.4819,5.3473,5.2559,5.2046,5.0519,4.9763,3.6576,3.8985,4.1211,4.3529,4.5679,4.7393,4.7992,4.7649,4.7359,4.8069,4.7349,4.6762,4.7196,4.6963,4.7233,4.8772,4.8628,4.8175,4.7768,4.9015,4.8803,4.5799,4.7524,4.8356,4.6862,4.9604,5.2139,5.3654,5.4303,5.5097,5.6155,5.6251,5.6251,5.6227,5.5169,5.4592,5.4592,5.449,5.4348,5.4348,5.4745,5.5214,5.5607,5.5974,5.6194,5.6219,5.6194,5.6194,5.6168,5.5616,5.539,5.5146,5.3035,5.2451,5.276,5.117,5.1569,5.2782,5.1775,5.1424,5.1324,5.137,5.0287,4.8965,4.9388,4.8354,4.7175,4.7548,4.8066,4.8419,4.8439,4.8771,4.9103,4.9124,4.9124,4.9038,4.9059,4.9059,4.9059,4.9059,4.9059,4.9059,4.9059,4.9144,4.9144,4.9144,5.0696,5.2492,5.4197,5.4441,5.509,5.6797,5.6956,5.7692,5.9328,5.9483,5.9483,5.9483,5.7952,5.698,5.698,5.5379,5.4406,5.4406,5.4406,5.3505,5.1809,5.1809,5.0907,4.9207,4.9642,4.9763,3.8525,4.0448,4.2276,4.5366,4.6696,4.7257,4.7436,4.6857,4.6361,4.6537,4.5097,4.3774,4.3939,4.4437,4.4712,4.4596,4.5851,4.6427,4.5207,4.6119,4.6339,4.4902,4.6315,4.7295,4.7171,4.9693,5.1146,5.0552,5.3693,5.5206,5.4036,5.5383,5.589,5.5169,5.4447,5.4087,5.4087,5.3731,5.3709,5.4047,5.4421,5.4794,5.5164,5.5259,5.5503,5.5827,5.5672,5.5867,5.6194,5.6018,5.511,5.3717,5.3297,5.2407,5.1187,4.985,4.9729,5.0294,5.0993,5.0317,4.9163,4.9496,4.8994,4.8135,4.7517,4.696,4.6597,4.7134,4.7568,4.7982,4.8293,4.8728,4.9059,4.9059,4.9059,4.9059,4.9059,4.9059,4.9059,4.9059,4.9059,4.9059,4.9059,4.9059,4.9059,4.9059,5.0611,5.2326,5.4115,5.4278,5.4522,5.509,5.6239,5.6638,5.6079,5.7138,5.7297,5.6159,5.5493,5.5171,5.5171,5.346,5.2731,5.3064,5.1604,5.0847,5.0883,5.0588,5.0264,4.997,5.0115,5.0197,3.889,4.0435,4.1774,4.4853,4.5739,4.5889,4.5889,4.5558,4.522,4.522,4.3678,4.2339,4.2522,4.2821,4.2906,4.2691,4.393,4.4534,4.3329,4.42,4.4525,4.3226,4.4677,4.5711,4.5616,4.7822,4.9451,4.9964,5.2408,5.3548,5.2967,5.3525,5.3694,5.3389,5.2869,5.291,5.3558,5.3221,5.3317,5.3822,5.4197,5.457,5.4794,5.4966,5.5284,5.5607,5.5697,5.5576,5.5287,5.5287,5.4154,5.2297,5.2207,5.1247,4.9727,4.8591,4.804,4.8049,4.9135,4.8545,4.7425,4.7804,4.7804,4.7544,4.7004,4.6947,4.7175,4.7631,4.7962,4.8252,4.8541,4.8831,4.9059,4.9059,4.9059,4.9059,4.9059,4.9059,4.9059,4.9059,4.9059,4.9059,4.9059,4.9059,4.9059,4.9059,5.004,5.1179,5.2326,5.2409,5.2658,5.3296,5.436,5.4847,5.436,5.5332,5.5493,5.436,5.3706,5.3378,5.3378,5.1682,5.093,5.123,4.9783,4.9349,4.9928,4.9659,4.9659,4.9949,5.0259,5.0425,3.7657,3.8871,3.9962,4.2198,4.306,4.342,4.3505,4.3914,4.4213,4.4199,4.3028,4.2194,4.2609,4.1993,4.1692,4.2675,4.2849,4.2726,4.2136,4.3337,4.3361,4.0831,4.2625,4.3644,4.2504,4.4279,4.7267,5.1422,5.0409,5.0472,5.2456,5.0676,5.013,5.1193,5.0788,5.1338,5.3077,5.3101,5.3341,5.3822,5.4197,5.4322,5.4421,5.5164,5.5558,5.546,5.5901,5.514,5.3576,5.3576,5.267,5.103,4.9879,4.9155,4.849,4.7394,4.6638,4.6266,4.6266,4.6266,4.6266,4.6287,4.6678,4.7113,4.7548,4.7982,4.8438,4.8873,4.9017,4.9017,4.9017,4.9038,4.9059,4.9059,4.9059,4.9059,4.9059,4.9059,4.9059,4.9059,4.9059,4.9059,4.9059,4.9059,4.9059,4.9059,4.9059,4.9059,4.9059,4.9059,4.9721,5.1347,5.1682,5.2326,5.387,5.4115,5.4115,5.4033,5.2492,5.1598,5.1598,4.9976,4.908,4.91,4.908,4.91,4.9162,4.9142,4.9162,4.9224,5.0094,5.0487,3.7525,3.8822,4.0175,4.1643,4.2171,4.2481,4.3312,4.3337,4.3142,4.2848,4.0484,3.8205,3.7501,3.7909,3.8117,3.739,3.9546,4.1131,4.0569,4.0818,4.0923,4.0545,4.1659,4.2289,4.1953,4.3019,4.4724,4.7066,4.8685,4.9148,4.8051,4.9046,4.9974,5.0689,5.0529,5.1338,5.3077,5.3437,5.3702,5.3822,5.3897,5.3972,5.3972,5.4818,5.4496,5.3398,5.405,5.3425,5.1907,5.1907,5.0908,4.9371,4.9109,4.8157,4.6912,4.6552,4.637,4.6266,4.6266,4.6266,4.6328,4.674,4.6865,4.7113,4.7548,4.7755,4.7879,4.8003,4.8293,4.8541,4.8541,4.881,4.9059,4.9059,4.9059,4.9059,4.9059,4.9059,4.9059,4.9059,4.9059,4.9059,4.9059,4.9059,4.9059,4.9059,4.9059,4.9059,4.9059,4.9059,4.923,4.9721,5.0948,5.1347,5.0548,5.1598,5.1849,5.0548,5.0061,4.9721,4.9721,4.9315,4.9224,4.9576,4.9245,4.9576,5.0591,5.0239,5.0425,5.1108,5.1336,5.1439,3.731,3.8418,3.9453,4.0713,4.1187,4.1466,4.2017,4.1607,4.0989,4.0447,3.7802,3.5343,3.471,3.5489,3.6039,3.5222,3.7806,3.9871,3.9916,3.9902,4.0117,4.0742,4.123,4.1601,4.1777,4.2226,4.3058,4.4382,4.6061,4.6837,4.6345,4.6735,4.7305,4.8003,4.7981,4.9207,5.1707,5.2363,5.2717,5.2717,5.1931,5.1601,5.1624,5.2289,5.2137,5.1447,5.1884,5.1347,5.0209,4.9975,4.9057,4.7672,4.7885,4.7301,4.6287,4.6493,4.6452,4.6287,4.6575,4.6658,4.6617,4.6865,4.7299,4.7672,4.792,4.8127,4.8293,4.8293,4.8479,4.8686,4.8686,4.8873,4.9059,4.9059,4.9059,4.9059,4.9059,4.9059,4.9059,4.9059,4.9059,4.9059,4.9059,4.9059,4.9059,4.9059,4.9059,4.9059,4.9059,4.9059,4.9059,4.9059,4.9976,5.0125,4.9144,4.9955,5.0125,4.9144,4.9059,4.9059,4.9059,4.9266,4.9494,4.9742,4.9701,5.0032,5.0798,5.0549,5.0694,5.1191,5.1398,5.1501,3.7045,3.7836,3.8388,3.9402,3.9954,4.0202,3.9952,3.9152,3.8201,3.7447,3.5017,3.3106,3.29,3.3657,3.436,3.4575,3.6667,3.8588,3.9766,3.9902,4.0215,4.1074,4.1172,4.1308,4.168,4.1758,4.2129,4.293,4.3379,4.4291,4.586,4.4494,4.4035,4.4844,4.5138,4.6674,4.9593,5.0528,5.0985,5.0985,4.9484,4.8776,4.8776,4.9227,4.9462,4.9562,4.9618,4.917,4.8288,4.8012,4.7234,4.6226,4.6783,4.6679,4.6308,4.6803,4.674,4.6411,4.6906,4.7113,4.7217,4.7217,4.7734,4.8396,4.8459,4.8748,4.9059,4.9059,4.9059,4.9059,4.9059,4.9059,4.9059,4.9059,4.9059,4.9059,4.9059,4.9059,4.9059,4.9059,4.9059,4.9059,4.9059,4.9059,4.9059,4.9059,4.9059,4.9059,4.9059,4.9059,4.9059,4.9059,4.9059,4.9059,4.9059,4.9059,4.9059,4.9059,4.9121,4.9162,4.9162,4.9597,4.9845,4.9845,5.0218,5.0446,5.0508,5.0508,5.0549,5.0611,5.1005,5.1212,3.6684,3.7204,3.7604,3.7797,3.7689,3.7447,3.727,3.6305,3.5156,3.4156,3.2133,3.031,2.9366,3.0097,3.122,3.2589,3.4686,3.7049,3.9557,3.9902,4.0215,4.1074,4.1172,4.1211,4.1269,4.1601,4.2012,4.25,4.2949,4.3503,4.4084,4.3856,4.4275,4.5378,4.6777,4.7791,4.8388,4.8962,4.9249,4.9249,4.8934,4.8776,4.8776,4.9227,4.8676,4.7448,4.7746,4.7069,4.5698,4.6393,4.6331,4.5922,4.6701,4.6679,4.6287,4.6349,4.6576,4.6927,4.6927,4.7527,4.8148,4.8148,4.8252,4.8438,4.8831,4.8997,4.9059,4.9059,4.9059,4.9059,4.9059,4.9059,4.9059,4.9059,4.9059,4.9059,4.9059,4.9059,4.9059,4.9059,4.9059,4.9059,4.9059,4.9059,4.9059,4.9059,4.9059,4.9059,4.9059,4.9059,4.9059,4.9059,4.9059,4.9059,4.9059,4.9059,4.9059,4.9059,4.9431,4.9638,4.9638,5.0073,5.0301,5.0301,5.0384,5.0611,5.0984,5.0984,5.1191,5.1564,5.1646,5.1688,3.685,3.6838,3.667,3.6933,3.6456,3.5747,3.5015,3.3704,3.231,3.0922,2.9146,2.7786,2.7406,2.8757,3.0187,3.1168,3.3936,3.6534,3.8104,3.92,4.0117,4.0762,4.1035,4.1172,4.1172,4.1562,4.1973,4.2402,4.2832,4.3262,4.3691,4.3496,4.367,4.4241,4.5878,4.6747,4.6805,4.7273,4.7507,4.7528,4.6566,4.6163,4.6163,4.6384,4.6163,4.5637,4.5535,4.5332,4.5086,4.5756,4.5922,4.5759,4.6701,4.6679,4.6266,4.6266,4.6555,4.7072,4.7299,4.7817,4.8417,4.8666,4.8728,4.8769,4.8997,4.9059,4.9059,4.9059,4.9059,4.9059,4.9059,4.9059,4.9059,4.9059,4.9059,4.9059,4.9059,4.9059,4.9059,4.9059,4.9059,4.9059,4.9059,4.9059,4.9059,4.9059,4.9059,4.9059,4.9059,4.9059,4.9059,4.9059,4.9059,4.9059,4.9059,4.9287,4.9431,4.9431,4.9845,5.0094,5.0094,5.0529,5.0777,5.0777,5.1005,5.1253,5.146,5.146,5.1584,5.1791,5.1791,5.1791,3.6725,3.6234,3.5603,3.5893,3.5222,3.4162,3.2652,3.1247,2.9699,2.8058,2.6737,2.6018,2.6339,2.7935,2.9419,3.0293,3.2986,3.5348,3.6602,3.8293,3.966,4.0392,4.0898,4.1172,4.1172,4.1562,4.1973,4.2402,4.291,4.3359,4.3691,4.3476,4.3281,4.3086,4.4583,4.5227,4.5103,4.5553,4.5779,4.5698,4.435,4.3711,4.3711,4.3711,4.3876,4.4205,4.3876,4.4182,4.4898,4.5483,4.5672,4.5657,4.6599,4.6742,4.633,4.6411,4.6844,4.7382,4.7713,4.8127,4.8583,4.8955,4.9059,4.9059,4.9059,4.9059,4.9059,4.9059,4.9059,4.9059,4.9059,4.9059,4.9059,4.9059,4.9059,4.9059,4.9059,4.9059,4.9059,4.9059,4.9059,4.9059,4.9059,4.9059,4.9059,4.9059,4.9059,4.9059,4.9059,4.9059,4.91,4.9204,4.9224,4.9224,4.9224,4.9638,4.9908,4.9908,5.0322,5.057,5.057,5.1005,5.1253,5.1253,5.1605,5.1791,5.1791,5.1791,5.1853,5.1957,5.1957,5.1998,3.5381,3.4943,3.4421,3.3926,3.314,3.2049,3.0088,2.8743,2.749,2.6049,2.5633,2.5681,2.6003,2.6496,2.759,2.9992,3.0718,3.2284,3.621,3.7346,3.8384,4.0316,4.0898,4.1172,4.1172,4.1562,4.1973,4.2402,4.3183,4.3672,4.3711,4.4062,4.3906,4.3105,4.4013,4.4135,4.333,4.3742,4.3939,4.3939,4.3793,4.3711,4.3711,4.3711,4.3711,4.3793,4.3711,4.4028,4.4542,4.5376,4.5465,4.5191,4.6467,4.6719,4.6413,4.6804,4.7506,4.8252,4.8293,4.8603,4.9017,4.9059,4.9059,4.9059,4.9059,4.9059,4.9059,4.9059,4.9059,4.9059,4.9059,4.9059,4.9059,4.9059,4.9059,4.9059,4.9059,4.9059,4.9059,4.9059,4.9059,4.9059,4.9059,4.9059,4.9059,4.9059,4.9059,4.9059,4.9059,4.9059,4.9224,4.9659,4.9787,4.9787,4.9787,5.0094,5.0363,5.0363,5.0798,5.1046,5.1046,5.1501,5.1729,5.1729,5.1791,5.1791,5.1791,5.1791,5.2019,5.2433,5.2433,5.2661,3.4268,3.3737,3.3109,3.2845,3.1813,3.013,2.7551,2.6326,2.5331,2.4118,2.39,2.3984,2.4482,2.5627,2.6735,0.0,0.0,0.0,3.3188,3.4873,3.6641,3.8459,3.9214,4.0135,4.1445,4.1933,4.2461,4.3144,4.3516,4.3711,4.3711,4.4141,4.4238,4.3887,4.4219,4.4101,4.3457,4.3613,4.3711,4.3711,4.3711,4.3711,4.3711,4.3711,4.3711,4.3711,4.3711,4.3965,4.4433,4.5331,4.5421,4.5123,4.6494,4.6753,4.6433,4.6844,4.7587,4.8376,4.8376,4.8686,4.9059,4.9059,4.9059,4.9059,4.9059,4.9059,4.9059,4.9059,4.9059,4.9059,4.9059,4.9059,4.8802,4.7621,4.8245,4.8437,4.6143,4.6579,4.7361,4.7361,4.6473,4.6405,4.8716,4.8159,4.7727,4.8887,4.9059,4.9059,4.9059,4.9307,4.9556,4.9742,4.9763,4.9866,5.0135,5.057,5.0839,5.0839,5.1274,5.1522,5.1522,5.1708,5.1791,5.1791,5.2081,5.2226,5.2226,5.2764,5.3137,5.3302,5.3592,5.3675,3.3112,3.2435,3.165,3.165,3.0538,2.8759,2.5993,2.4775,2.3837,2.245,2.2477,2.2855,2.2956,2.4899,2.63,0.0,0.0,3.0342,3.1207,3.2949,3.4803,3.651,3.7837,3.9207,4.0868,4.1965,4.293,4.3652,4.3711,4.3808,4.4082,4.4414,4.4473,4.4199,4.4453,4.4297,4.3711,4.3711,4.3711,4.3711,4.3711,4.3711,4.3711,4.3711,4.3711,4.3711,4.3848,4.416,4.4609,4.5359,4.545,4.5134,4.6171,4.6458,4.6267,4.6798,4.7563,4.8396,4.8541,4.879,4.8973,4.8437,4.8245,4.8159,4.7554,4.8179,4.9059,4.9059,4.8695,4.8073,4.7554,4.7381,4.7101,4.5667,4.6385,4.6666,4.4011,4.4435,4.5404,4.5404,4.4258,4.4277,4.6927,4.6298,4.5842,4.7188,4.7381,4.7421,4.7541,4.8365,4.904,4.9304,4.9785,5.028,5.0591,5.1046,5.1315,5.1315,5.1626,5.1791,5.1791,5.1791,5.1874,5.1998,5.2454,5.2764,5.2888,5.3675,5.4048,5.3953,5.4379,5.4358,3.1738,3.0907,3.0204,3.0204,2.944,2.8048,2.5885,2.4598,2.3183,2.1096,2.1777,2.251,2.1603,2.417,2.63,2.5696,0.0,0.0,3.1069,3.2029,3.3092,3.4725,3.7131,3.8811,3.9153,4.1571,4.3242,4.3672,4.3711,0.0,4.4961,4.5019,4.4609,4.373,4.4551,4.459,4.3711,4.3711,4.3711,4.3711,4.3711,4.3711,4.3711,4.3711,4.3711,4.373,4.4199,4.4629,4.5058,4.5488,4.541,4.5019,4.5549,4.5673,4.5813,4.6778,4.7647,4.8438,4.8893,4.9059,4.8781,4.6821,4.6191,4.5842,4.4011,4.6143,4.9059,4.9059,4.7707,4.5842,4.3923,4.3478,4.3478,4.3389,4.3478,4.3478,4.3389,4.3389,4.3389,4.3389,4.3389,4.3389,4.3478,4.3478,4.3478,4.3478,4.3478,4.3607,4.3903,4.5662,4.7257,4.8027,4.9882,5.1108,5.1108,5.1522,5.1791,5.1791,5.1791,5.1791,5.1791,5.1791,5.2019,5.2474,5.293,5.3385,5.384,5.4296,5.4524,5.4524,5.4544,5.4544,2.8523,2.8464,2.8354,2.8145,2.6873,2.521,2.3273,2.1416,2.0233,2.0512,2.0262,2.0285,2.1114,2.3222,2.4289,2.2478,2.5468,0.0,2.7912,3.0782,3.3529,3.5258,3.913,4.1579,4.1426,0.0,4.3555,4.3691,4.3711,4.3965,4.457,4.4863,4.4902,4.4609,4.4883,4.459,4.3711,4.3711,4.3711,4.3711,4.3711,4.3711,4.3711,4.3711,4.3711,4.3711,4.3867,4.418,4.4609,4.4746,4.4726,4.4629,4.5091,4.5599,4.6276,4.6804,4.7845,4.8681,4.7494,4.7081,4.6821,4.4876,4.4258,4.4188,4.3567,4.4277,4.5159,4.5159,4.4807,4.417,4.3567,4.3389,4.3033,4.1689,4.2407,4.2676,4.0095,4.0532,4.1419,4.1419,4.0351,4.0351,4.2944,4.2317,4.1957,4.3468,4.3774,4.3831,4.4234,4.5075,4.5811,4.5981,4.6909,4.8594,5.1293,5.1708,5.1791,5.1791,5.1791,5.1936,5.2267,5.2578,5.295,5.3406,5.4172,5.4627,5.4772,5.5227,5.5455,5.5455,5.5455,5.5455,2.6858,2.7213,2.7213,2.6406,2.5201,2.3577,2.1289,1.9519,1.8471,1.8879,1.8796,1.8892,1.9409,2.2153,2.3462,2.1024,2.4777,2.7731,2.6677,2.9581,3.2873,3.5521,3.8851,4.1298,0.0,4.3203,4.3711,4.3711,4.3867,4.416,4.4609,4.5039,4.5195,4.5039,4.5019,4.459,4.3711,4.3711,4.3711,4.3711,4.3711,4.3711,4.3711,4.3711,4.3711,4.3711,4.3887,4.4141,0.0,4.457,4.4551,4.4433,4.4863,4.4902,4.487,4.5648,4.6107,4.6237,4.5434,4.514,4.4788,4.2944,4.1869,4.1256,4.1256,4.2228,4.3211,4.2497,4.2317,4.2138,4.1419,4.1256,4.0985,3.9731,4.0351,4.0623,3.8208,3.8651,3.9458,3.9458,3.8467,3.8483,4.0804,4.0379,4.0091,4.1487,4.1826,4.2052,4.2342,4.335,4.4013,4.4173,4.5158,4.7102,5.0388,5.0661,5.0955,5.1701,5.1791,5.1936,5.2226,5.2681,5.322,5.384,5.4731,5.5269,5.5434,5.5559,5.5703,5.5869,5.5683,5.5703,0.0,2.6695,2.6344,2.4834,2.3948,2.2713,1.9923,1.8783,0.0,1.6622,1.7572,1.8238,1.7169,2.1063,2.3516,2.0846,2.4933,2.7925,2.6787,2.8712,3.1749,3.5943,3.7106,3.8812,4.2101,4.3203,4.3711,4.3711,4.4141,4.459,4.5,4.5449,4.5469,4.5039,4.5019,4.459,4.3711,4.3711,4.3711,4.3711,4.3711,4.3711,4.3711,4.3711,4.3711,4.373,4.416,4.4272,4.4246,4.4616,4.4453,4.3994,4.4381,4.35,4.2129,4.3465,4.3066,4.2046,4.2798,4.3122,4.2854,4.0877,3.9092,3.7671,3.7671,4.0186,4.2586,4.0787,4.026,3.9896,3.8116,3.7671,3.7671,3.7671,3.7671,3.7671,3.7671,3.7671,3.7687,3.7702,3.7718,3.7718,3.7734,3.802,3.8243,3.8274,3.8529,3.8862,3.9212,4.0838,4.2192,4.255,4.4282,4.6167,4.8216,4.8604,4.9636,5.1701,5.1833,5.1874,5.1936,5.2433,5.3095,5.3965,5.4813,5.5434,5.5869,5.5434,5.5455,5.5869,5.5476,5.5496,2.2686,0.0,2.3126,2.1603,2.0404,1.9485,0.0,1.7733,1.7184,1.7959,1.7782,1.7753,1.8795,2.1009,2.1912,1.9352,2.4043,2.727,2.5211,2.9444,3.4618,3.9786,4.0003,4.0454,4.222,4.3203,4.3711,4.3711,4.4141,4.459,4.5,4.5449,4.5469,4.5039,4.5019,4.459,4.3711,4.3711,4.3711,4.3711,4.3711,4.3711,4.3711,4.3711,4.3711,4.3711,4.3828,4.3208,4.2207,4.1984,4.122,4.0031,4.0119,4.0365,4.0595,4.1161,4.1782,4.2228,4.0627,4.0317,4.0334,3.8359,3.7454,3.7193,3.7578,3.83,3.8926,3.8483,3.8391,3.83,3.7855,3.7671,3.7671,3.7671,3.7671,3.7671,3.7671,3.7671,3.775,3.802,3.8084,3.8163,3.8402,3.8529,3.8672,3.8942,3.9053,3.9228,3.9593,4.011,4.0416,4.0513,4.0901,4.2025,4.3997,4.7008,4.9636,5.1701,5.2143,5.264,5.3344,5.413,5.4813,5.5393,5.56,5.5766,5.5869,5.5766,5.5766,5.589,5.6117,5.6117,1.9853,2.0485,2.1069,1.9588,1.8813,1.8201,1.757,1.6901,1.6697,1.754,1.739,1.7582,1.9265,2.1268,2.2171,2.073,2.5153,2.8461,2.7445,3.0205,3.3786,3.7746,3.79,3.8749,0.0,4.2068,4.2857,4.3921,4.4433,4.4883,4.5312,4.5723,4.5683,4.5039,4.5019,4.459,4.3711,4.3711,4.3711,4.3711,4.3711,4.3711,4.3711,4.3711,4.3711,4.3711,4.3711,4.2842,4.1488,4.117,4.0211,3.8972,3.8972,3.8842,3.868,3.9318,3.9406,3.9117,3.8035,3.7883,3.7975,3.69,3.6545,3.6637,3.6915,3.7193,3.7394,3.7671,3.7671,3.7671,3.7671,3.7671,3.7671,3.7671,3.7671,3.7671,3.7671,3.7798,3.7973,3.8163,3.8322,3.8481,3.8656,3.8831,3.9005,3.9196,3.9355,3.9546,3.9736,3.9768,3.9768,3.9768,3.9768,4.061,4.2584,4.4755,4.6915,4.8881,5.053,5.1577,5.2155,5.3719,5.4875,5.5538,5.5766,5.5869,5.5869,5.5869,5.5973,5.62,5.6449,5.6531,1.7751,1.8562,1.9628,1.8378,1.8229,1.8072,1.6854,1.6621,1.6575,1.6575,1.6887,1.7706,1.9436,2.1627,2.3137,2.3152,2.6826,2.9967,3.1061,3.1072,3.1789,3.4004,3.447,0.0,3.9931,4.0498,4.1508,4.3748,4.4087,4.451,4.5213,4.5619,4.5551,4.5058,4.5019,4.459,4.3711,4.3711,4.3711,4.3711,4.3711,4.3711,4.3711,4.3711,4.3546,4.3278,4.3355,4.2312,4.0615,4.0359,3.9529,3.8396,3.8485,3.7647,3.6568,3.7464,3.6776,3.5413,3.5879,3.5987,3.5987,3.608,3.608,3.608,3.6173,3.6452,3.6915,3.7301,3.7578,3.7671,3.7578,3.7671,3.7671,3.7671,3.7718,3.775,3.775,3.8036,3.829,3.8354,3.8576,3.8783,3.8846,3.9101,3.9307,3.9307,3.9609,3.9847,3.9847,3.9847,3.9847,3.9847,3.98,4.0546,4.2302,4.2449,4.3234,4.4934,4.7856,4.9701,4.999,5.2573,5.4251,5.4765,5.5503,5.5828,5.5973,5.5973,5.6221,5.6676,5.6676,5.6821,1.7087,1.7576,1.8204,1.8129,1.8149,1.8244,1.8294,1.7666,1.701,1.701,1.7209,1.8066,2.0387,2.1874,2.3101,2.3932,2.6333,2.9295,3.2546,3.2212,3.2722,3.5773,0.0,3.6371,3.9967,3.9303,3.9522,4.1744,4.0922,4.1123,4.3135,4.363,4.4184,4.4973,4.5019,4.459,4.3711,4.3711,4.3711,4.3711,4.3711,4.3711,4.3711,4.3711,4.2863,4.1444,4.1711,3.9978,3.6795,3.6834,3.5927,3.4517,3.4608,3.4545,3.4703,3.5122,3.5335,3.5413,3.5506,3.5241,3.4976,3.5428,3.5506,3.56,3.608,3.6266,3.6359,3.6452,3.7008,3.7578,3.71,3.7394,3.7671,3.7671,3.7909,3.8116,3.8116,3.8386,3.8703,3.9005,3.9101,3.9244,3.9546,3.9641,3.9689,3.9689,3.999,4.0213,4.0213,4.0213,4.0213,4.0213,3.9943,4.0074,4.0673,4.0946,4.1206,4.1603,4.5284,4.7947,4.9065,5.285,5.4413,5.3114,5.454,5.5683,5.6449,5.6449,5.6697,5.7132,5.7132,5.6966,1.5759,1.6384,1.7583,1.9027,1.9554,1.9804,2.0131,1.9845,1.9351,1.8546,1.9278,2.0615,2.1937,2.379,2.5766,2.7998,2.8952,3.0234,3.2508,3.2223,3.2398,0.0,0.0,3.4651,3.747,3.7291,3.7919,4.0226,3.9911,4.0203,4.1479,4.1745,4.1853,4.1956,4.2907,4.2609,4.1044,4.1854,4.2262,4.2262,4.2262,4.2262,4.2262,4.2262,4.1873,4.1251,4.0389,3.8574,3.6304,3.6304,3.5375,3.3993,3.3993,3.4197,3.4505,3.4651,3.4882,3.5054,3.5054,3.4882,3.471,3.4976,3.5054,3.5069,3.535,3.5521,3.5786,3.5786,3.6452,3.7193,3.6915,3.7427,3.7957,3.7957,3.8227,3.8465,3.8465,3.8735,3.9021,3.9196,3.953,3.98,3.9768,4.007,4.026,4.0086,4.0181,4.0292,4.0292,4.0292,4.0213,4.0022,4.0038,4.0117,4.0276,4.0435,4.1236,4.2989,4.4903,4.6798,4.8432,5.0786,5.2107,5.2266,5.3548,5.4917,5.6573,5.6801,5.7152,5.7608,5.7608,5.7629,1.4725,1.5641,1.7403,1.9586,2.0192,2.059,2.1715,2.1566,2.0883,2.0147,2.1352,2.2746,2.3553,2.5832,2.8466,3.1175,3.1285,3.1344,3.2163,3.2134,3.209,3.2266,3.2354,3.3273,3.532,3.5388,3.625,3.854,3.8658,3.8934,3.9738,3.9762,3.9604,3.9385,4.077,4.0593,3.8716,3.9561,4.0104,4.0439,4.0349,4.0295,4.0295,4.0295,4.0256,4.0134,3.8801,3.7264,3.5841,3.5934,3.5228,3.4212,3.4212,3.4417,3.4724,3.4871,3.4827,3.471,3.4783,3.4768,3.471,3.471,3.471,3.471,3.471,3.502,3.5345,3.5345,3.6061,3.6854,3.6963,3.7585,3.8134,3.8322,3.8576,3.8815,3.8815,3.9101,3.9355,3.9355,3.9863,4.0213,3.9943,4.0388,4.0705,4.0451,4.0483,4.0499,4.0419,4.0483,4.0403,4.0038,4.0245,4.0435,4.0531,4.061,4.1677,4.4077,4.4817,4.5656,4.6829,4.8425,4.9744,5.091,5.2564,5.404,5.5387,5.6334,5.6579,5.6393,5.7026,5.7434,1.4645,1.605,1.7696,1.8736,1.8454,1.8895,2.2879,2.1585,1.9923,2.1412,2.2144,2.3009,2.486,2.7513,2.9846,3.0749,3.1359,3.1856,3.2237,0.0,3.2602,3.231,3.2559,3.3513,3.5352,3.4183,3.4337,3.6511,3.5365,3.5515,3.7652,3.7531,3.799,3.9385,3.9544,3.9267,3.8716,3.7457,3.7529,3.8838,3.858,3.8408,3.8408,3.8408,3.7667,3.6387,3.6546,3.5645,3.3926,3.4235,3.429,3.4212,3.4212,3.4417,3.4768,3.5368,3.5207,3.4739,3.5031,3.4944,3.471,3.471,3.471,3.471,3.471,3.4914,3.5243,3.5229,3.5815,3.6551,3.7194,3.7647,3.8007,3.8561,3.8926,3.918,3.918,3.9466,3.972,3.972,4.0038,4.0292,4.026,4.0546,4.0769,4.0753,4.1039,4.1118,4.0801,4.1039,4.1103,4.0753,4.0737,4.088,4.1214,4.1547,4.177,4.2038,4.3925,4.438,4.2844,4.66,4.8436,4.7634,5.1763,5.321,5.1978,5.4139,5.4177,5.207,5.432,5.5299,1.4405,1.5699,1.7186,1.8207,1.8066,1.8785,2.3228,2.3381,2.2713,2.3195,2.4581,2.6199,2.7842,2.9553,3.0884,3.1373,3.1812,3.2222,3.2544,3.269,3.2719,3.2602,3.269,3.3102,3.4005,3.3709,3.3943,3.4985,3.47,3.4936,3.5786,3.5469,3.5578,3.6183,3.7102,3.7038,3.5891,3.6321,3.6211,3.5564,3.6427,3.6747,3.6551,3.6763,3.6619,3.6263,3.5164,3.4574,3.4344,3.4475,3.4636,3.4827,3.5031,3.5178,3.5324,3.5654,3.55,3.528,3.5192,3.509,3.4988,3.4988,3.4988,3.5031,3.5222,3.5368,3.5566,3.5838,3.6075,3.6349,3.6692,3.7241,3.779,3.8078,3.8616,3.8963,3.8687,3.9147,3.9594,3.9594,4.0049,4.0463,4.0642,4.1071,4.1373,4.115,4.123,4.1261,4.1134,4.123,4.1182,4.0832,4.0991,4.1166,4.1309,4.1643,4.1849,4.1849,4.276,4.3138,4.278,4.465,4.6322,4.7604,4.9443,5.086,5.1576,5.2531,5.2679,5.2067,5.2583,5.2945,1.501,1.6411,1.8009,1.9086,1.9136,1.9958,2.3788,2.4049,2.3854,2.4903,2.6398,2.8049,2.9734,3.048,3.1078,3.1653,3.2163,3.2515,3.2734,3.2778,3.2778,3.2778,3.2778,3.2895,3.3217,3.3539,3.3861,3.4197,3.4519,3.471,3.471,3.43,3.411,3.4212,3.5137,3.5122,3.4212,3.5243,3.5076,3.3729,3.4727,3.5134,3.4751,3.5056,3.5397,3.5741,3.4409,3.4256,3.4856,3.4856,3.5031,3.5339,3.5661,3.5734,3.5757,3.5866,3.5822,3.5728,3.55,3.5397,3.5405,3.5405,3.5405,3.5449,3.5669,3.5719,3.5889,3.6179,3.6318,3.6315,3.6386,3.699,3.7657,3.7852,3.8313,3.8709,3.8439,3.8836,3.9219,3.9327,3.9806,4.0334,4.0388,4.0944,4.1242,4.1006,4.0975,4.0928,4.1037,4.11,4.1186,4.115,4.1341,4.1484,4.1484,4.1706,4.1897,4.2008,4.2453,4.2803,4.3041,4.3724,4.5054,4.7014,4.8026,4.8958,4.9821,5.0561,5.0595,5.008,5.0284,5.0464,1.654,1.8367,2.0473,2.148,2.1662,2.2303,2.4828,2.3202,2.235,2.6228,2.7278,2.8158,3.0069,3.0208,3.0397,3.1582,3.2354,3.2778,3.2778,3.2778,3.2778,3.2778,3.2778,3.2895,3.3217,3.3539,3.3875,3.4197,3.4519,3.471,3.471,3.4095,3.389,3.4212,3.3905,3.389,3.4212,3.4212,3.4051,3.3729,3.3729,3.3554,3.3246,3.3246,3.3612,3.4212,3.4227,3.4578,3.5258,3.5163,3.5449,3.569,3.5997,3.5924,3.5734,3.6363,3.6202,3.5801,3.6012,3.5909,3.5742,3.5742,3.5742,3.5742,3.5742,3.5866,3.6114,3.6114,3.6348,3.6597,3.6597,3.7007,3.75,3.8105,3.8203,3.8295,3.863,3.8722,3.8814,3.9018,3.9455,3.9699,3.9699,3.9974,4.0202,4.0202,4.0202,4.0286,4.0474,4.0809,4.1218,4.1731,4.1849,4.1849,4.1849,4.1849,4.2008,4.2358,4.3041,4.3406,4.3422,4.4105,4.4789,4.5504,4.7766,4.7966,4.6028,4.83,4.7966,4.5093,4.7141,4.7716,1.5097,1.7679,2.0169,1.9762,2.1669,2.3992,2.498,2.4301,2.4344,2.7198,2.8653,2.9642,3.0476,3.1233,3.1758,3.212,3.25,3.2778,3.2778,3.2778,3.2778,3.2778,3.2968,3.3232,3.3554,3.3875,3.4212,3.4534,3.4651,3.471,3.471,3.43,3.4227,3.4549,3.4241,3.4227,3.4563,3.4329,3.4168,3.4066,3.3846,3.3554,3.3261,3.3715,3.4036,3.4227,3.4461,3.4914,3.5529,3.5983,3.6231,3.6334,3.6422,3.6407,3.6348,3.6539,3.648,3.6305,3.6158,3.6056,3.5968,3.5968,3.5968,3.6027,3.6246,3.6378,3.6451,3.6451,3.6524,3.6597,3.6597,3.6711,3.6908,3.7007,3.7581,3.7874,3.768,3.8167,3.883,3.8921,3.9206,3.9623,3.9947,4.0126,4.0202,4.0202,4.0202,4.0363,4.0769,4.1258,4.1628,4.1747,4.1849,4.1849,4.1849,4.2072,4.2055,4.1838,4.3051,4.3899,4.4153,4.4836,4.5408,4.5853,4.6094,4.5917,4.5366,4.5405,4.4959,4.4076,4.4042,4.3872,1.7571,2.0388,2.2755,2.2236,2.3975,2.5845,2.599,2.6148,2.6667,2.8375,2.9514,3.0461,3.1245,3.1713,0.0,3.2456,3.2646,3.2778,3.2778,3.2778,3.2822,3.2939,3.3129,3.3422,3.3875,3.411,3.4358,3.468,3.471,3.471,3.471,3.4402,3.4373,3.4695,3.4388,3.4373,3.4695,3.4505,3.4417,3.4402,3.4212,3.4022,3.3832,3.4095,3.4285,3.4432,3.4885,3.5368,3.588,3.6392,3.6524,3.6422,3.6553,3.6524,3.6422,3.6553,3.6597,3.6583,3.6378,3.6305,3.6305,3.6305,3.6305,3.6348,3.6539,3.6597,3.6597,3.6597,3.6597,3.6597,3.6597,3.67,3.6802,3.6802,3.7247,3.7569,3.7518,3.7986,3.8618,3.8752,3.8915,3.9152,3.9478,3.9478,3.9478,3.9478,3.9789,3.9981,4.029,4.0806,4.113,4.113,4.113,4.1177,4.1318,4.164,4.1666,4.16,4.2772,4.3535,4.4004,4.479,4.523,4.5237,4.4789,4.4599,4.4599,4.3891,4.3418,4.3082,4.2497,4.2029,2.1802,2.4409,2.6634,2.7103,2.7445,2.7681,2.7575,2.8259,2.9048,2.9539,3.0022,3.0706,3.2033,3.1961,3.1989,3.2719,3.2778,3.2778,3.2778,3.2793,3.2924,3.3202,3.32,3.3568,3.4168,3.4241,3.4388,3.468,3.471,3.471,3.471,3.4432,3.4402,3.4695,3.4417,3.4417,3.4739,3.4724,3.4739,3.4797,3.4739,3.4724,3.4739,3.4402,3.4461,3.4827,3.5397,3.5822,3.6144,3.6436,3.6378,3.6144,3.6451,3.6392,3.6202,3.6495,3.6597,3.6597,3.6597,3.6597,3.6597,3.6597,3.6597,3.6597,3.6597,3.6597,3.6597,3.6597,3.6597,3.6612,3.6641,3.6861,3.7109,3.6953,3.7082,3.7344,3.7929,3.809,3.8192,3.8485,3.8543,3.8543,3.8543,3.8543,3.8543,3.8543,3.9048,3.9359,3.9359,3.9877,4.0202,4.0202,4.0233,4.037,4.0676,4.0767,4.1057,4.1576,4.2309,4.2702,4.3037,4.3992,4.4459,4.4186,4.3768,4.3585,4.3555,4.322,4.2734,4.2163,4.1946,4.1495,1.8235,2.1784,2.5298,2.5375,2.6951,2.8344,2.8095,2.8669,2.9395,2.9522,3.0255,3.1224,3.2106,3.2412,3.2602,3.2763,3.2778,3.2778,3.2778,3.2983,3.3173,3.3142,3.37,3.4066,3.4212,3.4446,3.4622,3.4695,3.471,3.471,3.471,3.4636,3.4636,3.4695,3.4636,3.4753,3.5061,3.4827,3.4958,3.5441,3.4944,3.4827,3.5046,3.4739,3.4914,3.5441,3.5684,3.5822,3.6129,3.6187,3.6187,3.6129,3.6187,3.6334,3.6509,3.6583,3.6597,3.6597,3.6597,3.6597,3.6597,3.6597,3.6597,3.6597,3.6597,3.6597,3.6597,3.6597,3.6597,3.667,3.6919,3.7036,3.681,3.5418,3.6584,3.79,3.8031,3.8265,3.8456,3.8529,3.8543,3.8543,3.8543,3.8543,3.8543,3.8543,3.9048,3.9359,3.9359,3.9877,4.0202,4.0202,4.0447,4.063,4.0706,4.1195,4.1347,4.1039,4.1863,4.2025,4.1489,4.3315,4.4147,4.3835,4.3309,4.2805,4.2551,4.1903,4.1393,4.1297,4.0944,4.0819,1.9551,2.2411,2.5116,2.6248,2.7462,2.8377,2.8372,2.8771,2.9411,3.0128,3.0838,3.1613,3.2368,3.2778,3.2997,3.2997,3.3129,3.3232,3.3232,3.3378,3.3539,3.3685,3.4007,3.4285,3.4432,3.4607,3.471,3.471,3.471,3.471,3.471,3.471,3.471,3.471,3.4841,3.5002,3.5163,3.531,3.5544,3.5866,3.5383,3.5075,3.4929,3.4783,3.5046,3.5742,3.5742,3.5909,3.6348,3.6348,3.6261,3.6129,3.629,3.6363,3.6392,3.6553,3.6597,3.6597,3.6597,3.6597,3.6597,3.6597,3.6597,3.6597,3.6597,3.6597,3.6597,3.6597,3.6714,3.6875,3.7051,3.6493,3.5656,3.481,3.6369,3.7796,3.6876,3.767,3.8543,3.8543,3.8543,3.8543,3.8543,3.8543,3.8543,3.8543,3.8737,3.8945,3.8945,3.9256,3.9434,3.9584,3.9763,4.0002,4.0316,4.066,4.0821,4.0645,4.1283,4.1457,4.0973,4.2148,4.2753,4.2588,4.2118,4.1814,4.1651,4.1091,4.0724,4.0724,4.0724,4.0812,2.1251,2.3413,2.5215,2.7657,2.8123,2.8099,2.842,2.8758,2.9324,3.0737,3.128,3.1858,3.2617,3.3027,3.3246,3.3246,3.3524,3.3729,3.3729,3.3773,3.3919,3.4183,3.4271,3.4402,3.468,3.471,3.471,3.471,3.471,3.471,3.471,3.471,3.4724,3.4783,3.5031,3.5222,3.5324,3.5851,3.6144,3.6202,3.5822,3.5339,3.4783,3.4724,3.5017,3.5654,3.5713,3.5953,3.6451,3.6495,3.6363,3.6144,3.6407,3.6392,3.6231,3.6509,3.6597,3.6597,3.6597,3.6597,3.6597,3.6597,3.6301,3.6103,3.6103,3.6103,3.6103,3.6103,3.6533,3.6995,3.6651,3.5628,3.4371,3.368,3.5283,3.6626,3.5385,3.6935,3.8543,3.8543,3.8543,3.8543,3.8543,3.8543,3.8543,3.8543,3.8543,3.8543,3.8543,3.8587,3.8719,3.8997,3.9129,3.9407,3.9948,4.0051,4.0197,4.049,4.0724,4.0885,4.0885,4.1133,4.128,4.128,4.109,4.0929,4.0885,4.0607,4.0519,4.0563,4.0855,4.1016,1.7487,2.097,2.5008,2.7636,2.7965,2.7632,2.7934,2.8674,2.9487,0.0,3.1107,3.1858,3.2617,3.3027,3.3246,3.3246,3.3524,3.3729,3.3729,3.3978,3.4168,3.4212,3.4475,3.4651,3.4695,3.471,3.471,3.471,3.471,3.471,3.471,3.471,3.4827,3.509,3.5149,3.5441,3.5983,3.607,3.6261,3.6539,3.5939,3.5456,3.509,3.4827,3.49,3.5236,3.5625,3.5786,3.5792,3.607,3.6158,3.6114,3.6173,3.6334,3.6539,3.6583,3.6597,3.6597,3.6597,3.6597,3.6597,3.6597,3.5295,3.3787,3.3787,3.3787,3.3787,3.3787,3.5421,3.6737,3.5054,3.4635,3.3693,3.0006,3.0917,3.3053,3.4689,3.6935,3.8543,3.8543,3.8543,3.8543,3.8543,3.8543,3.8543,3.8543,3.8543,3.8543,3.8543,3.8778,3.8982,3.9026,3.9538,3.9904,3.9992,4.0255,4.0446,4.049,4.0519,4.0563,4.0563,4.0607,4.0607,4.0607,4.0855,4.0855,4.0563,4.0519,4.0651,4.0899,4.0929,4.1251,1.7285,2.1061,2.4752,2.6147,2.728,2.808,2.83,2.9202,3.0297,3.1038,3.1772,3.2338,3.2749,3.3188,3.351,3.351,3.3949,3.4271,3.4271,3.4402,3.449,3.449,3.4622,3.471,3.471,3.471,3.471,3.471,3.471,3.4783,3.4944,3.4958,3.5105,3.5522,3.5617,3.5836,3.6114,3.6305,3.6363,3.6319,3.5866,3.547,3.5149,3.4841,3.4871,3.5178,3.5596,3.5749,3.5939,3.6261,3.6392,3.6392,3.6392,3.648,3.6597,3.6597,3.6597,3.6597,3.6597,3.6597,3.6597,3.6597,3.6004,3.5196,3.5196,3.5196,3.5224,3.5407,3.5473,3.536,3.4622,3.2805,3.061,2.8704,2.9048,3.0109,3.1071,3.4056,3.6621,3.6621,3.6621,3.6621,3.6621,3.7681,3.8543,3.8543,3.8543,3.8602,3.8792,3.8939,3.9173,3.9538,3.9831,4.0065,4.0255,4.0402,4.049,4.049,4.049,4.049,4.049,4.049,4.049,4.049,4.0607,4.0651,4.049,4.068,4.0855,4.0973,4.1338,4.166,1.729,2.0411,2.3166,2.4812,2.6387,2.7716,2.8709,2.9701,3.0722,0.0,3.2164,3.2676,3.2749,3.3305,3.3729,3.3729,3.4285,3.471,3.471,3.471,3.471,3.471,3.471,3.471,3.471,3.471,3.471,3.471,3.4768,3.4914,3.5149,3.5236,3.5427,3.5749,3.607,3.6246,3.6246,3.648,3.648,3.6231,3.5924,3.5588,3.528,3.5046,3.5017,3.5178,3.5596,3.5822,3.6144,3.6466,3.6597,3.6597,3.6597,3.6597,3.6597,3.6597,3.6597,3.6597,3.6597,3.6597,3.6498,3.6004,3.5394,3.4983,3.4983,3.5039,3.5151,3.5389,3.4898,3.4093,3.3147,3.0552,2.8199,2.7552,2.7444,2.7768,2.8941,3.1817,3.4267,3.4267,3.4267,3.4373,3.5018,3.6503,3.7785,3.8425,3.8602,3.8748,3.8997,3.9173,3.9465,3.9948,4.0065,4.0226,4.0446,4.049,4.049,4.049,4.049,4.049,4.049,4.049,4.049,4.049,4.0563,4.0607,4.0607,4.0855,4.106,4.1221,4.169,4.1938,1.6525,1.759,1.9167,2.4288,2.519,2.5628,2.8877,0.0,3.0379,3.0995,3.1729,3.2412,3.2719,3.3305,3.3729,3.3729,3.4285,3.471,3.471,3.471,3.471,3.471,3.471,3.471,3.471,3.471,3.471,3.471,3.4973,3.5134,3.5163,3.5552,3.5763,3.6085,3.6407,3.6583,3.6583,3.6597,3.6597,3.6583,3.6246,3.5924,3.5713,3.5698,3.5441,3.5178,3.5596,3.5822,3.6144,3.6466,3.6597,3.6597,3.6597,3.6597,3.6597,3.6597,3.6597,3.6597,3.6597,3.6597,3.6301,3.4186,3.2158,3.042,3.042,3.0705,3.0913,3.0732,3.2557,3.3603,2.9308,2.8231,2.7768,2.5634,2.51,2.6275,3.0537,3.171,3.1923,3.1923,3.1923,3.2561,3.4689,3.5229,3.5978,3.8217,3.8807,3.9012,3.9026,3.9568,3.9963,3.9992,4.027,4.049,4.049,4.049,4.049,4.049,4.049,4.049,4.049,4.049,4.049,4.049,4.0768,4.0929,4.0929,4.0973,4.1294,4.185,4.1894,4.2055,1.5325,1.666,1.8135,2.0814,2.3375,2.5651,2.6947,2.8963,3.0756,3.1409,3.1974,3.2383,3.2705,3.3305,3.3729,3.3729,3.4285,3.471,3.471,3.471,3.471,3.471,3.471,3.471,3.471,3.471,3.4783,3.4973,3.509,3.5339,3.5749,3.588,3.6187,3.6729,3.6861,3.6919,3.6919,3.6919,3.6817,3.6597,3.6275,3.6056,3.5939,3.5734,3.569,3.5778,3.5895,3.6012,3.6144,3.6466,3.6597,3.6597,3.6597,3.6597,3.6597,3.6597,3.6597,3.6597,3.6597,3.5692,3.4684,3.5295,3.306,3.0622,3.346,3.3574,3.2723,3.2802,3.2606,3.1769,2.8872,2.7068,2.5949,2.51,2.4882,2.5317,2.7022,2.8511,2.9478,2.9478,2.9478,3.0216,3.2561,3.4162,3.5401,3.6358,3.7976,3.8629,3.7502,3.8861,4.008,4.0285,4.0402,4.049,4.049,4.049,4.049,4.049,4.049,4.049,4.049,4.049,4.0563,4.0812,4.109,4.1177,4.0973,4.1368,4.169,4.1894,4.2099,4.226,1.444,0.0,1.7054,1.8836,2.1424,2.3995,2.5915,2.7962,2.9938,3.1306,3.1812,3.209,3.2529,3.3041,3.348,3.37,3.4285,3.471,3.471,3.471,3.471,3.471,3.471,3.471,3.471,3.471,3.4827,3.5134,3.5251,0.0,3.6085,3.6217,3.6583,3.7226,3.7256,3.7256,3.7256,3.7139,3.6934,3.6597,3.6378,3.6217,3.6114,3.6012,3.6027,3.6129,3.6231,3.6275,3.629,3.6509,3.6597,3.6597,3.6597,3.667,3.6773,3.6773,3.6773,3.6659,3.5963,3.4682,3.3374,3.3374,3.1843,3.0533,3.2764,3.3215,3.2789,3.2232,3.1135,2.9797,2.7726,2.6058,2.4882,2.4882,2.4882,2.4882,2.4882,2.6058,2.713,2.713,2.713,2.7897,3.0224,3.1962,3.3224,3.4158,3.6555,3.7741,3.6598,3.8641,4.0241,4.0446,4.049,4.049,4.049,4.049,4.049,4.049,4.049,4.049,4.049,4.0607,4.0768,4.0973,4.1368,4.1529,4.1455,4.1982,4.226,4.2392,4.2626,4.267,0.0,0.0,0.0,0.0,1.9343,2.0669,2.6009,0.0,2.7606,3.0562,3.1216,3.142,3.2149,3.2544,3.2968,3.3597,3.4256,3.4695,3.4695,3.4695,3.471,3.471,3.471,3.471,3.471,3.471,3.4841,3.5149,3.547,3.5792,3.6114,3.6451,3.6919,3.7563,3.7592,3.7592,3.7578,3.727,3.6934,3.6597,3.6597,3.6436,3.6144,3.6451,3.6436,3.6144,3.6466,3.6597,3.6597,3.6597,3.6597,3.6597,3.6612,3.6817,3.7095,3.7109,3.7095,3.6679,3.4638,3.3627,3.2572,2.8314,2.8303,2.9557,2.7877,2.8962,3.0361,2.8406,2.8006,2.7768,2.5525,2.4882,2.4882,2.4882,2.4882,2.4882,2.4882,2.4891,2.4891,2.4882,2.4891,2.5711,2.8194,2.8564,2.9415,3.184,3.4503,3.6311,3.6337,3.8715,4.0475,4.049,4.049,4.049,4.049,4.049,4.049,4.049,4.049,4.049,4.049,4.0812,4.0973,4.1016,4.1616,4.2055,4.2392,4.2714,4.3036,4.3358,4.3358,4.3197,1.4444,0.0,0.0,0.0,0.0,0.0,0.0,0.0,2.5595,2.7956,2.8653,2.9515,3.1583,3.2398,3.2837,3.3012,3.3773,3.4358,3.4358,3.4549,3.471,3.471,3.471,3.471,3.471,3.49,3.5163,0.0,3.5807,3.6129,3.6451,3.7007,3.7387,3.7578,3.8031,3.8046,3.7578,3.749,3.7153,3.6597,3.6597,3.6553,3.648,3.6568,3.6553,3.648,3.6568,3.6597,3.6597,3.6597,3.6597,3.6626,3.6861,3.7007,3.7124,3.7358,3.6363,3.4739,3.4132,3.1591,2.8721,2.9116,2.7487,2.5913,2.87,2.9066,2.8479,2.7982,2.8006,2.7768,2.5525,2.4882,2.4882,2.4882,2.4882,2.4882,2.4882,2.5005,2.508,2.491,2.5005,2.5896,2.8225,2.8703,2.9106,2.9888,3.2183,3.3862,3.4184,3.6366,3.8569,4.0271,4.049,4.049,4.049,4.049,4.049,4.049,4.049,4.0607,4.0812,4.0929,4.1177,4.1616,4.2055,4.2421,4.2743,4.2831,4.3036,4.3358,4.3358,4.3314,0.0,0.0,0.0,0.0,0.0,0.0,0.0,0.0,0.0,0.0,2.9143,2.9843,3.1467,3.2222,3.2573,3.2573,3.3378,3.4066,3.4197,3.4388,3.4549,3.4695,3.471,3.471,3.471,3.4871,3.5149,3.5713,3.5807,3.6114,3.6583,3.7226,3.7578,3.7578,3.8207,3.8295,3.7782,3.7651,3.7314,3.6802,3.667,3.6597,3.6597,3.6597,3.6597,3.6597,3.6597,3.6597,3.6597,3.6597,3.6685,3.6831,3.7022,3.7183,3.7213,3.6475,3.5203,3.3612,3.1869,2.9349,2.6998,2.7283,2.6334,2.5447,2.7316,2.7762,2.7578,2.6755,2.6704,2.66,2.5208,2.4882,2.491,2.5005,2.5005,2.5033,2.5128,2.5232,2.5279,2.5062,2.5184,2.5798,2.7196,2.754,2.7703,2.7917,3.0846,3.3023,3.3268,3.6308,3.8912,4.0351,4.049,4.049,4.049,4.049,4.049,4.049,4.0607,4.0768,4.0973,4.1221,4.1529,4.1894,4.2216,4.2553,4.2875,4.3153,4.3431,4.3753,4.3753,4.368,0.0,0.0,0.0,0.0,0.0,0.0,0.0,0.0,0.0,0.0,3.0099,3.0382,3.0966,3.1311,3.1555,3.1555,3.2508,3.3427,3.4017,3.4227,3.4388,3.4666,3.471,3.471,3.471,3.4739,3.4988,3.564,3.5757,3.5983,3.6626,3.7241,3.7592,3.7636,3.8221,3.8382,3.8075,3.7739,3.7417,3.7095,3.6758,3.6597,3.6597,3.6597,3.6597,3.6597,3.6597,3.6597,3.6597,3.6597,3.6802,3.7095,3.7124,3.7213,3.6954,3.5014,3.3891,3.2583,2.8688,2.6998,2.6179,2.4245,2.5106,2.6567,2.4827,2.5765,2.7045,2.5358,2.4882,2.4891,2.491,2.492,2.4986,2.5184,2.5232,2.5279,2.5458,2.5534,2.5477,2.5307,2.543,2.561,2.5799,2.5855,2.5931,2.6101,2.9706,3.2744,3.318,3.6998,3.9804,4.0023,4.0351,4.0366,4.0132,4.0395,4.0534,4.0534,4.0855,4.1046,4.109,4.1616,4.1894,4.1938,4.2231,4.2553,4.2875,4.3519,4.3987,4.428,4.4309,4.4163,0.0,0.0,0.0,0.0,0.0,0.0,0.0,1.7815,1.9043,0.0,2.2817,2.3874,2.5999,2.6803,2.7157,2.7157,2.8908,3.1131,3.3427,3.4285,3.4636,3.4695,3.471,3.471,3.471,3.4929,3.5119,3.5236,3.5734,3.6305,3.6963,3.7373,3.7695,3.7958,3.8339,3.8382,3.8075,3.7739,3.7417,3.7095,3.6758,3.6597,3.6597,3.6597,3.6597,3.6597,3.6597,3.6597,3.6597,3.6597,3.6802,3.7109,3.7373,3.6475,3.4911,3.4729,3.2091,2.8585,2.7666,2.5965,2.4142,2.3738,2.4088,2.4613,2.4413,2.473,2.5156,2.4934,2.4882,2.492,2.5109,2.5137,2.5203,2.5402,2.5458,2.5458,2.5506,2.5657,2.5751,2.5704,2.5732,2.578,2.5827,2.595,2.6082,2.6129,2.69,2.8935,3.2756,3.4073,3.5434,3.7343,3.9366,3.968,3.7757,3.9579,4.0885,4.0885,4.1177,4.1455,4.1704,4.1821,4.2026,4.2304,4.2348,4.2553,4.2875,4.3519,4.387,4.3914,4.4192,4.428,0.0,0.0,0.0,1.5942,0.0,0.0,0.0,0.0,1.9101,2.1727,2.2613,2.3386,2.4721,2.5483,2.5896,2.5762,2.7998,2.9829,2.993,3.2394,3.4285,3.4446,3.4607,3.471,3.471,3.4841,3.4988,3.5149,3.5749,3.6334,3.6817,3.7314,3.7724,3.8046,3.8368,3.847,3.8295,3.7812,3.7504,3.7329,3.6846,3.6597,3.6597,3.6597,3.6597,3.6597,3.6597,3.6597,3.6597,3.6597,3.6191,3.5473,3.5728,3.5074,3.3851,3.1821,2.9446,2.6976,2.5841,2.4643,2.3653,2.3767,2.3937,2.4154,2.4362,2.457,2.475,2.4854,2.4958,2.5062,2.5184,2.5279,2.5402,2.561,2.5657,2.5704,2.5808,2.5903,2.5978,2.5978,2.5978,2.5978,2.5978,2.6054,2.6129,2.6129,2.7147,2.8719,3.1184,3.2508,3.3738,3.4964,3.7219,3.8294,3.7185,3.9514,4.1046,4.1207,4.1485,4.1733,4.1894,4.2055,4.2216,4.2392,4.2392,4.2465,4.2626,4.3109,4.3519,4.3826,4.4163,4.4323,0.0,0.0,0.0,0.0,0.0,1.6516,0.0,0.0,0.0,0.0,0.0,0.0,0.0,0.0,0.0,0.0,0.0,0.0,0.0,2.9335,0.0,3.2662,3.3801,3.442,3.3938,3.4276,3.4733,3.5134,3.5535,3.6031,3.6583,3.7168,3.7665,3.8046,3.8368,3.8543,3.8543,3.7841,3.7519,3.7563,3.6846,3.6539,3.6597,3.6597,3.6597,3.6597,3.6597,3.6597,3.6597,3.6202,3.5137,3.3849,3.3902,3.3409,3.2175,2.8688,2.6894,2.5984,2.4245,2.3635,2.3672,2.389,2.4126,2.4362,2.458,2.475,2.4891,2.4929,2.508,2.5232,2.5307,2.5458,2.5629,2.5827,2.5884,2.5931,2.6101,2.6129,2.6129,2.6129,2.6129,2.6129,2.6129,2.6129,2.6129,2.6129,2.7707,2.9183,2.9615,3.1397,3.2656,3.2691,3.5275,3.6963,3.6808,3.9518,4.1251,4.1529,4.1821,4.1982,4.1982,4.226,4.2392,4.2392,4.2392,4.2392,4.2392,4.2714,4.3153,4.3665,4.4002,4.4119,0.0,0.0,0.0,0.0,1.6018,1.624,0.0,0.0,1.7054,1.7771,0.0,0.0,0.0,0.0,0.0,0.0,0.0,0.0,2.2994,2.5249,2.7038,2.7065,3.1337,3.3408,3.1316,3.2887,3.4327,3.5134,3.4841,3.5164,3.6553,3.6948,3.7431,3.8046,3.8368,3.8543,3.8543,3.7607,3.7285,3.7563,3.6626,3.6319,3.6597,3.6597,3.6597,3.6597,3.6597,3.6597,3.64,3.4585,3.36,3.3454,3.3822,3.1563,2.808,2.7562,2.5975,2.3945,2.3738,2.3635,2.3672,2.389,2.423,2.4589,2.4787,2.4863,2.492,2.5109,2.5184,2.5279,2.5657,2.578,2.5855,2.6054,2.6101,2.6101,2.6129,2.6129,2.6129,2.6129,2.6129,2.6129,2.6129,2.6129,2.6129,2.6129,2.6348,2.7241,2.9399,2.9954,3.0132,3.0361,3.4569,3.6596,3.4586,3.8978,4.1821,4.185,4.2143,4.2348,4.2348,4.2377,4.2392,4.2392,4.2392,4.2392,4.2392,4.2714,4.2919,4.2992,4.3314,4.3475,0.0,0.0,0.0,0.0,0.0,0.0,1.6136,0.0,1.6566,0.0,0.0,0.0,0.0,0.0,0.0,0.0,2.1063,0.0,0.0,0.0,2.6342,0.0,0.0,0.0,3.0603,3.1677,3.2993,3.4806,3.3739,3.4004,3.6192,3.6992,3.7592,3.8046,3.8368,3.8543,3.8543,3.7943,3.7636,3.7563,3.6963,3.6656,3.6597,3.6597,3.6597,3.6597,3.6597,3.589,3.4684,3.3787,3.1957,2.9647,2.9753,2.8677,2.6944,2.5717,2.4529,2.3635,2.3635,2.372,2.388,2.422,2.4523,2.4778,2.4863,2.4882,2.4929,2.5156,2.5279,2.5458,2.5751,2.5903,2.6025,2.6101,2.6129,2.6129,2.6129,2.6129,2.6129,2.6129,2.6129,2.6129,2.6129,2.6129,2.6129,2.6129,2.6129,2.652,2.7668,2.7793,2.7873,2.8082,3.2573,3.5181,3.4409,3.9029,4.1982,4.2187,4.2304,4.2392,4.2392,4.2392,4.2392,4.2392,4.2392,4.2392,4.2392,4.2509,4.2582,4.2582,4.3109,4.3358,1.6419,0.0,0.0,0.0,0.0,0.0,0.0,0.0,0.0,0.0,0.0,0.0,0.0,0.0,0.0,0.0,0.0,0.0,0.0,0.0,0.0,0.0,0.0,0.0,0.0,0.0,3.0803,3.3573,0.0,3.2942,3.5905,3.6963,3.7592,3.7929,3.8324,3.8543,3.8543,3.8134,3.7812,3.7578,3.7153,3.6831,3.6597,3.6597,3.6597,3.6597,3.6597,3.5394,3.3374,3.2773,3.0242,2.6794,2.6179,2.5974,2.5779,2.4142,2.3635,2.3644,2.3701,2.3899,2.4183,2.4485,2.4721,2.4882,2.4882,2.4929,2.5005,2.5232,2.543,2.5657,2.5855,2.6025,2.6129,2.6129,2.6129,2.6129,2.6129,2.6129,2.6148,2.6205,2.6177,2.6148,2.6205,2.6177,2.6129,2.6129,2.6177,2.6281,2.6422,2.6498,2.6602,2.6829,3.0641,3.3614,3.4571,3.8546,4.1416,4.2377,4.2392,4.2392,4.2392,4.2392,4.2392,4.2392,4.2392,4.2392,4.2392,4.2392,4.2392,4.2392,4.2875,4.308,0.0,0.0,0.0,1.7479,0.0,0.0,0.0,0.0,1.7199,0.0,0.0,0.0,0.0,0.0,0.0,0.0,0.0,0.0,0.0,0.0,0.0,0.0,0.0,0.0,0.0,0.0,0.0,0.0,0.0,0.0,3.589,3.6744,3.7256,3.7578,3.8207,3.8543,3.8543,3.7914,3.7592,3.7563,3.6934,3.6612,3.6597,3.6597,3.6597,3.6597,3.6597,3.5394,3.3274,3.1139,2.8913,2.6691,2.4554,2.3738,2.3738,2.3635,2.3635,2.3663,2.388,2.422,2.457,2.458,2.4721,2.4882,2.4882,2.5033,2.5232,2.543,2.5657,2.5855,2.6073,2.6129,2.6129,2.6129,2.6129,2.6129,2.6129,2.6129,2.6177,2.6403,2.6281,2.6205,2.6403,2.6281,2.6129,2.6129,2.6299,2.6335,2.6451,2.663,2.6829,2.7056,2.9385,3.203,3.4639,3.7232,3.9807,4.2277,4.2392,4.2392,4.2392,4.2392,4.2392,4.2392,4.2392,4.2392,4.2392,4.2392,4.2392,4.2392,4.2421,4.2421,0.0,0.0,1.6862,1.7527,0.0,0.0,0.0,0.0,0.0,0.0,0.0,0.0,0.0,0.0,0.0,0.0,0.0,0.0,0.0,0.0,0.0,0.0,0.0,0.0,0.0,0.0,0.0,0.0,0.0,0.0,0.0,3.6626,3.7139,3.7256,3.7885,3.8221,3.8221,3.8221,3.8002,3.7578,3.7358,3.7022,3.6597,3.6597,3.6597,3.6498,3.5096,3.326,3.1038,2.8913,2.6691,2.4657,2.3945,2.3635,2.3635,2.3635,2.3635,2.3682,2.4041,2.4343,2.4608,2.474,2.4825,2.4882,2.4882,2.5033,2.526,2.5458,2.5657,2.5874,2.6082,2.6129,2.6129,2.6129,2.6129,2.6129,2.6129,2.6129,2.6148,2.6224,2.6177,2.6148,2.6224,2.6299,2.6347,2.6347,2.6403,2.6555,2.6829,2.6933,2.7056,2.7254,2.9513,3.2114,3.4639,3.874,4.1446,4.2377,4.2392,4.2392,4.2392,4.2392,4.2392,4.2392,4.2392,4.2392,4.2392,4.2392,4.2392,4.2392,4.2392,4.2392,1.675,1.6859,0.0,1.7743,1.7536,0.0,1.7923,0.0,1.8139,0.0,0.0,0.0,0.0,0.0,0.0,0.0,0.0,0.0,0.0,0.0,0.0,0.0,0.0,0.0,0.0,0.0,0.0,0.0,0.0,0.0,0.0,0.0,3.6963,3.7095,3.7724,3.8061,3.8061,3.8382,3.8221,3.7578,3.7578,3.7241,3.6597,3.6597,3.6202,3.5394,3.3987,3.1756,2.8811,2.7498,2.5574,2.3635,2.3635,2.3635,2.3635,2.3635,2.3729,2.3909,2.4258,2.4513,2.4712,2.4844,2.4882,2.4901,2.4986,2.5156,2.5336,2.5383,2.5657,2.5931,2.5903,2.6025,2.6129,2.6129,2.6129,2.6129,2.6129,2.6129,2.6148,2.6224,2.6177,2.6177,2.6328,2.6403,2.6451,2.6451,2.6574,2.6781,2.7056,2.7131,2.7226,2.7358,2.8782,3.1138,3.4663,3.8624,4.1446,4.2377,4.2392,4.2392,4.2392,4.2392,4.2392,4.2392,4.2392,4.2392,4.2392,4.2392,4.2392,4.2392,4.2392,4.2392]}]]